[[{"header":{"parameterUnit":"m.s-1","parameterCategory":1,"la1":30.6,"la2":29.2853,"lo1":-89.7004,"lo2":-87.6739,"dy":0.0162,"dx":0.0183,"nx":112,"ny":82,"refTime":"2023-04-18T06:00:00:Z","depth":0,"parameterNumber":2,"parameterNumberName":"U-component_of_WINDS"},"data":[0.0,0.0,0.0,0.0,0.0,0.0,0.0,0.0,0.0,0.0,0.0,0.0,0.0,0.0,0.0,0.0,0.0,0.0,0.0,0.0,0.0,0.0,0.0,0.0,0.0,0.0,0.0,0.0,0.0,0.0,0.0,0.0,0.0,0.0,0.0,0.0,0.0,0.0,0.0,0.0,0.0,0.0,0.0,0.0,0.0,0.0,0.0,0.0,0.0,0.0,0.0,0.0,0.0,0.0,0.0,0.0,0.0,0.0,0.0,0.0,0.0,0.0,0.0,0.0,0.0,0.0,0.0,0.0,0.0,0.0,0.0,0.0,0.0,0.0,0.0,0.0,0.0,0.0,0.0,0.0,0.0,0.0,0.0,0.0,0.0,0.0,0.0,0.0,0.0,0.0,0.0,6.0961,6.2112,6.2805,6.2805,6.2805,6.2805,6.2805,0.0,0.0,0.0,0.0,0.0,0.0,0.0,0.0,0.0,0.0,0.0,0.0,0.0,0.0,0.0,0.0,0.0,0.0,0.0,0.0,0.0,0.0,0.0,0.0,0.0,0.0,0.0,0.0,0.0,0.0,0.0,0.0,0.0,0.0,0.0,0.0,0.0,0.0,0.0,0.0,0.0,0.0,0.0,0.0,0.0,0.0,0.0,0.0,0.0,0.0,0.0,0.0,0.0,0.0,0.0,0.0,0.0,0.0,0.0,0.0,0.0,0.0,0.0,0.0,0.0,0.0,0.0,0.0,0.0,0.0,0.0,0.0,0.0,0.0,0.0,0.0,0.0,0.0,0.0,0.0,0.0,0.0,0.0,0.0,0.0,0.0,0.0,0.0,0.0,0.0,0.0,0.0,0.0,0.0,0.0,0.0,0.0,0.0,0.0,0.0,0.0,0.0,0.0,0.0,6.0423,6.164,6.236,6.2805,6.2805,6.2805,6.2805,6.2805,0.0,0.0,0.0,0.0,0.0,0.0,0.0,0.0,0.0,0.0,0.0,0.0,0.0,0.0,0.0,0.0,0.0,0.0,0.0,0.0,0.0,0.0,0.0,0.0,0.0,0.0,0.0,0.0,0.0,0.0,0.0,0.0,0.0,0.0,0.0,0.0,0.0,0.0,0.0,0.0,0.0,0.0,0.0,0.0,0.0,0.0,0.0,0.0,0.0,0.0,0.0,0.0,0.0,0.0,0.0,0.0,0.0,0.0,0.0,0.0,0.0,0.0,0.0,0.0,0.0,0.0,0.0,0.0,0.0,0.0,0.0,0.0,0.0,0.0,0.0,0.0,0.0,0.0,0.0,0.0,0.0,0.0,0.0,0.0,0.0,0.0,0.0,0.0,0.0,0.0,0.0,0.0,0.0,0.0,0.0,0.0,0.0,0.0,0.0,0.0,0.0,0.0,0.0,6.1344,6.2295,6.3566,6.4009,6.4163,6.4163,6.4163,6.4163,6.4163,6.4163,0.0,0.0,0.0,0.0,0.0,0.0,0.0,0.0,0.0,0.0,0.0,0.0,0.0,0.0,0.0,0.0,0.0,0.0,0.0,0.0,0.0,0.0,0.0,0.0,0.0,0.0,0.0,0.0,0.0,0.0,0.0,0.0,0.0,0.0,0.0,0.0,0.0,0.0,0.0,0.0,0.0,0.0,0.0,0.0,0.0,0.0,0.0,0.0,0.0,0.0,0.0,0.0,0.0,0.0,0.0,0.0,0.0,0.0,0.0,0.0,0.0,0.0,0.0,0.0,0.0,0.0,0.0,0.0,0.0,0.0,0.0,0.0,0.0,0.0,0.0,0.0,0.0,0.0,0.0,0.0,0.0,0.0,0.0,0.0,0.0,0.0,0.0,0.0,0.0,0.0,0.0,0.0,0.0,0.0,0.0,0.0,0.0,0.0,0.0,0.0,0.0,0.0,6.3251,6.4173,6.5197,6.5301,6.5301,6.5301,6.5301,6.5301,6.5301,6.5301,0.0,0.0,0.0,0.0,0.0,0.0,0.0,0.0,0.0,0.0,0.0,0.0,0.0,0.0,0.0,0.0,0.0,0.0,0.0,0.0,0.0,0.0,0.0,0.0,0.0,0.0,0.0,0.0,0.0,0.0,0.0,0.0,0.0,0.0,0.0,0.0,0.0,0.0,0.0,0.0,0.0,0.0,0.0,0.0,0.0,0.0,0.0,0.0,0.0,0.0,0.0,0.0,0.0,0.0,0.0,0.0,0.0,0.0,0.0,0.0,0.0,0.0,0.0,0.0,0.0,0.0,0.0,0.0,0.0,0.0,0.0,0.0,0.0,0.0,0.0,0.0,0.0,0.0,0.0,0.0,0.0,0.0,0.0,0.0,0.0,0.0,0.0,0.0,0.0,0.0,0.0,0.0,0.0,0.0,0.0,0.0,0.0,0.0,0.0,0.0,0.0,0.0,6.4344,6.5197,6.5301,6.5301,6.5301,6.5301,6.5301,6.5301,6.5301,6.5301,0.0,0.0,0.0,0.0,0.0,0.0,0.0,0.0,0.0,0.0,0.0,0.0,0.0,0.0,0.0,0.0,0.0,0.0,0.0,0.0,0.0,0.0,0.0,0.0,0.0,0.0,0.0,0.0,0.0,0.0,0.0,0.0,0.0,0.0,0.0,0.0,0.0,0.0,0.0,0.0,0.0,0.0,0.0,0.0,0.0,0.0,0.0,0.0,0.0,0.0,0.0,0.0,0.0,0.0,0.0,0.0,0.0,0.0,0.0,0.0,0.0,0.0,0.0,0.0,0.0,0.0,0.0,0.0,0.0,0.0,0.0,0.0,0.0,0.0,0.0,0.0,0.0,0.0,0.0,0.0,0.0,0.0,0.0,0.0,0.0,0.0,0.0,0.0,0.0,0.0,0.0,0.0,0.0,0.0,0.0,0.0,0.0,0.0,0.0,0.0,0.0,0.0,6.5272,6.6354,0.0,6.6806,6.6806,6.6806,6.6806,6.6806,6.6806,0.0,0.0,0.0,0.0,0.0,0.0,0.0,0.0,0.0,0.0,0.0,0.0,0.0,0.0,0.0,0.0,0.0,0.0,0.0,0.0,0.0,0.0,0.0,0.0,0.0,0.0,0.0,0.0,0.0,0.0,0.0,0.0,0.0,0.0,0.0,0.0,0.0,0.0,0.0,0.0,0.0,0.0,0.0,0.0,0.0,0.0,0.0,0.0,0.0,0.0,0.0,0.0,0.0,0.0,0.0,0.0,0.0,0.0,0.0,0.0,0.0,0.0,0.0,0.0,0.0,0.0,0.0,0.0,0.0,0.0,0.0,0.0,0.0,0.0,0.0,0.0,0.0,0.0,0.0,0.0,0.0,0.0,0.0,0.0,0.0,0.0,0.0,0.0,0.0,0.0,0.0,0.0,0.0,0.0,0.0,0.0,0.0,0.0,0.0,0.0,0.0,0.0,6.4804,6.6355,6.7575,0.0,6.8311,6.8458,6.8458,6.8458,6.8458,6.8458,0.0,0.0,0.0,0.0,0.0,0.0,0.0,0.0,0.0,0.0,0.0,0.0,0.0,0.0,0.0,0.0,0.0,0.0,0.0,0.0,0.0,0.0,0.0,0.0,0.0,0.0,0.0,0.0,0.0,0.0,0.0,0.0,0.0,0.0,0.0,0.0,0.0,0.0,0.0,0.0,0.0,0.0,0.0,0.0,0.0,0.0,0.0,0.0,0.0,0.0,0.0,0.0,0.0,0.0,0.0,0.0,0.0,0.0,0.0,0.0,0.0,0.0,0.0,0.0,0.0,0.0,0.0,0.0,0.0,0.0,0.0,0.0,0.0,0.0,0.0,0.0,0.0,0.0,0.0,0.0,0.0,0.0,0.0,0.0,0.0,0.0,0.0,0.0,0.0,0.0,0.0,0.0,0.0,0.0,0.0,0.0,0.0,0.0,0.0,0.0,0.0,0.0,6.5518,6.7542,6.8898,6.8898,6.9633,7.011,7.011,7.011,7.011,0.0,0.0,0.0,0.0,0.0,0.0,0.0,0.0,0.0,0.0,0.0,0.0,0.0,0.0,0.0,0.0,0.0,0.0,0.0,0.0,0.0,0.0,0.0,0.0,0.0,0.0,0.0,0.0,0.0,0.0,0.0,0.0,0.0,0.0,0.0,0.0,0.0,0.0,0.0,0.0,0.0,0.0,0.0,0.0,0.0,0.0,0.0,0.0,0.0,0.0,0.0,0.0,0.0,0.0,0.0,0.0,0.0,0.0,0.0,0.0,0.0,0.0,0.0,0.0,0.0,0.0,0.0,0.0,0.0,0.0,0.0,0.0,0.0,0.0,0.0,0.0,0.0,0.0,0.0,0.0,0.0,0.0,0.0,0.0,0.0,0.0,0.0,0.0,0.0,0.0,0.0,0.0,0.0,0.0,0.0,0.0,0.0,0.0,0.0,0.0,0.0,0.0,0.0,0.0,6.8706,6.9743,6.9743,6.9963,7.011,7.011,7.011,7.011,7.011,0.0,0.0,0.0,0.0,0.0,0.0,0.0,0.0,0.0,0.0,0.0,0.0,0.0,0.0,0.0,0.0,0.0,0.0,0.0,0.0,0.0,0.0,0.0,0.0,0.0,0.0,0.0,0.0,0.0,0.0,0.0,0.0,0.0,0.0,0.0,0.0,0.0,0.0,0.0,0.0,0.0,0.0,0.0,0.0,0.0,0.0,0.0,0.0,0.0,0.0,0.0,0.0,0.0,0.0,0.0,0.0,0.0,0.0,0.0,0.0,0.0,0.0,0.0,0.0,0.0,0.0,0.0,0.0,0.0,0.0,0.0,0.0,0.0,0.0,0.0,0.0,0.0,0.0,0.0,0.0,0.0,0.0,0.0,0.0,0.0,0.0,0.0,0.0,0.0,0.0,0.0,0.0,0.0,0.0,0.0,0.0,0.0,0.0,0.0,0.0,0.0,0.0,6.8343,6.9697,7.0587,7.0587,7.0881,7.1064,7.1064,7.1064,7.1064,7.1064,0.0,0.0,0.0,0.0,0.0,0.0,0.0,0.0,0.0,0.0,0.0,0.0,0.0,0.0,0.0,0.0,0.0,0.0,0.0,0.0,0.0,0.0,0.0,0.0,0.0,0.0,0.0,0.0,0.0,0.0,0.0,0.0,0.0,0.0,0.0,0.0,0.0,0.0,0.0,0.0,0.0,0.0,0.0,0.0,0.0,0.0,0.0,0.0,0.0,0.0,0.0,0.0,0.0,0.0,0.0,0.0,0.0,0.0,0.0,0.0,0.0,0.0,0.0,0.0,0.0,0.0,0.0,0.0,0.0,0.0,0.0,0.0,0.0,0.0,0.0,0.0,0.0,0.0,0.0,0.0,0.0,0.0,0.0,0.0,0.0,0.0,0.0,0.0,0.0,0.0,0.0,0.0,0.0,0.0,0.0,0.0,0.0,0.0,0.0,0.0,0.0,0.0,6.9298,7.0537,7.1431,7.1431,7.2055,7.2496,7.2496,7.2496,7.2496,7.2496,0.0,0.0,0.0,0.0,0.0,0.0,0.0,0.0,0.0,0.0,0.0,0.0,0.0,0.0,0.0,0.0,0.0,0.0,0.0,0.0,0.0,0.0,0.0,0.0,0.0,0.0,0.0,0.0,0.0,0.0,0.0,0.0,0.0,0.0,0.0,0.0,0.0,0.0,0.0,0.0,0.0,0.0,0.0,0.0,0.0,0.0,0.0,0.0,0.0,0.0,0.0,0.0,0.0,0.0,0.0,0.0,0.0,0.0,0.0,0.0,6.9679,0.0,0.0,0.0,0.0,0.0,0.0,0.0,0.0,0.0,0.0,0.0,0.0,0.0,0.0,0.0,0.0,0.0,0.0,0.0,0.0,0.0,0.0,0.0,0.0,0.0,0.0,0.0,0.0,0.0,0.0,0.0,0.0,0.0,0.0,0.0,0.0,0.0,0.0,0.0,0.0,0.0,7.0857,7.1668,7.2239,7.2239,7.2422,7.2496,7.2496,7.2496,7.2496,7.2496,0.0,0.0,0.0,0.0,0.0,0.0,0.0,0.0,0.0,0.0,0.0,0.0,0.0,0.0,0.0,0.0,0.0,0.0,0.0,0.0,0.0,0.0,0.0,0.0,0.0,0.0,0.0,0.0,0.0,0.0,0.0,0.0,0.0,0.0,0.0,0.0,0.0,0.0,0.0,0.0,0.0,0.0,0.0,0.0,0.0,0.0,0.0,0.0,0.0,0.0,0.0,0.0,0.0,0.0,0.0,0.0,0.0,0.0,0.0,0.0,0.0,7.0087,0.0,0.0,0.0,0.0,0.0,0.0,0.0,0.0,0.0,0.0,0.0,0.0,0.0,0.0,0.0,0.0,0.0,0.0,0.0,0.0,0.0,0.0,0.0,0.0,0.0,0.0,0.0,0.0,0.0,0.0,0.0,0.0,0.0,0.0,0.0,0.0,0.0,0.0,0.0,0.0,7.1872,7.2239,7.2496,7.2496,7.2496,7.2496,7.2496,7.2496,7.2496,7.2496,7.2496,0.0,0.0,0.0,0.0,0.0,0.0,0.0,0.0,0.0,0.0,0.0,0.0,0.0,0.0,0.0,0.0,0.0,0.0,0.0,0.0,0.0,0.0,0.0,0.0,0.0,0.0,0.0,0.0,0.0,0.0,0.0,0.0,0.0,0.0,0.0,0.0,0.0,0.0,0.0,0.0,0.0,0.0,0.0,0.0,0.0,0.0,0.0,0.0,0.0,0.0,0.0,0.0,0.0,0.0,0.0,7.1366,7.1366,7.1738,7.2369,7.1663,7.1204,7.1093,0.0,0.0,0.0,0.0,0.0,0.0,0.0,0.0,0.0,0.0,0.0,0.0,0.0,0.0,0.0,0.0,0.0,0.0,0.0,0.0,0.0,0.0,0.0,0.0,0.0,6.8128,6.8752,0.0,0.0,0.0,0.0,0.0,0.0,0.0,0.0,0.0,0.0,0.0,0.0,7.2496,7.2496,7.2496,7.2496,7.2496,7.2496,7.2496,7.2496,7.2496,7.2496,7.2496,7.2496,0.0,0.0,0.0,0.0,0.0,0.0,0.0,0.0,0.0,0.0,0.0,0.0,0.0,0.0,0.0,0.0,0.0,0.0,0.0,0.0,0.0,0.0,0.0,0.0,0.0,0.0,0.0,0.0,0.0,0.0,0.0,0.0,6.5101,6.5472,0.0,0.0,0.0,0.0,0.0,0.0,0.0,0.0,0.0,0.0,0.0,0.0,0.0,0.0,7.1998,7.2035,7.2369,7.3075,7.3075,7.3075,7.3075,7.3075,7.3112,7.3224,7.3112,0.0,7.1843,7.1843,0.0,0.0,0.0,0.0,0.0,0.0,0.0,0.0,0.0,0.0,0.0,0.0,0.0,0.0,0.0,0.0,0.0,0.0,0.0,0.0,0.0,0.0,6.9633,6.9633,6.9779,6.9889,0.0,6.9706,6.9816,6.9926,0.0,0.0,0.0,0.0,0.0,0.0,0.0,0.0,7.2496,7.2496,7.2496,7.2496,7.2496,7.2496,7.2496,7.2496,7.2496,7.2496,7.2496,7.2496,7.2496,7.2496,0.0,0.0,0.0,0.0,0.0,0.0,0.0,0.0,0.0,0.0,0.0,0.0,0.0,0.0,0.0,0.0,0.0,0.0,0.0,0.0,0.0,0.0,0.0,0.0,0.0,0.0,0.0,0.0,0.0,6.5132,6.5588,6.6081,6.6118,6.6486,0.0,0.0,0.0,0.0,0.0,0.0,0.0,0.0,0.0,7.1575,7.1984,7.2429,7.2852,7.2852,7.3038,7.3372,7.3372,7.3372,7.3372,7.3372,7.3372,7.3372,7.3372,7.3187,7.28,7.28,7.2526,7.214,0.0,0.0,0.0,0.0,0.0,0.0,7.1029,0.0,0.0,0.0,0.0,0.0,0.0,0.0,0.0,0.0,0.0,0.0,0.0,0.0,0.0,7.011,7.044,7.077,7.077,7.1138,7.1321,0.0,7.1138,7.1578,7.1908,0.0,0.0,0.0,0.0,0.0,7.2496,7.2496,7.2496,7.2496,7.2496,7.2496,7.2496,7.2496,7.2496,7.2496,7.2496,7.2496,7.2496,7.2496,7.2496,0.0,0.0,0.0,0.0,0.0,0.0,0.0,0.0,0.0,0.0,0.0,0.0,0.0,0.0,0.0,0.0,0.0,0.0,0.0,0.0,0.0,0.0,0.0,0.0,0.0,0.0,0.0,0.0,6.5882,0.0,6.7132,6.7258,6.7863,0.0,0.0,0.0,0.0,0.0,0.0,7.1013,7.1984,7.2481,7.2481,7.3075,7.3372,7.3372,7.3372,7.3372,7.3372,7.3372,7.3372,7.3372,7.3372,7.3372,7.3372,7.3372,7.3372,7.3372,7.3372,7.3372,7.3372,7.3305,7.3252,0.0,7.3037,7.2872,7.2613,7.1968,7.1728,7.1505,7.0917,0.0,7.0697,7.0697,0.0,0.0,0.0,0.0,7.0697,7.0697,0.0,7.0697,7.0697,7.1174,7.1615,7.1615,7.2092,7.2312,0.0,7.2092,7.2496,7.2496,0.0,0.0,0.0,0.0,7.2496,7.2496,7.2496,7.2496,7.2496,7.2679,7.2826,7.2826,7.301,7.3046,7.2826,7.2826,7.2716,7.2496,7.2496,7.2496,0.0,0.0,0.0,0.0,0.0,0.0,0.0,0.0,0.0,0.0,0.0,0.0,0.0,0.0,0.0,0.0,0.0,0.0,0.0,0.0,0.0,0.0,0.0,0.0,0.0,0.0,0.0,0.0,0.0,0.0,6.9052,6.9281,0.0,0.0,0.0,0.0,7.068,7.1458,7.1954,7.1954,7.2838,7.3335,7.3335,7.3372,7.3372,7.3372,7.3372,7.3372,7.3372,7.3372,7.3372,7.3372,7.3372,7.3372,7.3372,7.3372,7.3372,7.3372,7.3372,7.3372,7.3372,7.3372,7.3305,7.3199,7.3037,7.2872,7.2667,7.2516,7.2459,7.2422,7.2386,7.2386,7.2386,7.2386,7.2386,0.0,0.0,7.2386,7.2386,7.2386,7.2386,7.2386,7.2386,7.2422,7.2459,7.2459,7.2459,7.2496,0.0,7.2459,7.2496,7.2496,0.0,0.0,7.2496,7.2496,7.2496,7.2496,7.2496,7.2496,7.2496,7.3193,7.3634,7.3634,7.4331,7.4441,7.367,7.3634,7.3303,7.2532,7.2496,7.2496,7.2496,7.2496,0.0,0.0,0.0,0.0,0.0,0.0,0.0,0.0,0.0,0.0,0.0,0.0,0.0,0.0,0.0,0.0,0.0,0.0,0.0,0.0,0.0,0.0,0.0,0.0,0.0,0.0,0.0,0.0,6.9953,7.0117,0.0,0.0,7.1532,7.1717,7.2392,7.2726,7.2912,7.2912,7.3224,7.3372,7.3372,7.3372,7.3372,7.3372,7.3372,7.3372,7.3372,7.3372,7.367,7.4153,7.4153,7.445,7.4933,7.4933,7.4933,7.4933,7.4933,7.4301,7.3372,7.3372,7.3372,7.3357,7.3305,7.3108,7.2872,7.2872,7.2667,7.2496,7.2496,7.2496,7.2496,7.2496,7.2496,7.2496,7.2496,7.2496,7.2496,7.2496,7.2496,7.2496,7.2496,7.2496,7.2496,7.2496,7.2496,7.2496,7.2496,7.2496,7.2496,7.2496,7.2496,7.2496,7.2496,7.2496,7.2679,7.3193,7.3266,7.3487,7.4001,7.4294,7.4478,7.4478,7.4735,7.4808,7.4478,7.4478,7.4331,7.4074,7.4037,7.3817,7.3266,7.3628,7.337,0.0,0.0,0.0,0.0,0.0,0.0,0.0,0.0,0.0,0.0,0.0,0.0,0.0,0.0,0.0,0.0,0.0,0.0,0.0,0.0,0.0,0.0,0.0,0.0,0.0,0.0,7.0043,7.0803,7.102,7.1405,7.231,7.2436,7.2711,7.3335,7.3372,7.3372,7.3372,7.3372,7.3372,7.3372,7.3372,7.3521,7.3781,7.3781,7.393,7.419,7.419,7.4487,7.497,7.497,7.5304,7.5787,7.5787,7.5787,7.5787,7.5787,7.5156,7.4153,7.3892,7.3632,7.3372,7.3357,7.3252,7.3037,7.2927,7.2723,7.2553,7.2496,7.2496,7.2496,7.2496,7.2496,7.2496,7.2496,7.2496,7.2496,7.2496,7.2496,7.2496,7.2496,7.2496,7.2496,7.2496,7.2496,7.2496,7.2496,7.2496,7.2496,7.2496,7.2496,7.2606,7.2863,7.2899,7.3193,7.4001,7.4111,7.4294,7.4845,7.5139,7.5322,7.5322,7.5579,7.5616,7.5322,7.5322,7.5175,7.4918,7.4918,7.4661,7.4111,7.4663,7.4364,7.3148,0.0,0.0,0.0,0.0,0.0,0.0,0.0,0.0,0.0,0.0,0.0,0.0,0.0,0.0,0.0,0.0,0.0,0.0,0.0,0.0,0.0,0.0,0.0,7.056,7.0665,7.0961,7.1706,7.2028,7.2466,7.3124,7.3357,7.3372,7.3372,7.3372,7.3372,7.3372,7.341,7.341,7.341,7.3447,7.3818,7.4635,7.4635,7.5007,7.5787,7.5787,7.5787,7.5824,7.5824,7.5824,7.5861,7.5861,7.5861,7.5861,7.5861,7.5861,7.575,7.4933,7.4153,7.3447,7.3326,7.3273,7.3219,7.2872,7.276,7.2704,7.2553,7.2496,7.2496,7.2496,7.2496,7.2496,7.2496,7.2496,7.2496,7.2496,7.2496,7.2496,7.2496,7.2496,7.2496,7.2496,7.2496,7.2496,7.2532,7.2532,7.2532,7.2532,7.2532,7.2826,7.3597,7.3744,0.0,7.4845,7.4955,7.4955,7.4992,7.5689,7.613,7.613,7.6864,7.6974,7.6203,7.613,7.5799,7.5028,7.4992,7.4955,7.5014,7.544,7.5357,7.4577,0.0,0.0,0.0,0.0,0.0,0.0,0.0,0.0,0.0,0.0,0.0,0.0,0.0,0.0,0.0,0.0,0.0,0.0,0.0,0.0,0.0,0.0,7.1606,7.1606,7.171,7.2058,7.2822,7.2986,7.3149,7.332,7.3372,7.3372,7.3372,7.3372,7.3372,7.3372,7.393,7.4264,7.4264,7.4821,7.523,7.5453,7.5453,7.5564,7.5787,7.5787,7.6121,7.6716,7.6716,7.705,7.7608,7.7608,7.7608,7.7608,7.7608,7.7273,7.6642,7.5787,7.5304,7.5118,7.5065,7.5048,7.4811,7.4053,7.3757,7.3533,7.2851,7.2553,7.2496,7.2496,7.2496,7.2496,7.2496,7.2496,7.2496,7.2496,7.2496,7.2496,7.2496,7.2496,7.2496,7.2496,7.2496,7.2679,7.3266,7.3377,7.3377,7.3377,7.3377,7.3634,7.4441,0.0,0.0,7.5689,7.5763,7.5983,7.6607,7.6864,7.6974,7.6974,7.7194,7.7231,0.0,7.6974,7.69,7.668,7.6644,7.6728,7.6924,7.6133,7.5944,0.0,0.0,0.0,0.0,0.0,0.0,0.0,0.0,0.0,0.0,0.0,0.0,0.0,0.0,0.0,0.0,0.0,0.0,0.0,0.0,0.0,0.0,7.2377,7.26,7.26,7.2615,7.2852,7.3335,7.3372,7.3372,7.3372,7.3372,7.3372,7.3372,7.3707,7.3892,7.3892,7.4673,7.5081,7.5081,7.5564,7.5973,7.6344,7.6344,7.6493,7.6827,7.6827,7.7087,7.757,7.757,7.783,0.0,7.8276,7.8276,7.8276,7.8276,7.8016,0.0,0.0,0.0,0.0,0.0,7.5733,7.5587,7.4922,7.4662,7.4474,7.3844,7.3582,7.345,7.3083,7.301,7.2936,7.2606,7.2496,7.2496,7.2496,7.2496,7.2569,7.2936,7.301,7.3083,7.345,7.3523,7.3634,7.4111,0.0,0.0,7.4661,7.4441,7.4478,7.5285,7.5395,7.5689,0.0,7.6607,7.679,7.7268,7.7304,7.7304,7.7304,7.7304,0.0,0.0,0.0,7.7304,7.7304,7.751,0.0,0.0,0.0,7.741,0.0,0.0,0.0,0.0,7.5329,7.4978,0.0,0.0,0.0,0.0,0.0,0.0,0.0,0.0,0.0,0.0,0.0,0.0,0.0,0.0,0.0,0.0,7.2875,7.3372,7.3372,7.3372,7.3372,7.3372,7.3372,7.3372,7.3372,7.3484,7.3521,7.3521,7.4264,7.4747,0.0,0.0,0.0,0.0,0.0,7.6456,7.7199,7.731,7.7719,7.8425,7.8536,7.8573,7.8573,7.8573,7.8573,7.8573,7.8573,7.8573,7.8573,7.8573,7.8573,7.8462,7.757,7.6753,7.6084,7.6084,7.6084,0.0,0.0,0.0,0.0,7.5073,7.4978,7.4771,7.4037,7.3817,7.367,7.2973,7.2789,7.2789,7.2789,7.2789,7.2936,7.367,7.3817,7.4037,7.4771,7.4918,7.4955,7.5028,7.5065,7.5285,7.6093,7.5579,7.5322,7.613,7.624,0.0,7.7231,7.7304,7.7304,7.7304,0.0,0.0,7.7304,7.7304,7.7304,7.7304,7.7304,7.7304,7.7304,7.7768,7.7846,7.745,7.8841,7.9063,7.8022,7.8975,7.9016,7.8253,7.7155,7.6488,0.0,0.0,0.0,0.0,0.0,0.0,0.0,0.0,0.0,0.0,0.0,0.0,0.0,0.0,0.0,7.3149,7.3298,7.3372,7.3372,7.3372,7.3372,7.3372,7.3372,7.3372,7.3372,7.3967,7.4338,7.4338,7.5081,7.5564,7.5564,7.6382,0.0,7.6827,7.7459,7.7905,7.8053,7.8685,7.9094,7.9279,0.0,0.0,8.0245,8.0245,8.0245,8.0245,8.0245,8.0245,8.0245,8.0245,8.0245,8.0097,7.8611,7.7942,7.7793,7.7793,7.7793,7.7719,7.6995,7.6662,7.6402,7.5547,7.5248,7.5095,7.4794,7.4661,0.0,7.4478,7.4441,7.4441,7.4441,7.4441,7.4478,7.4625,7.4661,7.4735,7.4882,7.4918,7.5102,7.5726,7.5873,7.613,7.6937,7.6423,7.613,7.6974,7.7084,7.7157,7.7304,7.7304,7.7304,7.7304,7.7304,7.7304,7.7304,7.7304,7.7304,7.7304,7.7304,7.7304,7.7304,7.7426,7.7789,7.8588,7.8891,7.9373,7.997,8.0163,8.0162,7.9971,7.8447,7.7684,0.0,0.0,0.0,0.0,0.0,0.0,0.0,0.0,0.0,0.0,0.0,7.2778,0.0,0.0,7.3372,7.3372,7.3372,7.3372,7.3372,7.3372,7.3372,7.3372,7.3744,7.4004,7.4004,7.471,7.5193,7.5193,7.5973,7.6456,7.6456,7.7236,7.7682,7.7682,7.8462,7.8871,7.8871,7.9688,8.0097,8.0097,8.0505,8.0691,8.0691,8.0691,8.0691,8.0691,8.0691,8.0691,8.0691,8.0691,8.0691,8.0617,7.9799,7.9242,7.8871,7.8871,7.8648,7.8239,7.7738,7.7422,7.7176,7.6692,7.6405,7.6176,7.5616,7.5506,7.5432,7.5028,7.4918,7.4918,7.4918,7.4918,7.5028,7.5395,7.5506,7.5616,7.6019,7.613,7.624,7.6644,7.6717,7.6827,7.7268,7.6974,7.6864,7.7268,7.7304,7.7304,7.7304,7.7708,7.7965,7.7965,7.8332,7.8552,7.8552,7.8552,7.8552,7.8552,7.8552,7.8369,7.7965,7.8196,7.8233,7.8128,7.8891,7.9449,7.9708,8.0238,8.0506,8.0468,7.9627,7.9054,0.0,0.0,0.0,0.0,0.0,0.0,0.0,0.0,7.2406,7.2406,7.2927,7.3372,7.3372,7.3372,7.3372,7.3372,7.3372,7.3372,7.3372,7.3521,7.3632,7.3632,7.419,7.4635,7.4821,7.5564,7.6047,7.6047,7.6827,7.7385,7.7533,7.8165,7.8573,7.8759,7.9391,7.9725,7.9725,8.0542,8.0951,8.0951,8.11,8.1174,8.1174,8.1174,8.1174,8.1174,8.1174,8.1174,8.1174,8.1174,8.1174,8.1174,8.1174,8.0691,7.9948,7.9799,7.9316,7.8722,7.8424,7.8216,7.8064,7.774,7.7584,7.7316,7.6594,7.641,7.6263,7.5579,7.5395,7.5395,7.5395,7.5395,7.5542,7.6203,7.635,7.6533,7.7194,7.7304,7.7304,7.7304,7.7304,7.7304,7.7304,7.7451,7.7524,7.7341,7.7451,7.7561,7.7561,7.8295,7.8809,7.8809,7.9396,7.98,7.98,7.98,7.98,7.98,7.98,7.9507,7.8846,7.9187,7.8994,7.8108,7.9179,7.9676,7.9444,8.0157,8.0506,8.0506,8.0506,8.0162,7.0475,7.0735,0.0,7.0883,7.1478,7.2035,0.0,0.0,7.3261,7.3261,7.3335,7.3372,7.3372,7.3372,7.3372,7.3372,7.3372,7.3372,7.3372,7.4004,7.445,7.445,7.4524,7.4858,7.5601,7.6456,7.6939,7.6939,7.7682,7.8462,7.9168,7.9316,7.9688,8.0394,8.0505,8.058,8.058,8.1397,8.1843,8.1843,8.2586,8.292,8.292,8.292,8.292,8.292,8.292,8.292,8.292,8.292,8.292,8.292,8.292,8.2437,8.162,8.084,8.0505,8.032,7.9614,7.9297,7.9186,7.8237,7.7957,7.7863,7.7533,7.7413,7.7376,7.7084,7.7047,7.7047,7.7047,7.7047,7.7084,7.7157,7.7194,7.7194,7.7304,7.7304,7.7304,7.7304,7.7304,7.7304,7.7304,7.7965,7.8185,7.7451,7.7965,7.8442,7.8442,7.914,7.9653,7.9653,7.9727,7.98,7.98,7.98,7.98,7.98,7.98,7.9764,7.9653,7.968,8.0082,8.09,8.0393,8.0499,8.146,8.0812,8.0506,8.0506,8.0506,8.043,7.1441,0.0,0.0,0.0,7.2629,7.2889,7.2889,7.3149,7.3372,7.3372,7.3372,7.3372,7.3372,7.3372,7.3372,0.0,7.3781,7.4078,7.4078,7.4784,7.549,7.5973,7.6047,7.6159,7.6493,7.731,7.7793,7.7793,7.8536,7.9131,7.9465,7.9948,8.0357,8.0691,8.1174,8.1434,8.1434,8.2251,8.2697,8.2697,8.3032,8.318,8.318,8.318,8.318,8.318,8.318,8.318,8.318,8.318,8.318,8.318,8.318,8.2994,8.2586,8.1731,8.1137,8.0654,8.032,8.0151,8.0019,7.957,7.9068,7.8544,7.8463,7.8012,7.7584,7.7463,7.7402,7.7304,7.7304,7.7304,7.7304,7.7304,7.7304,7.7304,7.7304,7.7304,7.7304,7.7304,7.7708,7.8075,7.8075,7.8736,7.9176,7.8809,7.9066,7.9286,7.9286,7.9984,8.0681,8.1158,8.1195,8.1195,8.1195,8.1195,8.1195,8.1195,8.1195,8.0975,8.0534,8.0498,8.0456,8.0444,8.0757,8.108,8.1544,8.1837,8.169,8.127,8.127,8.0964,7.2332,0.0,0.0,7.3224,7.3372,7.3372,7.3372,7.3372,7.3372,7.3372,7.3372,7.3372,7.3372,7.3372,0.0,7.367,7.419,7.4673,7.4896,7.5639,7.6382,7.7013,7.7273,7.7496,7.7719,7.8276,7.8611,7.8611,7.9354,7.9948,8.0171,8.0728,8.1137,8.136,8.1991,8.2326,8.2326,8.2883,8.318,8.318,8.318,8.318,8.318,8.318,8.318,8.318,8.318,8.318,8.318,8.318,8.318,8.318,8.318,8.318,8.3106,8.2549,8.1917,8.136,8.1137,8.1005,8.0851,8.0629,8.0052,7.9453,7.9394,7.8965,7.8403,7.8283,7.7978,7.7733,7.7671,7.7488,7.7304,7.7304,7.7488,7.7671,7.7671,7.7855,7.8002,7.8002,7.8516,7.8919,7.8919,7.958,8.0131,8.0131,8.0314,8.0351,8.0167,8.0828,8.1562,8.215,8.2186,8.2186,8.2186,8.2186,8.2186,8.2186,8.2186,8.1929,8.1379,8.1342,8.1112,8.0702,8.1252,8.1693,8.1958,8.233,8.2371,8.2149,8.1995,8.1651,0.0,0.0,7.3372,7.3372,7.3372,7.3372,7.3372,7.3372,7.3372,7.3372,7.3372,7.3372,7.3372,7.3372,7.3632,7.4413,7.4561,7.4858,7.5639,7.6493,7.705,7.7087,7.7793,7.8573,0.0,7.9428,7.9465,7.9465,8.0208,8.1025,8.188,8.1954,8.2326,8.3106,8.3143,8.3143,8.3143,8.318,8.318,8.318,8.318,8.318,8.318,8.318,8.318,8.318,8.318,8.318,8.318,8.318,8.318,8.318,8.318,8.318,8.318,8.3143,8.3143,8.2994,8.2214,8.1954,8.1806,8.0988,8.0691,8.0596,8.0518,8.0422,8.0363,8.0026,7.9351,7.8701,7.8614,7.7928,7.7304,7.7304,7.7965,7.8552,7.8552,7.9176,7.969,7.969,7.9727,7.9764,7.9764,8.0424,8.0975,8.0975,8.1636,8.1856,8.1048,8.1672,8.215,8.2186,8.2186,8.2186,8.2186,8.2186,8.2186,8.2186,8.2186,8.2186,8.215,8.215,8.2397,8.2898,8.2177,8.2291,8.3301,8.1995,8.1906,8.2951,8.2428,8.2471,0.0,0.0,7.3372,7.3372,7.3372,7.3372,7.3372,7.3372,7.3372,7.3372,7.3372,7.3558,7.4078,7.419,7.445,7.5267,7.5861,7.6344,7.6604,7.7347,7.7905,7.7905,7.8611,0.0,0.0,0.0,0.0,8.0245,8.1063,8.1694,8.1954,8.2511,8.292,8.318,8.318,8.318,8.318,8.318,8.3477,8.3997,8.4518,8.4778,8.4778,8.4778,8.4778,8.4778,8.4778,8.4778,8.474,8.422,8.3997,8.3923,8.3403,8.318,8.318,8.318,8.318,8.3143,8.2883,8.2771,8.2734,8.2437,8.1991,8.1545,8.1487,8.1058,8.0496,8.0378,8.0073,7.9792,7.9768,7.9486,7.9265,7.9265,7.9425,7.9547,7.9547,7.9643,7.98,7.98,8.0241,8.0608,8.0608,8.1269,8.1782,8.1782,8.2039,8.2113,8.1819,8.2039,8.2186,8.2186,8.2186,8.2186,8.2186,8.2186,8.2186,8.2186,8.2186,8.2186,8.2186,8.2186,8.2434,8.2994,8.3135,8.3367,8.374,8.3624,8.3256,8.2728,8.2534,8.2473,0.0,7.3372,7.3372,7.3372,7.3372,7.3372,7.3372,7.3372,7.3372,7.3372,7.3372,7.3632,7.445,7.4598,7.497,7.6084,7.6716,7.7199,7.7459,7.7942,7.8388,7.8685,7.9168,0.0,0.0,0.0,0.0,8.1137,8.1954,8.24,8.24,8.292,8.318,8.318,8.3477,8.3626,8.3626,8.3886,8.4295,8.4852,8.5335,8.5595,8.5595,8.5595,8.5595,8.5595,8.5595,8.5595,8.5558,8.5038,8.4815,8.474,8.3923,8.3626,8.3589,8.3292,8.318,8.318,8.318,8.318,8.318,8.318,8.2846,8.24,8.24,8.197,8.1407,8.1348,8.1104,8.0762,8.0762,8.0517,8.0295,8.0295,8.0358,8.0419,8.0419,8.0551,8.0645,8.0645,8.1203,8.1723,8.1723,8.2314,8.283,8.283,8.283,8.2684,8.2251,8.2186,8.2186,8.2186,8.2186,8.2186,8.2186,8.2186,8.2186,8.2186,8.2186,8.2186,8.2186,8.2186,8.2434,8.2994,8.3396,8.3779,8.4193,8.4341,8.4173,8.3644,8.3413,8.3342,7.3372,7.3372,7.3372,7.3372,7.3372,7.3372,7.3372,7.3372,7.3372,7.3372,7.341,7.3707,0.0,0.0,7.523,7.6902,7.7162,7.7422,7.8165,7.8313,7.8611,0.0,0.0,0.0,0.0,0.0,0.0,8.2066,0.0,8.318,8.318,8.318,8.3217,8.3254,8.3997,8.4406,8.4443,8.5261,8.5669,8.5669,8.5706,8.5743,8.5743,8.5743,8.5743,8.5743,8.5743,8.5743,8.5706,8.5669,8.5669,8.5558,8.4778,8.4443,8.4295,8.3514,8.3217,8.318,8.318,8.318,8.318,8.318,8.318,8.318,8.318,8.318,8.318,8.2964,8.2348,8.1756,8.1612,8.102,8.0466,8.0466,8.0874,8.1266,8.1266,8.1764,8.2186,8.2186,8.2647,8.2994,8.3053,8.3508,8.3885,8.3885,8.3885,8.3508,8.2407,8.2251,8.2251,8.2251,8.2186,8.2186,8.2186,8.2186,8.2186,8.2186,8.2186,8.2186,8.2186,8.2186,8.2434,8.2994,8.2994,8.3525,8.4665,8.4142,8.4438,8.5393,8.4892,8.4937,7.3372,7.3372,7.3372,7.3372,7.3372,7.3372,7.3372,7.3372,7.3372,7.3372,7.3855,7.4524,0.0,0.0,0.0,7.783,7.7979,0.0,7.8239,7.8796,0.0,0.0,0.0,8.1508,8.1954,8.2511,0.0,0.0,8.3069,8.318,8.318,8.318,8.3477,8.4072,8.4295,8.4666,8.5298,8.6078,8.6486,8.6486,8.7155,8.7452,8.7452,8.7452,8.7452,8.7452,8.7452,8.7452,8.7415,8.6747,8.6486,8.6412,8.5595,8.4926,8.4369,8.4146,8.37,8.318,8.318,8.318,8.318,8.318,8.318,8.318,8.318,8.318,8.318,8.3121,8.2972,8.2824,8.2765,8.2616,8.2431,8.2431,8.246,8.2425,8.2338,8.236,8.2279,8.2186,8.2647,8.3111,8.3618,8.3779,8.3885,8.3885,8.3885,8.3779,8.3508,8.309,8.2793,8.2793,8.2471,8.2186,8.2186,8.2186,8.2186,8.2186,8.2186,8.2186,8.2186,8.2186,8.2434,8.2994,8.2994,8.3396,8.4092,8.3989,8.4041,8.4292,8.4193,8.439,7.3372,7.3372,7.3372,7.3372,7.3372,7.3372,7.3372,7.3372,7.3372,7.3372,7.4041,0.0,0.0,0.0,0.0,0.0,0.0,0.0,7.8276,7.8982,7.9614,0.0,8.1174,0.0,8.2474,8.292,8.318,0.0,0.0,8.3329,8.37,8.3737,8.4109,8.4889,8.5261,8.5855,8.6672,8.7118,8.7378,8.7378,8.7861,8.8084,8.8084,8.8084,8.8084,8.8084,0.0,8.8084,8.8047,8.7564,8.7378,8.7304,8.6449,8.5855,8.5372,8.4666,8.4109,8.3663,8.3329,8.318,8.318,8.318,8.318,8.318,8.318,8.318,8.318,8.318,8.318,8.318,8.318,8.318,8.318,8.318,8.3024,8.2904,8.2782,8.2597,8.2497,8.289,8.3206,8.3634,8.4486,8.458,8.458,8.458,8.458,8.4533,8.4292,8.3779,8.3284,8.2994,8.2769,8.2434,8.2186,8.2186,8.2186,8.2186,8.2186,8.2316,8.256,8.2343,8.256,8.3396,8.3111,8.3284,8.3885,8.4142,8.4242,8.4242,8.4486,8.4757,7.3372,7.3372,7.3372,7.3372,7.3372,7.3372,7.3372,7.3372,7.341,7.3521,0.0,0.0,7.5824,0.0,7.7459,7.8165,0.0,7.8313,7.8425,7.9131,7.9948,8.0765,8.162,8.24,8.3106,8.318,8.318,8.318,8.3292,8.3663,8.4369,8.448,8.4926,8.5743,8.6561,8.7341,8.8084,8.8084,8.8084,8.8084,8.8084,8.8084,8.8084,8.8084,8.8084,8.8084,0.0,0.0,8.8084,8.8084,8.8084,8.801,8.7267,8.6895,8.6635,8.5112,8.448,8.4257,8.3477,8.318,8.318,8.318,8.318,8.318,8.318,8.318,8.318,8.318,8.318,8.318,8.318,8.318,8.318,8.318,8.3061,8.2964,8.2904,8.2659,8.2684,8.3618,8.3779,8.4092,8.5105,8.5352,8.5393,8.5393,8.5393,8.5228,8.4757,8.4292,8.3779,8.3053,8.2994,8.2793,8.2251,8.2186,8.2186,8.2186,8.2186,8.2407,8.2853,8.2434,8.2745,8.3779,8.3284,8.3284,8.3885,8.439,8.458,8.458,8.5062,8.5311,7.3372,7.3372,7.3372,7.3372,7.3372,7.3372,7.3372,7.3372,0.0,0.0,0.0,7.5824,7.6716,7.7533,0.0,7.8276,0.0,0.0,0.0,0.0,8.0802,0.0,0.0,0.0,0.0,0.0,0.0,0.0,0.0,0.0,8.4369,8.5038,8.5743,8.6561,8.7415,8.7935,8.8084,8.8084,8.8084,8.8084,8.8084,8.8084,8.8084,8.8084,8.8084,8.8084,0.0,0.0,8.8084,8.8084,8.8084,8.8084,8.7935,8.7415,8.6672,8.5743,8.4963,8.4257,8.3477,8.318,8.318,8.318,8.318,8.318,8.318,8.318,8.318,8.318,8.318,8.318,8.318,8.318,8.318,8.318,8.318,8.3121,8.2964,8.2659,8.256,8.309,8.3169,8.3396,8.4092,8.4533,8.4848,8.4848,8.4848,8.4803,8.4711,8.4627,8.4155,8.3111,8.2994,8.2793,8.2251,8.2186,8.2186,8.2186,8.2186,8.2251,8.2343,8.2251,8.2497,8.3111,8.3053,8.3284,8.3885,8.3989,8.4041,8.4041,8.4142,8.439,7.3372,7.3372,7.3372,7.3372,7.3372,7.3372,7.3372,0.0,0.0,0.0,0.0,7.6604,7.7013,0.0,0.0,0.0,0.0,0.0,0.0,0.0,0.0,0.0,0.0,0.0,0.0,0.0,0.0,0.0,0.0,0.0,8.5,8.6226,8.7081,8.7452,8.7861,8.8084,8.8084,8.8084,8.8084,8.8084,8.8084,8.8084,8.8084,8.8084,8.8084,8.8084,0.0,0.0,8.8084,8.8084,8.8084,8.8084,8.8084,8.7824,8.7378,8.6524,8.5706,8.4889,8.4109,8.3552,8.318,8.318,8.318,8.318,8.318,8.318,8.318,8.318,8.318,8.318,8.318,8.318,8.318,8.318,8.318,8.3121,8.2843,8.2696,8.2659,8.2972,8.2994,8.3169,8.3779,8.4092,8.4292,8.4292,8.4292,8.4193,8.3847,8.4092,8.3951,8.3111,8.2994,8.2793,8.2251,8.2186,8.2186,8.2186,8.2186,8.2343,8.2585,8.2343,8.2434,8.2994,8.2994,8.3111,8.3452,8.4041,8.4341,8.4341,8.4341,8.4438,7.3372,7.3372,7.3372,7.3372,7.3372,7.3447,7.3595,7.4153,0.0,0.0,7.6159,7.7125,7.731,0.0,0.0,0.0,0.0,0.0,0.0,0.0,0.0,0.0,0.0,0.0,0.0,0.0,0.0,0.0,0.0,0.0,0.0,8.7378,8.8084,8.8084,8.8084,8.8084,8.8084,8.8084,8.8084,8.8084,8.8084,8.8084,8.8084,8.8084,8.8084,8.8084,0.0,0.0,0.0,8.8084,8.8084,8.8084,8.8084,8.8084,8.7973,8.7118,8.6301,8.5483,8.4666,8.3849,8.318,8.318,8.318,8.318,8.318,8.318,8.318,8.318,8.318,8.318,8.318,8.318,8.318,8.318,8.318,8.3121,8.2819,8.2696,8.2721,8.289,8.2853,8.2972,8.3452,8.3618,8.3726,8.3726,8.3726,8.3563,8.3053,8.3284,8.334,8.2853,8.2913,8.2793,8.2251,8.2186,8.2186,8.2186,8.2186,8.2407,8.2793,8.2407,8.2434,8.2994,8.2994,8.3053,8.3169,8.4054,8.4533,8.4533,8.4533,8.458,7.3372,7.3372,7.3372,7.3372,7.3372,7.3558,7.4301,0.0,0.0,7.653,7.6976,7.731,7.8053,0.0,0.0,0.0,0.0,7.9651,0.0,0.0,0.0,0.0,0.0,0.0,0.0,0.0,0.0,0.0,0.0,0.0,0.0,8.801,8.8084,8.8084,8.8084,8.8084,8.8084,8.8084,8.8084,8.8084,8.8084,8.8084,8.8084,8.8084,8.8084,8.8084,0.0,0.0,0.0,8.8084,8.8084,8.8084,8.8084,8.8084,8.7973,8.7118,8.6301,8.5483,8.4666,8.3849,8.318,8.318,8.318,8.318,8.318,8.318,8.318,8.318,8.318,8.318,8.318,8.318,8.318,8.318,8.318,8.3121,8.2904,8.2819,8.2633,8.2471,8.2343,8.2316,8.2343,8.2769,8.3053,8.3053,8.3053,8.3053,8.2994,8.2585,8.238,8.2316,8.2708,8.2793,8.2251,8.2186,8.2186,8.2186,8.2186,8.2251,8.2251,8.2251,8.2434,8.2994,8.2994,8.3284,8.3832,8.3937,8.3989,8.3989,8.3989,8.4242,7.3372,7.3372,7.3372,7.3372,7.3372,7.3595,7.4413,0.0,7.5639,7.6827,7.7459,7.7905,7.8239,7.8276,0.0,0.0,0.0,0.0,0.0,0.0,0.0,0.0,0.0,0.0,0.0,0.0,0.0,0.0,0.0,0.0,0.0,8.8084,8.8084,8.8084,8.8084,8.8084,8.8084,8.8084,8.8084,8.8084,8.8084,8.8084,8.8084,8.8084,8.8084,8.8084,0.0,0.0,0.0,8.8084,8.8084,8.8084,8.8084,8.8084,8.7973,8.7118,8.6301,8.5483,8.4666,8.3849,8.318,8.318,8.318,8.318,8.318,8.318,8.318,8.318,8.318,8.318,8.318,8.318,8.318,8.318,8.318,8.3121,8.2964,8.2843,8.2782,8.2633,8.2508,8.2508,8.2508,8.2659,8.2806,8.2806,8.2745,8.2647,8.2647,8.2407,8.2186,8.2186,8.2407,8.2471,8.2186,8.2186,8.2186,8.2186,8.2186,8.2186,8.2186,8.2186,8.2279,8.2497,8.2853,8.3111,8.334,8.4041,8.439,8.439,8.439,8.4486,7.3372,7.3372,7.3372,7.3372,7.3372,7.367,0.0,0.0,7.6084,7.7199,7.7905,7.8276,7.8276,7.8276,7.8276,7.8276,7.9874,8.0988,8.0728,8.2326,0.0,0.0,0.0,0.0,0.0,0.0,0.0,0.0,0.0,0.0,0.0,0.0,8.8084,8.8084,8.8084,8.8084,8.8084,8.8084,8.8084,8.8084,8.8084,8.8084,8.8084,8.8084,8.8084,0.0,0.0,0.0,0.0,8.8084,8.8084,8.8084,8.8084,8.8084,8.7973,8.7118,8.6301,8.5483,8.4666,8.3849,8.318,8.318,8.318,8.318,8.318,8.318,8.318,8.318,8.318,8.318,8.318,8.318,8.318,8.318,8.318,8.318,8.3024,8.2964,8.2904,8.2819,8.2696,8.2696,8.2696,8.2696,8.2696,8.2696,8.2571,8.2471,8.2407,8.2316,8.2251,8.2186,8.2186,8.2186,8.2186,8.2186,8.2186,8.2186,8.2186,8.2186,8.2186,8.2186,8.2186,8.2186,8.256,8.2853,8.2994,8.3951,8.4533,8.4711,8.4848,8.4937,7.3372,7.3372,7.3372,7.3372,7.3372,7.3818,0.0,0.0,7.627,7.7942,7.8276,7.8276,7.8276,7.8276,7.8276,7.8276,8.0357,8.1694,8.0802,8.2809,0.0,0.0,0.0,0.0,0.0,0.0,0.0,0.0,0.0,0.0,0.0,0.0,8.8084,8.8084,8.8084,8.8084,8.8084,8.8084,8.8084,8.8084,8.8084,8.8084,8.8084,8.8084,0.0,0.0,0.0,0.0,0.0,8.8084,8.8084,8.8084,8.8084,8.8084,8.7973,8.7118,8.6301,8.5483,8.4666,8.3849,8.318,8.318,8.318,8.318,8.318,8.318,8.318,8.318,8.318,8.318,8.318,8.318,8.318,8.318,8.318,8.318,8.318,8.3024,8.2904,8.2904,8.2819,8.2696,8.2696,8.2696,8.2696,8.2696,8.2696,8.2633,8.2407,8.2407,8.2343,8.2186,8.2186,8.2186,8.2186,8.2186,8.2186,8.2186,8.2186,8.2186,8.2186,8.2186,8.2186,8.2186,8.2186,8.2434,8.2994,8.3618,8.4193,8.4711,8.5232,8.5511,7.3372,7.3372,7.3372,7.3372,7.3372,7.3818,7.5416,0.0,7.627,7.7942,7.8276,7.8276,7.8276,7.8276,7.8276,7.8276,8.084,8.2326,8.0877,0.0,0.0,0.0,0.0,0.0,0.0,0.0,0.0,0.0,0.0,0.0,0.0,0.0,8.8084,8.8084,8.8084,8.8084,8.8084,8.8084,8.8084,8.8084,8.8084,8.8084,8.8084,8.8084,0.0,0.0,0.0,0.0,0.0,8.8084,8.8084,8.8084,8.8084,8.775,8.7118,8.6264,8.5483,8.4666,8.3849,8.3403,8.318,8.318,8.318,8.318,8.318,8.318,8.318,8.318,8.318,8.318,8.318,8.318,8.318,8.318,8.318,8.318,8.318,8.3121,8.3121,8.3121,8.3061,8.3061,8.3061,8.3061,8.3061,8.3061,8.2904,8.2782,8.2633,8.2471,8.2343,8.2186,8.2186,8.2186,8.2186,8.2186,8.2186,8.2186,8.2186,8.2186,8.2186,8.2186,8.2186,8.2186,8.2186,8.2316,8.2434,8.3032,8.3795,8.4772,8.5273,8.5551,0.0,7.3372,7.3372,7.3372,7.3372,0.0,0.0,0.0,7.627,7.7942,7.8276,7.8276,7.8276,7.8276,7.8276,7.8276,8.1063,8.2586,8.0951,0.0,0.0,0.0,0.0,0.0,0.0,0.0,0.0,0.0,0.0,0.0,0.0,0.0,8.8084,8.8084,8.8084,8.8084,8.8084,8.8084,8.8084,8.8084,8.8084,8.8084,8.8084,0.0,0.0,0.0,0.0,0.0,0.0,8.8084,8.8084,8.8047,8.775,8.7267,8.6672,8.5558,8.4815,8.4257,8.3477,8.318,8.318,8.318,8.318,8.318,8.318,8.318,8.318,8.318,8.318,8.318,8.318,8.318,8.318,8.318,8.318,8.318,8.318,8.318,8.318,8.318,8.318,8.318,8.318,8.318,8.318,8.318,8.3121,8.2964,8.2819,8.2597,8.2407,8.2316,8.2251,8.2186,8.2186,8.2186,8.2186,8.2186,8.2186,8.2186,8.2186,8.2186,8.2186,8.2186,8.2186,8.2186,8.2186,8.2972,8.3847,8.481,8.5314,8.559,0.0,7.3372,0.0,0.0,0.0,0.0,0.0,0.0,0.0,0.0,0.0,7.8276,7.8276,7.8276,7.8313,7.8351,8.1063,8.2623,8.1025,0.0,0.0,0.0,0.0,0.0,0.0,0.0,0.0,0.0,0.0,0.0,0.0,0.0,0.0,8.8084,8.8084,8.8084,8.8084,8.8084,8.8084,8.8084,8.8084,8.8084,8.8084,0.0,0.0,0.0,0.0,0.0,0.0,8.8084,8.8047,8.7935,8.7118,8.6747,8.6449,8.4926,8.4369,8.422,8.344,8.318,8.318,8.318,8.318,8.318,8.318,8.318,8.318,8.318,8.318,8.318,8.318,8.318,8.318,8.318,8.318,8.318,8.318,8.318,8.318,8.318,8.318,8.318,8.318,8.318,8.318,8.318,8.318,8.3121,8.2964,8.2782,8.2633,8.2471,8.2343,8.2316,8.2316,8.2251,8.2186,8.2186,8.2251,8.2251,8.2186,8.2251,8.2251,8.2186,8.2186,8.2186,8.2186,8.334,8.4193,8.4673,8.5393,8.5628,7.3372,0.0,7.3372,7.3372,7.3855,0.0,0.0,0.0,0.0,0.0,0.0,7.8276,7.8276,7.8276,7.8499,7.9094,8.1434,8.2846,8.1843,0.0,0.0,0.0,0.0,0.0,0.0,0.0,0.0,0.0,0.0,0.0,0.0,0.0,0.0,8.8084,8.8084,8.8084,8.8084,8.8084,8.8084,8.8084,8.8084,8.8084,8.8084,0.0,0.0,0.0,0.0,0.0,8.8084,8.8084,8.7712,8.7081,8.6895,8.6041,8.4926,8.4518,8.3997,8.344,8.3254,8.318,8.318,8.318,8.318,8.318,8.318,8.318,8.318,8.318,8.318,8.318,8.318,8.318,8.318,8.318,8.318,8.318,8.318,8.318,8.318,8.318,8.318,8.318,8.318,8.318,8.318,8.318,8.318,8.3121,8.2964,8.2904,8.2867,8.3069,8.3069,8.3186,8.3452,8.2708,8.2186,8.2186,8.2622,8.2647,8.2186,8.2585,8.2585,8.2186,8.2186,8.2186,8.2186,8.334,8.4054,8.4362,8.5273,8.5704,7.3372,7.3372,7.3372,7.3372,7.4004,7.4784,0.0,0.0,0.0,0.0,0.0,0.0,7.8276,0.0,0.0,7.9354,8.1248,8.2734,0.0,0.0,0.0,0.0,0.0,0.0,0.0,0.0,0.0,0.0,0.0,0.0,0.0,0.0,0.0,0.0,8.8084,8.8084,8.8084,8.8084,8.8084,8.8084,8.8084,8.8084,8.8084,0.0,0.0,0.0,0.0,0.0,8.8047,8.7675,8.723,8.6747,8.6004,8.5149,8.4369,8.3997,8.3552,8.318,8.318,8.318,8.318,8.318,8.318,8.318,8.318,8.318,8.318,8.318,8.318,8.318,8.318,8.318,8.318,8.318,8.318,8.318,8.318,8.318,8.318,8.318,8.318,8.318,8.318,8.318,8.318,8.318,8.318,8.318,8.3024,8.3165,8.3358,8.3471,8.36,8.3726,8.3951,8.334,8.2972,8.2972,8.2972,8.3032,8.2972,8.2972,8.3032,8.2972,8.2708,8.2708,8.2972,8.3618,8.4054,8.4448,8.5355,8.5704,7.3372,7.3372,7.3372,7.3372,7.4078,7.4933,0.0,0.0,0.0,0.0,0.0,0.0,0.0,0.0,0.0,0.0,0.0,0.0,0.0,0.0,0.0,0.0,0.0,0.0,0.0,0.0,0.0,0.0,0.0,0.0,0.0,0.0,0.0,0.0,8.8084,8.8084,8.8084,8.8084,8.8084,8.8084,8.8084,8.8084,8.8084,8.8084,0.0,0.0,0.0,0.0,8.7824,8.7081,8.6672,8.6301,8.4926,8.4295,8.4109,8.344,8.318,8.318,8.318,8.318,8.318,8.318,8.318,8.318,8.318,8.318,8.318,8.318,8.318,8.318,8.318,8.318,8.318,8.318,8.318,8.318,8.318,8.318,8.318,8.318,8.318,8.318,8.318,8.318,8.318,8.318,8.318,8.318,8.318,8.3471,8.3763,8.3817,8.4003,8.4167,8.4216,8.4155,8.4092,8.4041,8.3563,8.3508,8.3989,8.3452,8.3396,8.3885,8.3396,8.3396,8.3885,8.3989,8.4292,8.4765,8.5474,8.5742,7.3372,7.3372,7.3372,7.3372,7.4524,7.5639,0.0,0.0,0.0,0.0,0.0,0.0,0.0,0.0,0.0,0.0,0.0,0.0,0.0,0.0,0.0,0.0,0.0,0.0,0.0,0.0,0.0,0.0,0.0,0.0,0.0,0.0,0.0,0.0,0.0,8.8084,8.8084,8.8084,8.8084,8.8084,8.8084,8.8084,8.8084,8.8084,8.8084,0.0,0.0,8.7675,8.7007,8.6858,8.6004,8.474,8.448,8.396,8.3366,8.3254,8.318,8.318,8.318,8.318,8.318,8.318,8.318,8.318,8.318,8.318,8.318,8.318,8.318,8.318,8.318,8.318,8.318,8.318,8.318,8.318,8.318,8.318,8.318,8.318,8.318,8.318,8.318,8.318,8.318,8.318,8.318,8.318,8.318,8.3583,8.3975,8.4268,8.4665,8.5024,8.5232,8.5232,8.5062,8.458,8.4486,8.4486,8.458,8.4041,8.3832,8.3885,8.3832,8.3832,8.3885,8.4341,8.4719,8.4948,8.5552,8.5852,7.3372,7.3372,7.3372,7.3372,7.4598,0.0,0.0,0.0,0.0,0.0,0.0,0.0,0.0,0.0,0.0,0.0,0.0,0.0,0.0,0.0,0.0,0.0,0.0,0.0,0.0,0.0,0.0,0.0,0.0,0.0,0.0,0.0,0.0,0.0,0.0,0.0,8.8084,8.8084,8.8084,8.8084,8.8084,8.8084,8.8084,8.8084,8.7824,8.7378,0.0,8.6932,8.6115,8.5669,8.5075,8.4369,8.3923,8.3514,8.318,8.318,8.318,8.318,8.318,8.318,8.318,8.318,8.318,8.318,8.318,8.318,8.318,8.318,8.318,8.318,8.318,8.318,8.318,8.318,8.318,8.318,8.318,8.318,8.318,8.318,8.318,8.318,8.318,8.318,8.318,8.318,8.318,8.326,8.3564,8.4027,8.4438,8.4803,8.5232,8.5513,8.559,8.5551,8.527,8.4757,8.4711,8.4711,8.4711,8.4757,8.4757,8.4757,8.4486,8.4486,8.4757,8.4757,8.4937,8.5395,8.5666,8.5852,7.3372,7.3372,7.3372,0.0,0.0,0.0,0.0,0.0,0.0,0.0,0.0,0.0,0.0,0.0,0.0,0.0,0.0,0.0,0.0,0.0,0.0,0.0,0.0,0.0,0.0,0.0,0.0,0.0,0.0,0.0,0.0,0.0,0.0,0.0,0.0,0.0,8.8084,8.8084,8.8084,8.8084,8.8084,8.8084,8.8084,8.7898,8.7415,8.6784,8.6598,8.6041,8.5261,8.4629,8.4295,8.4035,8.344,8.318,8.318,8.318,8.318,8.318,8.318,8.318,8.318,8.318,8.318,8.318,8.318,8.318,8.318,8.318,8.318,8.318,8.318,8.318,8.318,8.318,8.318,8.318,8.318,8.318,8.318,8.318,8.318,8.318,8.318,8.318,8.3239,8.3318,8.3297,8.3433,8.4027,8.4438,8.481,8.5155,8.5552,8.5779,8.5628,8.5433,8.519,8.4892,8.4892,8.4848,8.4711,8.519,8.5511,8.5511,8.5105,8.5105,8.5511,8.5105,8.519,8.5704,8.5779,8.5852,7.3372,7.3372,0.0,0.0,0.0,0.0,0.0,0.0,0.0,0.0,0.0,0.0,0.0,0.0,0.0,0.0,0.0,0.0,0.0,0.0,0.0,0.0,0.0,0.0,0.0,0.0,0.0,0.0,0.0,0.0,0.0,0.0,0.0,0.0,0.0,0.0,8.8084,8.8084,8.8084,8.8084,8.8084,8.8084,8.8047,8.7267,8.6858,8.6747,8.6004,8.5223,8.448,8.4406,8.396,8.3254,8.3217,8.318,8.318,8.318,8.318,8.318,8.318,8.318,8.318,8.318,8.318,8.318,8.318,8.318,8.318,8.318,8.318,8.318,8.318,8.318,8.318,8.318,8.318,8.318,8.318,8.318,8.318,8.318,8.318,8.318,8.318,8.318,8.3318,8.3763,8.3452,8.3564,8.4524,8.4711,8.481,8.5155,8.5552,8.5742,8.5551,8.5062,8.4937,8.5393,8.5433,8.519,8.4711,8.519,8.5511,8.5511,8.5471,8.5471,8.5511,8.5471,8.5552,8.5815,8.5815,8.5923,7.3372,7.3372,0.0,0.0,0.0,0.0,0.0,0.0,0.0,0.0,0.0,0.0,0.0,0.0,0.0,0.0,0.0,0.0,0.0,0.0,0.0,0.0,0.0,0.0,0.0,0.0,0.0,0.0,0.0,0.0,0.0,0.0,0.0,0.0,0.0,0.0,0.0,8.8084,8.7824,8.7304,8.7824,8.7824,8.7267,8.6932,8.6264,8.5298,8.5,8.4406,8.3626,8.3626,8.3477,8.318,8.318,8.318,8.318,8.318,8.318,8.318,8.318,8.318,8.318,8.318,8.318,8.318,8.318,8.318,8.318,8.318,8.318,8.318,8.318,8.318,8.318,8.318,8.318,8.318,8.318,8.318,8.318,8.318,8.318,8.318,8.318,8.318,8.3376,8.3817,8.3747,8.4027,8.4986,8.5114,8.5276,8.5666,8.5742,8.5667,8.5511,8.5018,8.4803,8.498,8.498,8.5062,8.519,8.5393,8.5511,8.5511,8.5511,8.5511,8.5511,8.5511,8.5628,8.5815,8.5815,8.5923,7.3372,7.3372,0.0,0.0,0.0,0.0,0.0,0.0,0.0,0.0,0.0,0.0,0.0,0.0,0.0,0.0,0.0,0.0,0.0,0.0,0.0,0.0,0.0,0.0,0.0,0.0,0.0,0.0,0.0,0.0,0.0,0.0,0.0,0.0,0.0,0.0,0.0,8.7304,8.7007,8.6412,8.7007,8.7007,8.6412,8.6152,8.5446,8.4369,8.4109,8.37,8.318,8.318,8.318,8.318,8.318,8.318,8.318,8.318,8.318,8.318,8.318,8.318,8.318,8.318,8.318,8.318,8.318,8.318,8.318,8.318,8.318,8.318,8.318,8.318,8.318,8.318,8.318,8.318,8.318,8.318,8.318,8.318,8.318,8.318,8.318,8.318,8.3433,8.4078,8.4027,8.4341,8.5475,8.5475,8.5552,8.5961,8.5854,8.5667,8.5551,8.519,8.4937,8.4937,8.4937,8.5062,8.527,8.5393,8.5511,8.5511,8.5551,8.5551,8.5551,8.5551,8.5667,8.5852,8.5815,8.5923,7.3372,7.3372,0.0,0.0,0.0,0.0,0.0,0.0,0.0,0.0,0.0,0.0,0.0,0.0,0.0,0.0,0.0,0.0,0.0,0.0,0.0,0.0,0.0,0.0,0.0,0.0,0.0,0.0,0.0,0.0,0.0,0.0,0.0,0.0,0.0,0.0,0.0,8.5595,8.5595,8.5595,8.5595,8.5595,8.5558,8.474,8.4406,8.4332,8.3552,8.318,8.318,8.318,8.318,8.318,8.318,8.318,8.318,8.318,8.318,8.318,8.318,8.318,8.318,8.318,8.318,8.318,8.318,8.318,8.318,8.318,8.318,8.318,8.318,8.318,8.318,8.318,8.318,8.318,8.318,8.318,8.318,8.318,8.318,8.318,8.318,8.318,8.3564,8.4571,8.4242,8.4448,8.5919,8.5702,8.5552,8.5961,8.5887,8.5779,8.5705,8.5551,8.5511,8.5511,8.5511,8.527,8.4757,8.519,8.5511,8.5511,8.5628,8.5705,8.5705,8.5705,8.5817,8.5996,8.5852,8.5923,7.3372,0.0,0.0,0.0,0.0,0.0,0.0,0.0,0.0,0.0,0.0,0.0,0.0,0.0,0.0,0.0,0.0,0.0,0.0,0.0,0.0,0.0,0.0,0.0,0.0,0.0,0.0,0.0,0.0,0.0,0.0,0.0,0.0,0.0,0.0,0.0,0.0,8.5595,8.5298,8.474,8.474,8.474,8.474,8.4518,8.4072,8.3514,8.3292,8.318,8.318,8.318,8.318,8.318,8.318,8.318,8.318,8.318,8.318,8.318,8.318,8.318,8.318,8.318,8.318,8.318,8.318,8.318,8.318,8.318,8.318,8.318,8.318,8.318,8.318,8.318,8.318,8.318,8.318,8.318,8.318,8.318,8.318,8.318,8.318,8.3452,8.3922,8.4618,8.4854,8.5238,8.6026,8.5954,8.5884,8.5852,8.5815,8.5742,8.559,8.519,8.5105,8.5471,8.5148,8.5062,8.5232,8.5431,8.5511,8.5511,8.5551,8.559,8.5705,8.559,8.5667,8.5852,8.5815,8.5887,0.0,0.0,0.0,0.0,0.0,0.0,0.0,0.0,0.0,0.0,0.0,0.0,0.0,0.0,0.0,0.0,0.0,0.0,0.0,0.0,0.0,0.0,0.0,0.0,0.0,0.0,0.0,0.0,0.0,0.0,0.0,0.0,0.0,0.0,0.0,0.0,8.4629,8.4629,8.4406,8.3923,8.3923,8.3923,8.3923,8.3923,8.3663,8.318,8.318,8.318,8.318,8.318,8.318,8.318,8.318,8.318,8.318,8.318,8.318,8.318,8.318,8.318,8.318,8.318,8.318,8.318,8.318,8.318,8.318,8.318,8.318,8.318,8.318,8.318,8.318,8.318,8.318,8.318,8.318,8.318,8.318,8.318,8.318,8.318,8.318,8.3395,8.3763,8.4292,8.4986,8.5552,8.606,8.6094,8.6026,8.5887,8.5852,8.5742,8.559,8.5232,8.5148,8.5471,8.519,8.5148,8.5511,8.5511,8.5511,8.5511,8.5551,8.559,8.5705,8.559,8.5667,8.5815,8.5815,8.5852,0.0,0.0,0.0,0.0,0.0,0.0,0.0,0.0,0.0,0.0,0.0,0.0,0.0,0.0,0.0,0.0,0.0,0.0,0.0,0.0,0.0,0.0,0.0,0.0,0.0,0.0,0.0,0.0,0.0,0.0,0.0,0.0,0.0,0.0,0.0,0.0,8.318,8.318,8.318,0.0,8.318,8.318,8.318,8.318,8.318,8.318,8.318,8.318,8.318,8.318,8.318,8.318,8.318,8.318,8.318,8.318,8.318,8.318,8.318,8.318,8.318,8.318,8.318,8.318,8.318,8.318,8.318,8.318,8.318,8.318,8.318,8.318,8.318,8.318,8.318,8.318,8.318,8.318,8.318,8.318,8.318,8.318,8.318,8.3239,8.3395,8.3975,8.4816,8.5628,8.606,8.6094,8.606,8.5996,8.5887,8.5779,8.5705,8.559,8.5511,8.5511,8.5511,8.5511,8.5511,8.5511,8.5511,8.5511,8.5551,8.5628,8.5705,8.5628,8.5667,8.5815,8.5815,8.5887,0.0,0.0,0.0,0.0,0.0,0.0,0.0,0.0,0.0,0.0,0.0,0.0,0.0,0.0,0.0,0.0,0.0,0.0,0.0,0.0,0.0,0.0,0.0,0.0,0.0,0.0,0.0,0.0,0.0,0.0,0.0,0.0,0.0,0.0,0.0,8.318,8.318,8.318,8.318,0.0,8.318,8.318,8.318,8.318,8.318,8.318,8.318,8.318,8.318,8.318,8.318,8.318,8.318,8.318,8.318,8.318,8.318,8.318,8.318,8.318,8.318,8.318,8.318,8.318,8.318,8.318,8.318,8.318,8.318,8.318,8.318,8.318,8.318,8.318,8.318,8.318,8.318,8.318,8.318,8.318,8.318,8.318,8.318,8.3508,8.4041,8.4942,8.5552,8.5992,8.6094,8.6094,8.606,8.5996,8.5887,8.5779,8.5705,8.559,8.5511,8.5511,8.5511,8.5511,8.5511,8.5511,8.5511,8.5511,8.5105,8.519,8.5705,8.5235,8.5235,8.5743,8.5852,8.5887,0.0,0.0,0.0,0.0,0.0,0.0,0.0,0.0,0.0,0.0,0.0,0.0,0.0,0.0,0.0,0.0,0.0,0.0,0.0,0.0,0.0,0.0,0.0,0.0,0.0,0.0,0.0,0.0,0.0,0.0,0.0,0.0,0.0,0.0,8.318,8.318,8.318,8.318,8.318,8.318,8.318,8.318,8.318,8.318,8.318,8.318,8.318,8.318,8.318,8.318,8.318,8.318,8.318,8.318,8.318,8.318,8.318,8.318,8.318,8.318,8.318,8.318,8.318,8.318,8.318,8.318,8.318,8.318,8.318,8.318,8.318,8.318,8.318,8.318,8.318,8.318,8.318,8.318,8.318,8.318,8.318,8.318,8.318,8.3433,8.3975,8.5197,8.5397,8.559,8.606,8.6094,8.606,8.5996,8.5887,8.5779,8.5705,8.559,8.5511,8.5511,8.5511,8.5511,8.5511,8.5511,8.5511,8.5511,8.5228,8.527,8.559,8.5355,8.5355,8.559,8.5815,8.5852,0.0,0.0,0.0,0.0,0.0,0.0,0.0,0.0,0.0,0.0,0.0,0.0,0.0,0.0,0.0,0.0,0.0,0.0,0.0,0.0,0.0,0.0,0.0,0.0,0.0,0.0,0.0,0.0,0.0,0.0,0.0,0.0,8.318,8.318,8.318,8.318,8.318,8.318,8.318,8.318,8.318,8.318,8.318,8.318,8.318,8.318,8.318,8.318,8.318,8.318,8.318,8.318,8.318,8.318,8.318,8.318,8.318,8.318,8.318,8.318,8.318,8.318,8.318,8.318,8.318,8.318,8.318,8.318,8.318,8.318,8.318,8.318,8.318,8.318,8.318,8.318,8.318,8.318,8.318,8.318,8.318,8.318,8.318,8.3318,8.387,8.5071,8.5071,8.5235,8.6026,8.6094,8.606,8.6031,8.5887,8.5779,8.5704,8.559,8.5511,8.5511,8.5511,8.5511,8.5511,8.5511,8.5511,8.5511,8.5393,8.5393,8.5511,8.5551,8.5551,8.5551,8.5742,8.5815,0.0,0.0,0.0,0.0,0.0,0.0,0.0,0.0,0.0,0.0,0.0,0.0,0.0,0.0,0.0,0.0,0.0,0.0,0.0,0.0,0.0,0.0,0.0,0.0,0.0,0.0,0.0,0.0,0.0,0.0,0.0,8.373,8.318,8.318,8.318,8.318,8.318,8.318,8.318,8.318,8.318,8.318,8.318,8.318,8.318,8.318,8.318,8.318,8.318,8.318,8.318,8.318,8.318,8.318,8.318,8.318,8.318,8.318,8.318,8.318,8.318,8.318,8.318,8.318,8.318,8.318,8.318,8.318,8.318,8.318,8.318,8.318,8.318,8.318,8.318,8.318,8.318,8.318,8.318,8.318,8.318,8.318,8.318,8.396,8.4571,8.4765,8.5436,8.5954,8.6094,8.6094,8.6094,8.606,8.5923,8.5815,8.5779,8.5628,8.5511,8.5511,8.5511,8.5511,8.5511,8.5511,8.5511,8.5511,8.5062,8.5062,8.5511,8.511,8.5194,8.5705,8.5779,8.5815,0.0,0.0,0.0,0.0,0.0,0.0,0.0,0.0,0.0,0.0,0.0,0.0,0.0,0.0,0.0,0.0,0.0,0.0,0.0,0.0,0.0,0.0,0.0,0.0,0.0,0.0,0.0,0.0,0.0,0.0,8.3854,8.3433,8.318,8.318,8.318,8.318,8.318,8.318,8.318,8.318,8.318,8.318,8.318,8.318,8.318,8.318,8.318,8.318,8.318,8.318,8.318,8.318,8.318,8.318,8.318,8.318,8.318,8.318,8.318,8.318,8.318,8.318,8.318,8.318,8.318,8.318,8.318,8.318,8.318,8.318,8.318,8.318,8.318,8.318,8.318,8.318,8.318,8.318,8.318,8.318,8.318,8.3376,8.396,8.418,8.4533,8.5357,8.5628,8.5775,8.606,8.6094,8.6094,8.6094,8.5992,8.5887,8.5815,8.5667,8.559,8.5511,8.5511,8.5511,8.5511,8.5511,8.5511,8.5511,8.527,8.5232,8.5511,8.5355,8.5433,8.559,8.5704,8.5742,0.0,0.0,0.0,0.0,0.0,0.0,0.0,0.0,0.0,0.0,0.0,0.0,0.0,0.0,0.0,0.0,0.0,0.0,0.0,0.0,0.0,0.0,0.0,0.0,0.0,0.0,0.0,0.0,0.0,0.0,8.3433,8.3297,8.318,8.318,8.318,8.318,8.318,8.318,8.318,8.318,8.318,8.318,8.318,8.318,8.318,8.318,8.318,8.318,8.318,8.318,8.318,8.318,8.318,8.318,8.318,8.318,8.318,8.318,8.318,8.318,8.318,8.318,8.318,8.318,8.318,8.318,8.318,8.318,8.318,8.318,8.318,8.318,8.318,8.318,8.318,8.318,8.318,8.318,8.318,8.318,8.318,8.3433,8.418,8.423,8.4486,8.559,8.5665,8.5702,8.606,8.6094,8.6094,8.6094,8.6065,8.5961,8.5815,8.5742,8.5628,8.5511,8.5511,8.5511,8.5511,8.5511,8.5511,8.5511,8.5511,8.5511,8.5511,8.559,8.559,8.5551,8.559,8.5667,0.0,0.0,0.0,0.0,0.0,0.0,0.0,0.0,0.0,0.0,0.0,0.0,0.0,0.0,0.0,0.0,0.0,0.0,0.0,0.0,0.0,0.0,0.0,0.0,0.0,0.0,0.0,0.0,0.0,0.0,8.387,8.3452,8.318,8.318,8.318,8.318,8.318,8.318,8.318,8.318,8.318,8.318,8.318,8.318,8.318,8.318,8.318,8.318,8.318,8.318,8.318,8.318,8.318,8.318,8.318,8.318,8.318,8.318,8.318,8.318,8.318,8.318,8.318,8.318,8.318,8.318,8.318,8.318,8.318,8.318,8.318,8.318,8.318,8.318,8.318,8.318,8.318,8.318,8.318,8.318,8.318,8.3239,8.3297,8.4027,8.4673,8.4719,8.5475,8.606,8.6094,8.6094,8.6094,8.6094,8.6065,8.5961,8.5815,8.5742,8.5628,8.5511,8.5511,8.5511,8.5511,8.5511,8.5511,8.5511,8.5511,8.5511,8.5511,8.5511,8.5551,8.5705,8.5551,8.559,0.0,0.0,0.0,0.0,0.0,0.0,0.0,0.0,0.0,0.0,0.0,0.0,0.0,0.0,0.0,0.0,0.0,0.0,0.0,0.0,0.0,0.0,0.0,0.0,0.0,0.0,0.0,0.0,0.0,0.0,8.3452,8.326,8.318,8.318,8.318,8.318,8.318,8.318,8.318,8.318,8.318,8.318,8.318,8.318,8.318,8.318,8.318,8.318,8.318,8.318,8.318,8.318,8.318,8.318,8.318,8.318,8.318,8.318,8.318,8.318,8.318,8.318,8.318,8.318,8.318,8.318,8.318,8.318,8.318,8.318,8.318,8.318,8.318,8.318,8.318,8.318,8.318,8.318,8.318,8.318,8.318,8.3297,8.3583,8.4193,8.4765,8.5071,8.5702,8.6094,8.6094,8.6094,8.6094,8.6094,8.606,8.5992,8.5815,8.5779,8.5704,8.5511,8.5511,8.5511,8.5511,8.5511,8.5511,8.5511,8.5511,8.5511,8.5511,8.5511,8.5511,8.5551,8.5511,8.5511,0.0,0.0,0.0,0.0,0.0,0.0,0.0,0.0,0.0,0.0,0.0,0.0,0.0,0.0,0.0,0.0,0.0,0.0,0.0,0.0,0.0,0.0,0.0,0.0,0.0,0.0,0.0,0.0,0.0,0.0,8.318,8.318,8.318,8.318,8.318,8.318,8.318,8.318,8.318,8.318,8.318,8.318,8.318,8.318,8.318,8.318,8.318,8.318,8.318,8.318,8.318,8.318,8.318,8.318,8.318,8.318,8.318,8.318,8.318,8.318,8.318,8.318,8.318,8.318,8.318,8.318,8.318,8.318,8.318,8.318,8.318,8.318,8.318,8.318,8.318,8.318,8.318,8.318,8.318,8.318,8.318,8.3376,8.3817,8.4341,8.4854,8.5357,8.5775,8.6094,8.6094,8.6094,8.6094,8.6094,8.6094,8.6026,8.5815,8.5815,8.5742,8.5511,8.5511,8.5511,8.5511,8.5311,8.5232,8.5232,8.5232,8.5232,8.5232,8.5393,8.5511,8.5511,8.5511,8.5511,0.0,0.0,0.0,0.0,0.0,0.0,0.0,0.0,0.0,0.0,0.0,0.0,0.0,0.0,0.0,0.0,0.0,0.0,0.0,0.0,0.0,0.0,0.0,0.0,0.0,0.0,0.0,0.0,0.0,8.3692,8.3239,8.318,8.318,8.318,8.318,8.318,8.318,8.318,8.318,8.318,8.318,8.318,8.318,8.318,8.318,8.318,8.318,8.318,8.318,8.318,8.318,8.318,8.318,8.318,8.318,8.318,8.318,8.318,8.318,8.318,8.318,8.318,8.318,8.318,8.318,8.318,8.318,8.318,8.318,8.318,8.318,8.318,8.318,8.318,8.318,8.318,8.318,8.318,8.318,8.318,8.318,8.3318,8.3817,8.4341,8.4854,8.5317,8.5775,8.6094,8.6094,8.6094,8.6094,8.6094,8.6094,8.6026,8.5815,8.5815,8.5742,8.5511,8.5511,8.5511,8.5511,8.498,8.4711,8.4711,8.4673,8.4673,8.4711,8.527,8.5511,8.5511,8.5511,8.5511,7.6493,0.0,0.0,0.0,0.0,0.0,0.0,0.0,0.0,0.0,0.0,0.0,0.0,0.0,0.0,0.0,0.0,0.0,0.0,0.0,0.0,0.0,0.0,0.0,0.0,0.0,0.0,0.0,8.3376,8.3318,8.318,8.318,8.318,8.318,8.318,8.318,8.318,8.318,8.318,8.318,8.318,8.318,8.318,8.318,8.318,8.318,8.318,8.318,8.318,8.318,8.318,8.318,8.318,8.318,8.318,8.318,8.318,8.318,8.318,8.318,8.318,8.318,8.318,8.318,8.318,8.318,8.318,8.318,8.318,8.318,8.318,8.318,8.318,8.318,8.318,8.318,8.318,8.318,8.318,8.318,8.318,8.3239,8.3376,8.4129,8.4719,8.4854,8.559,8.6094,8.6094,8.6094,8.6094,8.6094,8.6094,8.6026,8.5815,8.5815,8.5742,8.5511,8.5511,8.5511,8.5511,8.498,8.4711,8.4711,8.4341,8.4292,8.4711,8.527,8.5511,8.5511,8.5511,8.5511,0.0,0.0,0.0,0.0,0.0,0.0,0.0,7.9539,0.0,0.0,0.0,0.0,0.0,0.0,0.0,0.0,0.0,0.0,0.0,0.0,0.0,0.0,0.0,0.0,0.0,0.0,0.0,0.0,8.3508,8.3433,8.318,8.318,8.318,8.318,8.318,8.318,8.318,8.318,8.318,8.318,8.318,8.318,8.318,8.318,8.318,8.318,8.318,8.318,8.318,8.318,8.318,8.318,8.318,8.318,8.318,8.318,8.318,8.318,8.318,8.318,8.318,8.318,8.318,8.318,8.318,8.318,8.318,8.318,8.318,8.318,8.318,8.318,8.318,8.318,8.318,8.318,8.318,8.3376,8.3395,8.3239,8.318,8.3318,8.3747,8.433,8.481,8.5235,8.5739,8.6094,8.6094,8.6094,8.6094,8.6094,8.6094,8.6026,8.5887,8.5852,8.5742,8.559,8.5551,8.5393,8.5148,8.4627,8.4242,8.4003,8.3688,8.39,8.4711,8.498,8.5311,8.5511,8.5511,8.5511,0.0,0.0,0.0,0.0,0.0,0.0,7.8276,7.9539,0.0,0.0,0.0,0.0,0.0,0.0,0.0,0.0,0.0,0.0,0.0,0.0,0.0,0.0,0.0,0.0,0.0,0.0,8.4379,8.387,8.3817,8.3638,8.3239,8.318,8.318,8.318,8.318,8.318,8.318,8.318,8.318,8.318,8.318,8.318,8.318,8.318,8.318,8.318,8.318,8.318,8.318,8.318,8.318,8.318,8.318,8.318,8.318,8.318,8.318,8.318,8.318,8.318,8.318,8.318,8.318,8.318,8.318,8.318,8.318,8.318,8.318,8.318,8.318,8.3239,8.3297,8.318,8.3239,8.3297,8.3297,8.3583,8.3763,8.3433,8.3376,8.3675,8.4571,8.4719,8.5029,8.5884,8.606,8.6094,8.6094,8.6094,8.6094,8.6094,8.6094,8.606,8.5996,8.5887,8.5779,8.5705,8.5551,8.527,8.4757,8.4193,8.3618,8.2994,8.2994,8.3525,8.458,8.4757,8.5062,8.5511,8.5511,8.5511,0.0,0.0,0.0,0.0,0.0,0.0,7.8276,7.9539,0.0,0.0,0.0,0.0,0.0,0.0,0.0,0.0,0.0,0.0,0.0,0.0,0.0,0.0,0.0,0.0,0.0,0.0,8.3489,8.3318,8.3318,8.3297,8.318,8.318,8.318,8.318,8.318,8.318,8.318,8.318,8.318,8.318,8.318,8.318,8.318,8.318,8.318,8.318,8.318,8.318,8.318,8.318,8.318,8.318,8.318,8.318,8.318,8.318,8.318,8.318,8.318,8.318,8.318,8.318,8.318,8.318,8.318,8.318,8.318,8.318,8.318,8.318,8.318,8.3452,8.3692,8.3297,8.3508,8.3763,8.3763,8.3817,8.4027,8.4379,8.4427,8.4476,8.4665,8.4986,8.5357,8.5514,8.5884,8.6094,8.6094,8.6094,8.6094,8.6094,8.6094,8.606,8.5996,8.5887,8.5779,8.5705,8.5551,8.527,8.4757,8.4193,8.3618,8.2994,8.2994,8.334,8.4041,8.4892,8.5393,8.5511,8.5511,8.5511,0.0,0.0,0.0,7.8276,0.0,0.0,0.0,7.9539,8.0691,0.0,0.0,0.0,0.0,0.0,0.0,0.0,0.0,0.0,0.0,0.0,0.0,0.0,0.0,0.0,0.0,0.0,8.318,8.318,8.318,8.318,8.318,8.318,8.318,8.318,8.318,8.318,8.318,8.318,8.318,8.318,8.318,8.318,8.318,8.318,8.318,8.318,8.318,8.318,8.318,8.318,8.318,8.318,8.318,8.318,8.318,8.318,8.318,8.318,8.318,8.318,8.318,8.318,8.318,8.318,8.318,8.318,8.3239,8.3452,8.3564,8.3583,8.3907,8.4129,8.4242,8.3975,8.4129,8.4292,8.4292,8.4486,8.4765,8.4986,8.5235,8.5317,8.5071,8.5238,8.5475,8.5702,8.5954,8.6094,8.6094,8.6094,8.6094,8.6094,8.6094,8.606,8.6026,8.5887,8.5779,8.5742,8.559,8.5148,8.4341,8.4041,8.3508,8.2585,8.2853,8.3284,8.3885,8.4711,8.527,8.5511,8.5511,8.5511,0.0,0.0,0.0,0.0,0.0,7.8276,0.0,0.0,0.0,8.0691,0.0,0.0,0.0,0.0,0.0,0.0,0.0,0.0,0.0,0.0,0.0,0.0,0.0,0.0,0.0,0.0,8.318,8.318,8.318,8.318,8.318,8.318,8.318,8.318,8.318,8.318,8.318,8.318,8.318,8.318,8.318,8.318,8.318,8.318,8.318,8.318,8.318,8.318,8.318,8.318,8.318,8.318,8.318,8.318,8.318,8.318,8.318,8.318,8.318,8.318,8.318,8.318,8.318,8.318,8.318,8.318,8.326,8.3763,8.3922,8.3989,8.4533,8.4803,8.481,8.4757,8.4765,8.481,8.481,8.5114,8.5436,8.5514,8.5849,8.5954,8.5628,8.5514,8.5665,8.606,8.6094,8.6094,8.6094,8.6094,8.6094,8.6094,8.6094,8.6094,8.6094,8.5923,8.5815,8.5815,8.5513,8.4937,8.3937,8.3672,8.3148,8.2186,8.2585,8.3111,8.3726,8.4292,8.4892,8.5511,8.5511,8.5435,0.0,0.0,0.0,0.0,7.8276,0.0,0.0,0.0,8.0691,8.0691,0.0,0.0,0.0,0.0,0.0,0.0,0.0,0.0,0.0,0.0,0.0,0.0,0.0,0.0,0.0,0.0,8.318,8.318,8.318,8.318,8.318,8.318,8.318,8.318,8.318,8.318,8.318,8.318,8.318,8.318,8.318,8.318,8.318,8.318,8.318,8.318,8.318,8.318,8.318,8.318,8.318,8.318,8.318,8.318,8.318,8.318,8.318,8.318,8.318,8.318,8.318,8.318,8.318,8.318,8.318,8.318,8.326,8.3763,8.3922,8.3989,8.4533,8.4986,8.5235,8.4803,8.4986,8.5317,8.5317,8.5357,8.5514,8.5919,8.606,8.6094,8.6026,8.6026,8.606,8.6094,8.6094,8.6094,8.6094,8.6094,8.6094,8.6094,8.6094,8.6094,8.6094,8.5992,8.5961,8.5815,8.5197,8.4589,8.3937,8.295,8.2343,8.2186,8.2251,8.256,8.3111,8.3726,8.4486,8.5511,8.5511,8.5129,0.0,0.0,0.0,0.0,0.0,0.0,0.0,0.0,8.084,0.0,0.0,0.0,0.0,0.0,0.0,0.0,0.0,0.0,0.0,0.0,0.0,0.0,0.0,0.0,0.0,0.0,0.0,0.0,0.0,8.2697,8.318,8.318,8.318,8.318,8.318,8.318,8.318,8.318,8.318,8.318,8.318,8.318,8.318,8.318,8.318,8.318,8.318,8.318,8.318,8.318,8.318,8.318,8.318,8.318,8.318,8.318,8.318,8.318,8.318,8.318,8.318,8.318,8.318,8.318,8.318,8.3376,8.3692,8.4193,8.458,8.4861,8.5397,8.5665,8.5739,8.559,8.5665,8.5813,8.5813,8.5813,8.5884,8.606,8.6094,8.6094,8.6094,8.6094,8.6094,8.6094,8.6094,8.6094,8.6094,8.6094,8.6094,8.6094,8.6094,8.6094,8.6094,8.5958,8.5741,8.5357,8.4362,8.3597,8.3396,8.2622,8.2186,8.2186,8.2186,8.2434,8.2994,8.3227,8.3795,8.458,8.519,8.4894,7.8276,0.0,0.0,0.0,0.0,0.0,0.0,0.0,0.0,0.0,0.0,0.0,0.0,0.0,0.0,0.0,0.0,0.0,0.0,0.0,0.0,0.0,0.0,0.0,0.0,0.0,0.0,0.0,0.0,0.0,8.2846,8.3069,8.318,8.318,8.318,8.318,8.318,8.318,8.318,8.318,8.318,8.318,8.318,8.318,8.318,8.318,8.318,8.318,8.318,8.318,8.318,8.318,8.318,8.318,8.318,8.318,8.318,8.318,8.318,8.318,8.318,8.318,8.3297,8.3376,8.3376,8.3747,8.4242,8.4719,8.5114,8.5514,8.5954,8.6094,8.6094,8.6094,8.6094,8.6094,8.6094,8.6094,8.6094,8.6094,8.6094,8.6094,8.6094,8.6094,8.6094,8.6094,8.6094,8.6094,8.6094,8.6094,8.6094,8.6094,8.6094,8.6094,8.6094,8.5958,8.559,8.4823,8.381,8.3111,8.2793,8.2407,8.2186,8.2186,8.2186,8.2407,8.2793,8.2913,8.3227,8.3672,8.4803,8.4534,0.0,0.0,0.0,0.0,0.0,0.0,0.0,0.0,8.1954,0.0,0.0,0.0,0.0,0.0,0.0,7.9837,0.0,0.0,0.0,0.0,0.0,0.0,0.0,0.0,0.0,0.0,0.0,0.0,0.0,0.0,8.2028,8.2771,8.318,8.318,8.318,8.318,8.318,8.318,8.318,8.318,8.318,8.318,8.318,8.318,8.318,8.318,8.318,8.318,8.318,8.318,8.318,8.318,8.318,8.318,8.318,8.318,8.318,8.318,8.318,8.318,8.318,8.318,8.3508,8.387,8.387,8.4242,8.4765,8.5238,8.5397,8.5514,8.5954,8.6094,8.6094,8.6094,8.6094,8.6094,8.6094,8.6094,8.6094,8.6094,8.6094,8.6094,8.6094,8.6094,8.6094,8.6094,8.6094,8.6094,8.6094,8.6094,8.6094,8.6094,8.6094,8.6094,8.6094,8.6094,8.559,8.4276,8.4003,8.334,8.2251,8.2186,8.2186,8.2186,8.2186,8.2186,8.2251,8.2769,8.2994,8.3053,8.4205,8.3802,0.0,0.0,7.9948,8.0208,0.0,0.0,0.0,0.0,0.0,0.0,0.0,0.0,0.0,0.0,8.0765,7.9688,7.9056,0.0,0.0,0.0,0.0,0.0,0.0,0.0,0.0,0.0,0.0,0.0,0.0,0.0,0.0,8.2251,8.2623,8.318,8.318,8.318,8.318,8.318,8.318,8.318,8.318,8.318,8.318,8.318,8.318,8.318,8.318,8.318,8.318,8.318,8.318,8.318,8.318,8.318,8.318,8.318,8.318,8.318,8.318,8.318,8.318,8.318,8.3508,8.3922,8.3922,8.4486,8.5235,8.5357,8.5628,8.5884,8.606,8.6094,8.6094,8.6094,8.6094,8.6094,8.6094,8.6094,8.6094,8.6094,8.6094,8.6094,8.6094,8.6094,8.6094,8.6094,8.6094,8.6094,8.6094,8.6094,8.6094,8.6094,8.6094,8.6094,8.6094,8.5627,8.5033,8.4129,8.358,8.2972,8.2251,8.2186,8.2186,8.2186,8.2186,8.2186,8.2186,8.2407,8.2434,8.2497,8.3227,8.2932,8.0542,8.0691,0.0,0.0,8.1137,0.0,0.0,0.0,0.0,0.0,0.0,0.0,0.0,0.0,0.0,7.9242,7.8611,7.8276,0.0,7.8276,0.0,0.0,0.0,0.0,0.0,0.0,0.0,0.0,0.0,0.0,0.0,0.0,8.1917,8.2734,8.2771,8.2883,8.318,8.318,8.318,8.318,8.318,8.318,8.318,8.318,8.318,8.318,8.318,8.318,8.318,8.318,8.318,8.318,8.318,8.318,8.318,8.318,8.318,8.318,8.318,8.3318,8.3452,8.3452,8.3922,8.44,8.44,8.5029,8.5704,8.601,8.6115,8.617,8.6478,8.6324,8.6094,8.6094,8.6094,8.6094,8.6094,8.6094,8.6094,8.6094,8.6094,8.6094,8.6094,8.6094,8.6094,8.6094,8.6094,8.6094,8.6094,8.6094,8.6094,8.6094,8.6094,8.6094,8.6094,8.5475,8.4816,8.408,8.347,8.283,8.2251,8.2186,8.2186,8.2186,8.2186,8.2186,8.2186,8.2186,8.2186,8.2186,8.2264,8.188]},{"header":{"parameterUnit":"m.s-1","parameterCategory":1,"la1":30.6,"la2":29.2853,"lo1":-89.7004,"lo2":-87.6739,"dy":0.0162,"dx":0.0183,"nx":112,"ny":82,"refTime":"2023-04-18T06:00:00:Z","depth":0,"parameterNumber":3,"parameterNumberName":"V-component_of_WINDS"},"data":[0.0,0.0,0.0,0.0,0.0,0.0,0.0,0.0,0.0,0.0,0.0,0.0,0.0,0.0,0.0,0.0,0.0,0.0,0.0,0.0,0.0,0.0,0.0,0.0,0.0,0.0,0.0,0.0,0.0,0.0,0.0,0.0,0.0,0.0,0.0,0.0,0.0,0.0,0.0,0.0,0.0,0.0,0.0,0.0,0.0,0.0,0.0,0.0,0.0,0.0,0.0,0.0,0.0,0.0,0.0,0.0,0.0,0.0,0.0,0.0,0.0,0.0,0.0,0.0,0.0,0.0,0.0,0.0,0.0,0.0,0.0,0.0,0.0,0.0,0.0,0.0,0.0,0.0,0.0,0.0,0.0,0.0,0.0,0.0,0.0,0.0,0.0,0.0,0.0,0.0,0.0,-2.6823,-2.4467,-2.2859,-2.2859,-2.2859,-2.2859,-2.2859,0.0,0.0,0.0,0.0,0.0,0.0,0.0,0.0,0.0,0.0,0.0,0.0,0.0,0.0,0.0,0.0,0.0,0.0,0.0,0.0,0.0,0.0,0.0,0.0,0.0,0.0,0.0,0.0,0.0,0.0,0.0,0.0,0.0,0.0,0.0,0.0,0.0,0.0,0.0,0.0,0.0,0.0,0.0,0.0,0.0,0.0,0.0,0.0,0.0,0.0,0.0,0.0,0.0,0.0,0.0,0.0,0.0,0.0,0.0,0.0,0.0,0.0,0.0,0.0,0.0,0.0,0.0,0.0,0.0,0.0,0.0,0.0,0.0,0.0,0.0,0.0,0.0,0.0,0.0,0.0,0.0,0.0,0.0,0.0,0.0,0.0,0.0,0.0,0.0,0.0,0.0,0.0,0.0,0.0,0.0,0.0,0.0,0.0,0.0,0.0,0.0,0.0,0.0,0.0,-2.8015,-2.5532,-2.3938,-2.2859,-2.2859,-2.2859,-2.2859,-2.2859,0.0,0.0,0.0,0.0,0.0,0.0,0.0,0.0,0.0,0.0,0.0,0.0,0.0,0.0,0.0,0.0,0.0,0.0,0.0,0.0,0.0,0.0,0.0,0.0,0.0,0.0,0.0,0.0,0.0,0.0,0.0,0.0,0.0,0.0,0.0,0.0,0.0,0.0,0.0,0.0,0.0,0.0,0.0,0.0,0.0,0.0,0.0,0.0,0.0,0.0,0.0,0.0,0.0,0.0,0.0,0.0,0.0,0.0,0.0,0.0,0.0,0.0,0.0,0.0,0.0,0.0,0.0,0.0,0.0,0.0,0.0,0.0,0.0,0.0,0.0,0.0,0.0,0.0,0.0,0.0,0.0,0.0,0.0,0.0,0.0,0.0,0.0,0.0,0.0,0.0,0.0,0.0,0.0,0.0,0.0,0.0,0.0,0.0,0.0,0.0,0.0,0.0,0.0,-2.8442,-2.7573,-2.4719,-2.3773,-2.3354,-2.3354,-2.3354,-2.3354,-2.3354,-2.3354,0.0,0.0,0.0,0.0,0.0,0.0,0.0,0.0,0.0,0.0,0.0,0.0,0.0,0.0,0.0,0.0,0.0,0.0,0.0,0.0,0.0,0.0,0.0,0.0,0.0,0.0,0.0,0.0,0.0,0.0,0.0,0.0,0.0,0.0,0.0,0.0,0.0,0.0,0.0,0.0,0.0,0.0,0.0,0.0,0.0,0.0,0.0,0.0,0.0,0.0,0.0,0.0,0.0,0.0,0.0,0.0,0.0,0.0,0.0,0.0,0.0,0.0,0.0,0.0,0.0,0.0,0.0,0.0,0.0,0.0,0.0,0.0,0.0,0.0,0.0,0.0,0.0,0.0,0.0,0.0,0.0,0.0,0.0,0.0,0.0,0.0,0.0,0.0,0.0,0.0,0.0,0.0,0.0,0.0,0.0,0.0,0.0,0.0,0.0,0.0,0.0,0.0,-2.7338,-2.6254,-2.4052,-2.3768,-2.3768,-2.3768,-2.3768,-2.3768,-2.3768,-2.3768,0.0,0.0,0.0,0.0,0.0,0.0,0.0,0.0,0.0,0.0,0.0,0.0,0.0,0.0,0.0,0.0,0.0,0.0,0.0,0.0,0.0,0.0,0.0,0.0,0.0,0.0,0.0,0.0,0.0,0.0,0.0,0.0,0.0,0.0,0.0,0.0,0.0,0.0,0.0,0.0,0.0,0.0,0.0,0.0,0.0,0.0,0.0,0.0,0.0,0.0,0.0,0.0,0.0,0.0,0.0,0.0,0.0,0.0,0.0,0.0,0.0,0.0,0.0,0.0,0.0,0.0,0.0,0.0,0.0,0.0,0.0,0.0,0.0,0.0,0.0,0.0,0.0,0.0,0.0,0.0,0.0,0.0,0.0,0.0,0.0,0.0,0.0,0.0,0.0,0.0,0.0,0.0,0.0,0.0,0.0,0.0,0.0,0.0,0.0,0.0,0.0,0.0,-2.5833,-2.4052,-2.3768,-2.3768,-2.3768,-2.3768,-2.3768,-2.3768,-2.3768,-2.3768,0.0,0.0,0.0,0.0,0.0,0.0,0.0,0.0,0.0,0.0,0.0,0.0,0.0,0.0,0.0,0.0,0.0,0.0,0.0,0.0,0.0,0.0,0.0,0.0,0.0,0.0,0.0,0.0,0.0,0.0,0.0,0.0,0.0,0.0,0.0,0.0,0.0,0.0,0.0,0.0,0.0,0.0,0.0,0.0,0.0,0.0,0.0,0.0,0.0,0.0,0.0,0.0,0.0,0.0,0.0,0.0,0.0,0.0,0.0,0.0,0.0,0.0,0.0,0.0,0.0,0.0,0.0,0.0,0.0,0.0,0.0,0.0,0.0,0.0,0.0,0.0,0.0,0.0,0.0,0.0,0.0,0.0,0.0,0.0,0.0,0.0,0.0,0.0,0.0,0.0,0.0,0.0,0.0,0.0,0.0,0.0,0.0,0.0,0.0,0.0,0.0,0.0,-2.687,-2.5305,0.0,-2.4315,-2.4315,-2.4315,-2.4315,-2.4315,-2.4315,0.0,0.0,0.0,0.0,0.0,0.0,0.0,0.0,0.0,0.0,0.0,0.0,0.0,0.0,0.0,0.0,0.0,0.0,0.0,0.0,0.0,0.0,0.0,0.0,0.0,0.0,0.0,0.0,0.0,0.0,0.0,0.0,0.0,0.0,0.0,0.0,0.0,0.0,0.0,0.0,0.0,0.0,0.0,0.0,0.0,0.0,0.0,0.0,0.0,0.0,0.0,0.0,0.0,0.0,0.0,0.0,0.0,0.0,0.0,0.0,0.0,0.0,0.0,0.0,0.0,0.0,0.0,0.0,0.0,0.0,0.0,0.0,0.0,0.0,0.0,0.0,0.0,0.0,0.0,0.0,0.0,0.0,0.0,0.0,0.0,0.0,0.0,0.0,0.0,0.0,0.0,0.0,0.0,0.0,0.0,0.0,0.0,0.0,0.0,0.0,0.0,0.0,-2.8853,-2.7316,-2.594,0.0,-2.4863,-2.4917,-2.4917,-2.4917,-2.4917,-2.4917,0.0,0.0,0.0,0.0,0.0,0.0,0.0,0.0,0.0,0.0,0.0,0.0,0.0,0.0,0.0,0.0,0.0,0.0,0.0,0.0,0.0,0.0,0.0,0.0,0.0,0.0,0.0,0.0,0.0,0.0,0.0,0.0,0.0,0.0,0.0,0.0,0.0,0.0,0.0,0.0,0.0,0.0,0.0,0.0,0.0,0.0,0.0,0.0,0.0,0.0,0.0,0.0,0.0,0.0,0.0,0.0,0.0,0.0,0.0,0.0,0.0,0.0,0.0,0.0,0.0,0.0,0.0,0.0,0.0,0.0,0.0,0.0,0.0,0.0,0.0,0.0,0.0,0.0,0.0,0.0,0.0,0.0,0.0,0.0,0.0,0.0,0.0,0.0,0.0,0.0,0.0,0.0,0.0,0.0,0.0,0.0,0.0,0.0,0.0,0.0,0.0,0.0,-2.9171,-2.6776,-2.5077,-2.5077,-2.5344,-2.5518,-2.5518,-2.5518,-2.5518,0.0,0.0,0.0,0.0,0.0,0.0,0.0,0.0,0.0,0.0,0.0,0.0,0.0,0.0,0.0,0.0,0.0,0.0,0.0,0.0,0.0,0.0,0.0,0.0,0.0,0.0,0.0,0.0,0.0,0.0,0.0,0.0,0.0,0.0,0.0,0.0,0.0,0.0,0.0,0.0,0.0,0.0,0.0,0.0,0.0,0.0,0.0,0.0,0.0,0.0,0.0,0.0,0.0,0.0,0.0,0.0,0.0,0.0,0.0,0.0,0.0,0.0,0.0,0.0,0.0,0.0,0.0,0.0,0.0,0.0,0.0,0.0,0.0,0.0,0.0,0.0,0.0,0.0,0.0,0.0,0.0,0.0,0.0,0.0,0.0,0.0,0.0,0.0,0.0,0.0,0.0,0.0,0.0,0.0,0.0,0.0,0.0,0.0,0.0,0.0,0.0,0.0,0.0,0.0,-2.6374,-2.5384,-2.5384,-2.5464,-2.5518,-2.5518,-2.5518,-2.5518,-2.5518,0.0,0.0,0.0,0.0,0.0,0.0,0.0,0.0,0.0,0.0,0.0,0.0,0.0,0.0,0.0,0.0,0.0,0.0,0.0,0.0,0.0,0.0,0.0,0.0,0.0,0.0,0.0,0.0,0.0,0.0,0.0,0.0,0.0,0.0,0.0,0.0,0.0,0.0,0.0,0.0,0.0,0.0,0.0,0.0,0.0,0.0,0.0,0.0,0.0,0.0,0.0,0.0,0.0,0.0,0.0,0.0,0.0,0.0,0.0,0.0,0.0,0.0,0.0,0.0,0.0,0.0,0.0,0.0,0.0,0.0,0.0,0.0,0.0,0.0,0.0,0.0,0.0,0.0,0.0,0.0,0.0,0.0,0.0,0.0,0.0,0.0,0.0,0.0,0.0,0.0,0.0,0.0,0.0,0.0,0.0,0.0,0.0,0.0,0.0,0.0,0.0,0.0,-2.7613,-2.6406,-2.5692,-2.5692,-2.5798,-2.5865,-2.5865,-2.5865,-2.5865,-2.5865,0.0,0.0,0.0,0.0,0.0,0.0,0.0,0.0,0.0,0.0,0.0,0.0,0.0,0.0,0.0,0.0,0.0,0.0,0.0,0.0,0.0,0.0,0.0,0.0,0.0,0.0,0.0,0.0,0.0,0.0,0.0,0.0,0.0,0.0,0.0,0.0,0.0,0.0,0.0,0.0,0.0,0.0,0.0,0.0,0.0,0.0,0.0,0.0,0.0,0.0,0.0,0.0,0.0,0.0,0.0,0.0,0.0,0.0,0.0,0.0,0.0,0.0,0.0,0.0,0.0,0.0,0.0,0.0,0.0,0.0,0.0,0.0,0.0,0.0,0.0,0.0,0.0,0.0,0.0,0.0,0.0,0.0,0.0,0.0,0.0,0.0,0.0,0.0,0.0,0.0,0.0,0.0,0.0,0.0,0.0,0.0,0.0,0.0,0.0,0.0,0.0,0.0,-2.7647,-2.6724,-2.5999,-2.5999,-2.6226,-2.6386,-2.6386,-2.6386,-2.6386,-2.6386,0.0,0.0,0.0,0.0,0.0,0.0,0.0,0.0,0.0,0.0,0.0,0.0,0.0,0.0,0.0,0.0,0.0,0.0,0.0,0.0,0.0,0.0,0.0,0.0,0.0,0.0,0.0,0.0,0.0,0.0,0.0,0.0,0.0,0.0,0.0,0.0,0.0,0.0,0.0,0.0,0.0,0.0,0.0,0.0,0.0,0.0,0.0,0.0,0.0,0.0,0.0,0.0,0.0,0.0,0.0,0.0,0.0,0.0,0.0,0.0,-2.3314,0.0,0.0,0.0,0.0,0.0,0.0,0.0,0.0,0.0,0.0,0.0,0.0,0.0,0.0,0.0,0.0,0.0,0.0,0.0,0.0,0.0,0.0,0.0,0.0,0.0,0.0,0.0,0.0,0.0,0.0,0.0,0.0,0.0,0.0,0.0,0.0,0.0,0.0,0.0,0.0,0.0,-2.6316,-2.6262,-2.6293,-2.6293,-2.636,-2.6386,-2.6386,-2.6386,-2.6386,-2.6386,0.0,0.0,0.0,0.0,0.0,0.0,0.0,0.0,0.0,0.0,0.0,0.0,0.0,0.0,0.0,0.0,0.0,0.0,0.0,0.0,0.0,0.0,0.0,0.0,0.0,0.0,0.0,0.0,0.0,0.0,0.0,0.0,0.0,0.0,0.0,0.0,0.0,0.0,0.0,0.0,0.0,0.0,0.0,0.0,0.0,0.0,0.0,0.0,0.0,0.0,0.0,0.0,0.0,0.0,0.0,0.0,0.0,0.0,0.0,0.0,0.0,-2.3451,0.0,0.0,0.0,0.0,0.0,0.0,0.0,0.0,0.0,0.0,0.0,0.0,0.0,0.0,0.0,0.0,0.0,0.0,0.0,0.0,0.0,0.0,0.0,0.0,0.0,0.0,0.0,0.0,0.0,0.0,0.0,0.0,0.0,0.0,0.0,0.0,0.0,0.0,0.0,0.0,-2.6159,-2.6293,-2.6386,-2.6386,-2.6386,-2.6386,-2.6386,-2.6386,-2.6386,-2.6386,-2.6386,0.0,0.0,0.0,0.0,0.0,0.0,0.0,0.0,0.0,0.0,0.0,0.0,0.0,0.0,0.0,0.0,0.0,0.0,0.0,0.0,0.0,0.0,0.0,0.0,0.0,0.0,0.0,0.0,0.0,0.0,0.0,0.0,0.0,0.0,0.0,0.0,0.0,0.0,0.0,0.0,0.0,0.0,0.0,0.0,0.0,0.0,0.0,0.0,0.0,0.0,0.0,0.0,0.0,0.0,0.0,-2.3188,-2.3188,-2.3309,-2.3514,-2.3285,-2.3307,-2.3271,0.0,0.0,0.0,0.0,0.0,0.0,0.0,0.0,0.0,0.0,0.0,0.0,0.0,0.0,0.0,0.0,0.0,0.0,0.0,0.0,0.0,0.0,0.0,0.0,0.0,-2.4796,-2.5024,0.0,0.0,0.0,0.0,0.0,0.0,0.0,0.0,0.0,0.0,0.0,0.0,-2.6386,-2.6386,-2.6386,-2.6386,-2.6386,-2.6386,-2.6386,-2.6386,-2.6386,-2.6386,-2.6386,-2.6386,0.0,0.0,0.0,0.0,0.0,0.0,0.0,0.0,0.0,0.0,0.0,0.0,0.0,0.0,0.0,0.0,0.0,0.0,0.0,0.0,0.0,0.0,0.0,0.0,0.0,0.0,0.0,0.0,0.0,0.0,0.0,0.0,-2.3053,-2.2704,0.0,0.0,0.0,0.0,0.0,0.0,0.0,0.0,0.0,0.0,0.0,0.0,0.0,0.0,-2.3393,-2.3406,-2.3514,-2.3744,-2.3744,-2.3744,-2.3744,-2.3744,-2.3756,-2.3792,-2.3756,0.0,-2.3864,-2.3864,0.0,0.0,0.0,0.0,0.0,0.0,0.0,0.0,0.0,0.0,0.0,0.0,0.0,0.0,0.0,0.0,0.0,0.0,0.0,0.0,0.0,0.0,-2.5344,-2.5344,-2.5398,-2.5438,0.0,-2.5371,-2.5411,-2.5451,0.0,0.0,0.0,0.0,0.0,0.0,0.0,0.0,-2.6386,-2.6386,-2.6386,-2.6386,-2.6386,-2.6386,-2.6386,-2.6386,-2.6386,-2.6386,-2.6386,-2.6386,-2.6386,-2.6386,0.0,0.0,0.0,0.0,0.0,0.0,0.0,0.0,0.0,0.0,0.0,0.0,0.0,0.0,0.0,0.0,0.0,0.0,0.0,0.0,0.0,0.0,0.0,0.0,0.0,0.0,0.0,0.0,0.0,-2.3545,-2.3549,-2.3563,-2.3576,-2.3707,0.0,0.0,0.0,0.0,0.0,0.0,0.0,0.0,0.0,-2.3429,-2.3563,-2.3708,-2.3671,-2.3671,-2.3731,-2.384,-2.384,-2.384,-2.384,-2.384,-2.384,-2.384,-2.384,-2.378,-2.383,-2.383,-2.3915,-2.3963,0.0,0.0,0.0,0.0,0.0,0.0,-2.5502,0.0,0.0,0.0,0.0,0.0,0.0,0.0,0.0,0.0,0.0,0.0,0.0,0.0,0.0,-2.5518,-2.5638,-2.5758,-2.5758,-2.5892,-2.5959,0.0,-2.5892,-2.6052,-2.6172,0.0,0.0,0.0,0.0,0.0,-2.6386,-2.6386,-2.6386,-2.6386,-2.6386,-2.6386,-2.6386,-2.6386,-2.6386,-2.6386,-2.6386,-2.6386,-2.6386,-2.6386,-2.6386,0.0,0.0,0.0,0.0,0.0,0.0,0.0,0.0,0.0,0.0,0.0,0.0,0.0,0.0,0.0,0.0,0.0,0.0,0.0,0.0,0.0,0.0,0.0,0.0,0.0,0.0,0.0,0.0,-2.3654,0.0,-2.4103,-2.3983,-2.4031,0.0,0.0,0.0,0.0,0.0,0.0,-2.3761,-2.3563,-2.355,-2.355,-2.3744,-2.384,-2.384,-2.384,-2.384,-2.384,-2.384,-2.384,-2.384,-2.384,-2.384,-2.384,-2.384,-2.384,-2.384,-2.384,-2.384,-2.384,-2.4172,-2.4332,0.0,-2.497,-2.5448,-2.5714,-2.5662,-2.5753,-2.6026,-2.5812,0.0,-2.5732,-2.5732,0.0,0.0,0.0,0.0,-2.5732,-2.5732,0.0,-2.5732,-2.5732,-2.5905,-2.6066,-2.6066,-2.6239,-2.6319,0.0,-2.6239,-2.6386,-2.6386,0.0,0.0,0.0,0.0,-2.6386,-2.6386,-2.6386,-2.6386,-2.6386,-2.6453,-2.6507,-2.6507,-2.6573,-2.6587,-2.6507,-2.6507,-2.6466,-2.6386,-2.6386,-2.6386,0.0,0.0,0.0,0.0,0.0,0.0,0.0,0.0,0.0,0.0,0.0,0.0,0.0,0.0,0.0,0.0,0.0,0.0,0.0,0.0,0.0,0.0,0.0,0.0,0.0,0.0,0.0,0.0,0.0,0.0,-2.3945,-2.3518,0.0,0.0,0.0,0.0,-2.3649,-2.3909,-2.3901,-2.3901,-2.3842,-2.3828,-2.3828,-2.384,-2.384,-2.384,-2.384,-2.384,-2.384,-2.384,-2.384,-2.384,-2.384,-2.384,-2.384,-2.384,-2.384,-2.384,-2.384,-2.384,-2.384,-2.384,-2.4172,-2.4492,-2.497,-2.5448,-2.5911,-2.6215,-2.6373,-2.636,-2.6346,-2.6346,-2.6346,-2.6346,-2.6346,0.0,0.0,-2.6346,-2.6346,-2.6346,-2.6346,-2.6346,-2.6346,-2.636,-2.6373,-2.6373,-2.6373,-2.6386,0.0,-2.6373,-2.6386,-2.6386,0.0,0.0,-2.6386,-2.6386,-2.6386,-2.6386,-2.6386,-2.6386,-2.6386,-2.664,-2.68,-2.68,-2.7054,-2.7094,-2.6814,-2.68,-2.668,-2.64,-2.6386,-2.6386,-2.6386,-2.6386,0.0,0.0,0.0,0.0,0.0,0.0,0.0,0.0,0.0,0.0,0.0,0.0,0.0,0.0,0.0,0.0,0.0,0.0,0.0,0.0,0.0,0.0,0.0,0.0,0.0,0.0,0.0,0.0,-2.4087,-2.3972,0.0,0.0,-2.3934,-2.3996,-2.3696,-2.3806,-2.3866,-2.3866,-2.3792,-2.384,-2.384,-2.384,-2.384,-2.384,-2.384,-2.384,-2.384,-2.384,-2.3937,-2.4094,-2.4094,-2.419,-2.4347,-2.4347,-2.4347,-2.4347,-2.4347,-2.4142,-2.384,-2.384,-2.384,-2.4012,-2.4172,-2.4639,-2.5448,-2.5448,-2.5911,-2.6386,-2.6386,-2.6386,-2.6386,-2.6386,-2.6386,-2.6386,-2.6386,-2.6386,-2.6386,-2.6386,-2.6386,-2.6386,-2.6386,-2.6386,-2.6386,-2.6386,-2.6386,-2.6386,-2.6386,-2.6386,-2.6386,-2.6386,-2.6386,-2.6386,-2.6386,-2.6386,-2.6453,-2.664,-2.6667,-2.6747,-2.6934,-2.7041,-2.7108,-2.7108,-2.7201,-2.7228,-2.7108,-2.7108,-2.7054,-2.6961,-2.6947,-2.6867,-2.6667,-2.5532,-2.5442,0.0,0.0,0.0,0.0,0.0,0.0,0.0,0.0,0.0,0.0,0.0,0.0,0.0,0.0,0.0,0.0,0.0,0.0,0.0,0.0,0.0,0.0,0.0,0.0,0.0,0.0,-2.3947,-2.4379,-2.4108,-2.4065,-2.4194,-2.4061,-2.3977,-2.3828,-2.384,-2.384,-2.384,-2.384,-2.384,-2.384,-2.384,-2.3888,-2.3973,-2.3973,-2.4021,-2.4106,-2.4106,-2.4202,-2.4359,-2.4359,-2.4468,-2.4625,-2.4625,-2.4625,-2.4625,-2.4625,-2.442,-2.4094,-2.4009,-2.3925,-2.384,-2.4012,-2.4332,-2.497,-2.5289,-2.5753,-2.6228,-2.6386,-2.6386,-2.6386,-2.6386,-2.6386,-2.6386,-2.6386,-2.6386,-2.6386,-2.6386,-2.6386,-2.6386,-2.6386,-2.6386,-2.6386,-2.6386,-2.6386,-2.6386,-2.6386,-2.6386,-2.6386,-2.6386,-2.6386,-2.6426,-2.652,-2.6533,-2.664,-2.6934,-2.6974,-2.7041,-2.7241,-2.7348,-2.7415,-2.7415,-2.7509,-2.7522,-2.7415,-2.7415,-2.7362,-2.7268,-2.7268,-2.7175,-2.6974,-2.5163,-2.4702,-2.5723,0.0,0.0,0.0,0.0,0.0,0.0,0.0,0.0,0.0,0.0,0.0,0.0,0.0,0.0,0.0,0.0,0.0,0.0,0.0,0.0,0.0,0.0,0.0,-2.4124,-2.3816,-2.3915,-2.4516,-2.3926,-2.3721,-2.4467,-2.4012,-2.384,-2.384,-2.384,-2.384,-2.384,-2.3852,-2.3852,-2.3852,-2.3864,-2.3985,-2.4251,-2.4251,-2.4371,-2.4625,-2.4625,-2.4625,-2.4637,-2.4637,-2.4637,-2.4649,-2.4649,-2.4649,-2.4649,-2.4649,-2.4649,-2.4613,-2.4347,-2.4094,-2.3864,-2.4357,-2.4517,-2.4676,-2.5448,-2.5766,-2.5924,-2.6228,-2.6386,-2.6386,-2.6386,-2.6386,-2.6386,-2.6386,-2.6386,-2.6386,-2.6386,-2.6386,-2.6386,-2.6386,-2.6386,-2.6386,-2.6386,-2.6386,-2.6386,-2.64,-2.64,-2.64,-2.64,-2.64,-2.6507,-2.6787,-2.6841,0.0,-2.7241,-2.7281,-2.7281,-2.7295,-2.7549,-2.7709,-2.7709,-2.7976,-2.8016,-2.7736,-2.7709,-2.7589,-2.7308,-2.7295,-2.7281,-2.7118,-2.5425,-2.4303,-2.4052,0.0,0.0,0.0,0.0,0.0,0.0,0.0,0.0,0.0,0.0,0.0,0.0,0.0,0.0,0.0,0.0,0.0,0.0,0.0,0.0,0.0,0.0,-2.3959,-2.3959,-2.3646,-2.3587,-2.4013,-2.3891,-2.3768,-2.4,-2.384,-2.384,-2.384,-2.384,-2.384,-2.384,-2.4021,-2.413,-2.413,-2.4311,-2.4444,-2.4516,-2.4516,-2.4552,-2.4625,-2.4625,-2.4733,-2.4927,-2.4927,-2.5035,-2.5216,-2.5216,-2.5216,-2.5216,-2.5216,-2.5108,-2.4902,-2.4625,-2.4468,-2.4407,-2.4571,-2.4747,-2.5213,-2.5499,-2.5757,-2.6039,-2.5977,-2.6228,-2.6386,-2.6386,-2.6386,-2.6386,-2.6386,-2.6386,-2.6386,-2.6386,-2.6386,-2.6386,-2.6386,-2.6386,-2.6386,-2.6386,-2.6386,-2.6453,-2.6667,-2.6707,-2.6707,-2.6707,-2.6707,-2.68,-2.7094,0.0,0.0,-2.7549,-2.7575,-2.7655,-2.7883,-2.7976,-2.8016,-2.8016,-2.8096,-2.811,0.0,-2.8016,-2.7989,-2.7909,-2.7896,-2.6607,-2.3885,-2.4187,-2.3218,0.0,0.0,0.0,0.0,0.0,0.0,0.0,0.0,0.0,0.0,0.0,0.0,0.0,0.0,0.0,0.0,0.0,0.0,0.0,0.0,0.0,0.0,-2.3866,-2.394,-2.394,-2.3769,-2.3671,-2.3828,-2.384,-2.384,-2.384,-2.384,-2.384,-2.384,-2.3949,-2.4009,-2.4009,-2.4263,-2.4395,-2.4395,-2.4552,-2.4685,-2.4806,-2.4806,-2.4854,-2.4963,-2.4963,-2.5047,-2.5204,-2.5204,-2.5289,0.0,-2.5433,-2.5433,-2.5433,-2.5433,-2.5349,0.0,0.0,0.0,0.0,0.0,-2.479,-2.5108,-2.5615,-2.589,-2.619,-2.6331,-2.66,-2.6734,-2.66,-2.6573,-2.6547,-2.6426,-2.6386,-2.6386,-2.6386,-2.6386,-2.6413,-2.6547,-2.6573,-2.66,-2.6734,-2.676,-2.68,-2.6974,0.0,0.0,-2.7175,-2.7094,-2.7108,-2.7402,-2.7442,-2.7549,0.0,-2.7883,-2.7949,-2.8123,-2.8136,-2.8136,-2.8136,-2.8136,0.0,0.0,0.0,-2.8136,-2.8136,-2.7448,0.0,0.0,0.0,-2.1832,0.0,0.0,0.0,0.0,-1.9657,-1.9915,0.0,0.0,0.0,0.0,0.0,0.0,0.0,0.0,0.0,0.0,0.0,0.0,0.0,0.0,0.0,0.0,-2.3854,-2.384,-2.384,-2.384,-2.384,-2.384,-2.384,-2.384,-2.384,-2.3876,-2.3888,-2.3888,-2.413,-2.4287,0.0,0.0,0.0,0.0,0.0,-2.4842,-2.5083,-2.512,-2.5252,-2.5482,-2.5518,-2.553,-2.553,-2.553,-2.553,-2.553,-2.553,-2.553,-2.553,-2.553,-2.553,-2.5494,-2.5204,-2.4939,-2.4721,-2.4721,-2.4721,0.0,0.0,0.0,0.0,-2.6954,-2.7105,-2.7215,-2.6947,-2.6867,-2.6814,-2.656,-2.6493,-2.6493,-2.6493,-2.6493,-2.6547,-2.6814,-2.6867,-2.6947,-2.7215,-2.7268,-2.7281,-2.7308,-2.7321,-2.7402,-2.7696,-2.7509,-2.7415,-2.7709,-2.7749,0.0,-2.811,-2.8136,-2.8136,-2.8136,0.0,0.0,-2.8136,-2.8136,-2.8136,-2.8136,-2.8136,-2.8136,-2.8136,-2.6588,-2.6236,-2.7617,-2.2794,-2.0816,-2.1821,-1.8414,-1.6795,-1.6812,-1.9774,-2.0316,0.0,0.0,0.0,0.0,0.0,0.0,0.0,0.0,0.0,0.0,0.0,0.0,0.0,0.0,0.0,-2.3768,-2.3816,-2.384,-2.384,-2.384,-2.384,-2.384,-2.384,-2.384,-2.384,-2.4033,-2.4154,-2.4154,-2.4395,-2.4552,-2.4552,-2.4818,0.0,-2.4963,-2.5168,-2.5313,-2.5361,-2.5566,-2.5699,-2.5759,0.0,0.0,-2.6073,-2.6073,-2.6073,-2.6073,-2.6073,-2.6073,-2.6073,-2.6073,-2.6073,-2.6025,-2.5542,-2.5325,-2.5277,-2.5277,-2.5277,-2.5252,-2.5203,-2.5465,-2.5749,-2.6198,-2.6462,-2.6777,-2.7038,-2.7175,0.0,-2.7108,-2.7094,-2.7094,-2.7094,-2.7094,-2.7108,-2.7161,-2.7175,-2.7201,-2.7255,-2.7268,-2.7335,-2.7562,-2.7615,-2.7709,-2.8003,-2.7816,-2.7709,-2.8016,-2.8056,-2.8083,-2.8136,-2.8136,-2.8136,-2.8136,-2.8136,-2.8136,-2.8136,-2.8136,-2.8136,-2.8136,-2.8136,-2.8136,-2.8136,-2.7799,-2.6406,-2.3652,-2.2622,-2.0712,-1.8095,-1.7405,-1.7039,-1.6998,-1.7391,-1.74,0.0,0.0,0.0,0.0,0.0,0.0,0.0,0.0,0.0,0.0,0.0,-2.3647,0.0,0.0,-2.384,-2.384,-2.384,-2.384,-2.384,-2.384,-2.384,-2.384,-2.3961,-2.4045,-2.4045,-2.4275,-2.4432,-2.4432,-2.4685,-2.4842,-2.4842,-2.5096,-2.524,-2.524,-2.5494,-2.5627,-2.5627,-2.5892,-2.6025,-2.6025,-2.6158,-2.6218,-2.6218,-2.6218,-2.6218,-2.6218,-2.6218,-2.6218,-2.6218,-2.6218,-2.6218,-2.6194,-2.5928,-2.5747,-2.5627,-2.5627,-2.5554,-2.5421,-2.5446,-2.5905,-2.6386,-2.6594,-2.7057,-2.735,-2.7522,-2.7482,-2.7455,-2.7308,-2.7268,-2.7268,-2.7268,-2.7268,-2.7308,-2.7442,-2.7482,-2.7522,-2.7669,-2.7709,-2.7749,-2.7896,-2.7923,-2.7963,-2.8123,-2.8016,-2.7976,-2.8123,-2.8136,-2.8136,-2.8136,-2.8283,-2.8377,-2.8377,-2.8511,-2.8591,-2.8591,-2.8591,-2.8591,-2.8591,-2.8591,-2.8524,-2.8377,-2.7499,-2.6556,-2.5385,-2.2622,-2.0732,-1.9873,-1.7972,-1.7112,-1.7104,-1.6925,-1.6803,0.0,0.0,0.0,0.0,0.0,0.0,0.0,0.0,-2.3526,-2.3526,-2.3695,-2.384,-2.384,-2.384,-2.384,-2.384,-2.384,-2.384,-2.384,-2.3888,-2.3925,-2.3925,-2.4106,-2.4251,-2.4311,-2.4552,-2.4709,-2.4709,-2.4963,-2.5144,-2.5192,-2.5397,-2.553,-2.559,-2.5796,-2.5904,-2.5904,-2.617,-2.6303,-2.6303,-2.6351,-2.6375,-2.6375,-2.6375,-2.6375,-2.6375,-2.6375,-2.6375,-2.6375,-2.6375,-2.6375,-2.6375,-2.6375,-2.6218,-2.5977,-2.5928,-2.5771,-2.5578,-2.586,-2.6361,-2.6689,-2.7148,-2.7474,-2.7759,-2.7689,-2.7622,-2.7569,-2.7509,-2.7442,-2.7442,-2.7442,-2.7442,-2.7495,-2.7736,-2.7789,-2.7856,-2.8096,-2.8136,-2.8136,-2.8136,-2.8136,-2.8136,-2.8136,-2.819,-2.8217,-2.815,-2.819,-2.823,-2.823,-2.8497,-2.8684,-2.8684,-2.8898,-2.9045,-2.9045,-2.9045,-2.9045,-2.9045,-2.9045,-2.8938,-2.8698,-2.7266,-2.6623,-2.7277,-2.2891,-2.0791,-2.1659,-1.8506,-1.7112,-1.7112,-1.7112,-1.7039,-2.2899,-2.2983,0.0,-2.3031,-2.3225,-2.3406,0.0,0.0,-2.3804,-2.3804,-2.3828,-2.384,-2.384,-2.384,-2.384,-2.384,-2.384,-2.384,-2.384,-2.4045,-2.419,-2.419,-2.4214,-2.4323,-2.4564,-2.4842,-2.4999,-2.4999,-2.524,-2.5494,-2.5723,-2.5771,-2.5892,-2.6122,-2.6158,-2.6182,-2.6182,-2.6447,-2.6592,-2.6592,-2.6834,-2.6942,-2.6942,-2.6942,-2.6942,-2.6942,-2.6942,-2.6942,-2.6942,-2.6942,-2.6942,-2.6942,-2.6942,-2.6785,-2.652,-2.6266,-2.6158,-2.6097,-2.5868,-2.5957,-2.592,-2.6178,-2.6273,-2.6431,-2.7266,-2.7604,-2.7591,-2.8056,-2.8043,-2.8043,-2.8043,-2.8043,-2.8056,-2.8083,-2.8096,-2.8096,-2.8136,-2.8136,-2.8136,-2.8136,-2.8136,-2.8136,-2.8136,-2.8377,-2.8457,-2.819,-2.8377,-2.8551,-2.8551,-2.8804,-2.8991,-2.8991,-2.9018,-2.9045,-2.9045,-2.9045,-2.9045,-2.9045,-2.9045,-2.9032,-2.8991,-2.8804,-2.7184,-2.3964,-2.3052,-2.1194,-1.8059,-1.7362,-1.7112,-1.7112,-1.7112,-1.7096,-2.3212,0.0,0.0,0.0,-2.3599,-2.3683,-2.3683,-2.3768,-2.384,-2.384,-2.384,-2.384,-2.384,-2.384,-2.384,0.0,-2.3973,-2.4069,-2.4069,-2.4299,-2.4528,-2.4685,-2.4709,-2.4745,-2.4854,-2.512,-2.5277,-2.5277,-2.5518,-2.5711,-2.582,-2.5977,-2.6109,-2.6218,-2.6375,-2.646,-2.646,-2.6725,-2.687,-2.687,-2.6979,-2.7027,-2.7027,-2.7027,-2.7027,-2.7027,-2.7027,-2.7027,-2.7027,-2.7027,-2.7027,-2.7027,-2.7027,-2.6966,-2.6834,-2.6556,-2.6363,-2.6206,-2.6097,-2.6236,-2.6386,-2.6624,-2.6648,-2.6853,-2.7209,-2.7434,-2.7474,-2.7812,-2.7981,-2.8136,-2.8136,-2.8136,-2.8136,-2.8136,-2.8136,-2.8136,-2.8136,-2.8136,-2.8136,-2.8136,-2.8283,-2.8417,-2.8417,-2.8657,-2.8818,-2.8684,-2.8778,-2.8858,-2.8858,-2.9112,-2.9366,-2.9539,-2.9553,-2.9553,-2.9553,-2.9553,-2.9553,-2.9553,-2.9553,-2.9472,-2.9312,-2.9299,-2.8491,-2.6721,-2.4305,-2.2486,-2.0899,-1.8518,-1.7364,-1.7274,-1.7274,-1.721,-2.3502,0.0,0.0,-2.3792,-2.384,-2.384,-2.384,-2.384,-2.384,-2.384,-2.384,-2.384,-2.384,-2.384,0.0,-2.3937,-2.4106,-2.4263,-2.4335,-2.4576,-2.4818,-2.5023,-2.5108,-2.518,-2.5252,-2.5433,-2.5542,-2.5542,-2.5784,-2.5977,-2.6049,-2.623,-2.6363,-2.6435,-2.6641,-2.6749,-2.6749,-2.693,-2.7027,-2.7027,-2.7027,-2.7027,-2.7027,-2.7027,-2.7027,-2.7027,-2.7027,-2.7027,-2.7027,-2.7027,-2.7027,-2.7027,-2.7027,-2.7027,-2.7003,-2.6822,-2.6616,-2.6435,-2.6363,-2.6516,-2.6856,-2.6783,-2.6785,-2.6971,-2.7144,-2.719,-2.738,-2.7722,-2.7997,-2.8101,-2.827,-2.8203,-2.8136,-2.8136,-2.8203,-2.827,-2.827,-2.8337,-2.839,-2.839,-2.8577,-2.8724,-2.8724,-2.8965,-2.9165,-2.9165,-2.9232,-2.9245,-2.9179,-2.9419,-2.9686,-2.99,-2.9913,-2.9913,-2.9913,-2.9913,-2.9913,-2.9913,-2.9913,-2.982,-2.9619,-2.9606,-2.9322,-2.838,-2.5619,-2.3618,-2.2536,-2.0336,-1.8639,-1.7461,-1.799,-1.7915,0.0,0.0,-2.384,-2.384,-2.384,-2.384,-2.384,-2.384,-2.384,-2.384,-2.384,-2.384,-2.384,-2.384,-2.3925,-2.4178,-2.4226,-2.4323,-2.4576,-2.4854,-2.5035,-2.5047,-2.5277,-2.553,0.0,-2.5808,-2.582,-2.582,-2.6061,-2.6327,-2.6604,-2.6629,-2.6749,-2.7003,-2.7015,-2.7015,-2.7015,-2.7027,-2.7027,-2.7027,-2.7027,-2.7027,-2.7027,-2.7027,-2.7027,-2.7027,-2.7027,-2.7027,-2.7027,-2.7027,-2.7027,-2.7027,-2.7027,-2.7027,-2.7027,-2.7015,-2.7015,-2.6966,-2.6713,-2.6629,-2.658,-2.6315,-2.6218,-2.6382,-2.6746,-2.6909,-2.7084,-2.7946,-2.81,-2.8063,-2.8419,-2.8364,-2.8136,-2.8136,-2.8377,-2.8591,-2.8591,-2.8818,-2.9005,-2.9005,-2.9018,-2.9032,-2.9032,-2.9272,-2.9472,-2.9472,-2.9713,-2.9793,-2.9499,-2.9726,-2.99,-2.9913,-2.9913,-2.9913,-2.9913,-2.9913,-2.9913,-2.9913,-2.9913,-2.9913,-2.99,-2.99,-2.8976,-2.7135,-2.6701,-2.4767,-2.0962,-2.2547,-2.1373,-1.7632,-1.9599,-1.9419,0.0,0.0,-2.384,-2.384,-2.384,-2.384,-2.384,-2.384,-2.384,-2.384,-2.384,-2.39,-2.4069,-2.4106,-2.419,-2.4456,-2.4649,-2.4806,-2.489,-2.5132,-2.5313,-2.5313,-2.5542,0.0,0.0,0.0,0.0,-2.6073,-2.6339,-2.6544,-2.6629,-2.681,-2.6942,-2.7027,-2.7027,-2.7027,-2.7027,-2.7027,-2.7123,-2.7292,-2.7461,-2.7546,-2.7546,-2.7546,-2.7546,-2.7546,-2.7546,-2.7546,-2.7534,-2.7365,-2.7292,-2.7268,-2.7099,-2.7027,-2.7027,-2.7027,-2.7027,-2.7015,-2.693,-2.6894,-2.6882,-2.6785,-2.6641,-2.6496,-2.6674,-2.6729,-2.6934,-2.7285,-2.7571,-2.7669,-2.7856,-2.7952,-2.7875,-2.7875,-2.8126,-2.8365,-2.8365,-2.8791,-2.9045,-2.9045,-2.9205,-2.9339,-2.9339,-2.9579,-2.9766,-2.9766,-2.986,-2.9887,-2.978,-2.986,-2.9913,-2.9913,-2.9913,-2.9913,-2.9913,-2.9913,-2.9913,-2.9913,-2.9913,-2.9913,-2.9913,-2.9913,-2.8989,-2.6966,-2.5615,-2.4299,-2.283,-2.2211,-2.192,-2.178,-2.2501,-2.1521,0.0,-2.384,-2.384,-2.384,-2.384,-2.384,-2.384,-2.384,-2.384,-2.384,-2.384,-2.3925,-2.419,-2.4238,-2.4359,-2.4721,-2.4927,-2.5083,-2.5168,-2.5325,-2.547,-2.5566,-2.5723,0.0,0.0,0.0,0.0,-2.6363,-2.6629,-2.6773,-2.6773,-2.6942,-2.7027,-2.7027,-2.7123,-2.7172,-2.7172,-2.7256,-2.7389,-2.757,-2.7727,-2.7811,-2.7811,-2.7811,-2.7811,-2.7811,-2.7811,-2.7811,-2.7799,-2.763,-2.7558,-2.7534,-2.7268,-2.7172,-2.716,-2.7063,-2.7027,-2.7027,-2.7027,-2.7027,-2.7027,-2.7027,-2.6918,-2.6773,-2.6773,-2.6832,-2.7041,-2.7219,-2.7334,-2.7612,-2.7612,-2.7724,-2.7648,-2.7648,-2.8062,-2.8478,-2.8478,-2.8921,-2.9352,-2.9352,-2.8955,-2.8539,-2.8539,-2.8142,-2.7715,-2.7715,-2.7715,-2.8269,-2.9734,-2.9913,-2.9913,-2.9913,-2.9913,-2.9913,-2.9913,-2.9913,-2.9913,-2.9913,-2.9913,-2.9913,-2.9913,-2.9913,-2.8989,-2.6966,-2.5696,-2.4419,-2.2954,-2.2402,-2.1965,-2.1827,-2.2546,-2.1748,-2.384,-2.384,-2.384,-2.384,-2.384,-2.384,-2.384,-2.384,-2.384,-2.384,-2.3852,-2.3949,0.0,0.0,-2.4444,-2.4987,-2.5071,-2.5156,-2.5397,-2.5446,-2.5542,0.0,0.0,0.0,0.0,0.0,0.0,-2.6665,0.0,-2.7027,-2.7027,-2.7027,-2.7039,-2.7051,-2.7292,-2.7425,-2.7437,-2.7703,-2.7836,-2.7836,-2.7848,-2.786,-2.786,-2.786,-2.786,-2.786,-2.786,-2.786,-2.7848,-2.7836,-2.7836,-2.7799,-2.7546,-2.7437,-2.7389,-2.7135,-2.7039,-2.7027,-2.7027,-2.7027,-2.7027,-2.7027,-2.7027,-2.7027,-2.7027,-2.7027,-2.7027,-2.7558,-2.7553,-2.7355,-2.7902,-2.77,-2.751,-2.751,-2.8243,-2.8778,-2.8778,-2.9356,-2.9913,-2.9913,-2.8256,-2.6966,-2.6785,-2.5332,-2.4054,-2.4054,-2.4054,-2.5332,-2.9182,-2.9734,-2.9734,-2.9734,-2.9913,-2.9913,-2.9913,-2.9913,-2.9913,-2.9913,-2.9913,-2.9913,-2.9913,-2.9913,-2.8989,-2.6966,-2.6966,-2.5138,-2.1306,-2.3137,-2.2034,-1.8541,-2.0381,-2.0196,-2.384,-2.384,-2.384,-2.384,-2.384,-2.384,-2.384,-2.384,-2.384,-2.384,-2.3997,-2.4214,0.0,0.0,0.0,-2.5289,-2.5337,0.0,-2.5421,-2.5602,0.0,0.0,0.0,-2.6484,-2.6629,-2.681,0.0,0.0,-2.6991,-2.7027,-2.7027,-2.7027,-2.7123,-2.7317,-2.7389,-2.751,-2.7715,-2.7968,-2.8101,-2.8101,-2.8318,-2.8415,-2.8415,-2.8415,-2.8415,-2.8415,-2.8415,-2.8415,-2.8403,-2.8186,-2.8101,-2.8077,-2.7811,-2.7594,-2.7413,-2.7341,-2.7196,-2.7027,-2.7027,-2.7027,-2.7027,-2.7027,-2.7027,-2.7027,-2.7027,-2.7027,-2.7027,-2.7208,-2.716,-2.7111,-2.7292,-2.7243,-2.7182,-2.7182,-2.7591,-2.818,-2.8552,-2.8963,-2.9541,-2.9913,-2.8256,-2.6604,-2.4967,-2.4419,-2.4054,-2.4054,-2.4054,-2.4419,-2.5332,-2.6797,-2.7702,-2.7702,-2.9002,-2.9913,-2.9913,-2.9913,-2.9913,-2.9913,-2.9913,-2.9913,-2.9913,-2.9913,-2.8989,-2.6966,-2.6966,-2.5696,-2.3321,-2.3687,-2.3504,-2.2586,-2.2954,-2.2218,-2.384,-2.384,-2.384,-2.384,-2.384,-2.384,-2.384,-2.384,-2.384,-2.384,-2.4057,0.0,0.0,0.0,0.0,0.0,0.0,0.0,-2.5433,-2.5663,-2.5868,0.0,-2.6375,0.0,-2.6798,-2.6942,-2.7027,0.0,0.0,-2.7075,-2.7196,-2.7208,-2.7329,-2.7582,-2.7703,-2.7896,-2.8162,-2.8306,-2.8391,-2.8391,-2.8548,-2.862,-2.862,-2.862,-2.862,-2.862,0.0,-2.862,-2.8608,-2.8451,-2.8391,-2.8367,-2.8089,-2.7896,-2.7739,-2.751,-2.7329,-2.7184,-2.7075,-2.7027,-2.7027,-2.7027,-2.7027,-2.7027,-2.7027,-2.7027,-2.7027,-2.7027,-2.7027,-2.7027,-2.7027,-2.7027,-2.7027,-2.7027,-2.7377,-2.7739,-2.8101,-2.8642,-2.8809,-2.7534,-2.6435,-2.4774,-2.185,-2.1481,-2.1481,-2.1481,-2.1481,-2.1665,-2.2586,-2.4419,-2.606,-2.6966,-2.7895,-2.8989,-2.9913,-2.9913,-2.9913,-2.9913,-2.9913,-2.9554,-2.8629,-2.9362,-2.8629,-2.5696,-2.6604,-2.606,-2.4054,-2.3137,-2.277,-2.277,-2.185,-2.0936,-2.384,-2.384,-2.384,-2.384,-2.384,-2.384,-2.384,-2.384,-2.3852,-2.3888,0.0,0.0,-2.4637,0.0,-2.5168,-2.5397,0.0,-2.5446,-2.5482,-2.5711,-2.5977,-2.6242,-2.652,-2.6773,-2.7003,-2.7027,-2.7027,-2.7027,-2.7063,-2.7184,-2.7413,-2.7449,-2.7594,-2.786,-2.8125,-2.8379,-2.862,-2.862,-2.862,-2.862,-2.862,-2.862,-2.862,-2.862,-2.862,-2.862,0.0,0.0,-2.862,-2.862,-2.862,-2.8596,-2.8355,-2.8234,-2.8149,-2.7655,-2.7449,-2.7377,-2.7123,-2.7027,-2.7027,-2.7027,-2.7027,-2.7027,-2.7027,-2.7027,-2.7027,-2.7027,-2.7027,-2.7027,-2.7027,-2.7027,-2.7027,-2.7027,-2.739,-2.7558,-2.7739,-2.8462,-2.8269,-2.4967,-2.4419,-2.3321,-1.9648,-1.8727,-1.8541,-1.8541,-1.8541,-1.9285,-2.0936,-2.2586,-2.4419,-2.6785,-2.6966,-2.7702,-2.9734,-2.9913,-2.9913,-2.9913,-2.9913,-2.9182,-2.7521,-2.8989,-2.8088,-2.4419,-2.606,-2.606,-2.4054,-2.2218,-2.1481,-2.1481,-1.9834,-1.8913,-2.384,-2.384,-2.384,-2.384,-2.384,-2.384,-2.384,-2.384,0.0,0.0,0.0,-2.4637,-2.4927,-2.5192,0.0,-2.5433,0.0,0.0,0.0,0.0,-2.6254,0.0,0.0,0.0,0.0,0.0,0.0,0.0,0.0,0.0,-2.7413,-2.763,-2.786,-2.8125,-2.8403,-2.8572,-2.862,-2.862,-2.862,-2.862,-2.862,-2.862,-2.862,-2.862,-2.862,-2.862,0.0,0.0,-2.862,-2.862,-2.862,-2.862,-2.8572,-2.8403,-2.8162,-2.786,-2.7606,-2.7377,-2.7123,-2.7027,-2.7027,-2.7027,-2.7027,-2.7027,-2.7027,-2.7027,-2.7027,-2.7027,-2.7027,-2.7027,-2.7027,-2.7027,-2.7027,-2.7027,-2.7027,-2.7208,-2.7558,-2.8462,-2.8629,-2.6797,-2.6423,-2.5696,-2.3321,-2.1665,-2.0566,-2.0566,-2.0566,-2.0751,-2.1121,-2.1296,-2.2943,-2.6604,-2.6966,-2.7702,-2.9734,-2.9913,-2.9913,-2.9913,-2.9913,-2.9734,-2.9362,-2.9734,-2.8809,-2.6604,-2.6785,-2.606,-2.4054,-2.3687,-2.3504,-2.3504,-2.3137,-2.2218,-2.384,-2.384,-2.384,-2.384,-2.384,-2.384,-2.384,0.0,0.0,0.0,0.0,-2.489,-2.5023,0.0,0.0,0.0,0.0,0.0,0.0,0.0,0.0,0.0,0.0,0.0,0.0,0.0,0.0,0.0,0.0,0.0,-2.7618,-2.8017,-2.8294,-2.8415,-2.8548,-2.862,-2.862,-2.862,-2.862,-2.862,-2.862,-2.862,-2.862,-2.862,-2.862,-2.862,0.0,0.0,-2.862,-2.862,-2.862,-2.862,-2.862,-2.8536,-2.8391,-2.8113,-2.7848,-2.7582,-2.7329,-2.7148,-2.7027,-2.7027,-2.7027,-2.7027,-2.7027,-2.7027,-2.7027,-2.7027,-2.7027,-2.7027,-2.7027,-2.7027,-2.7027,-2.7027,-2.7027,-2.7208,-2.792,-2.8474,-2.8462,-2.716,-2.6966,-2.6423,-2.4419,-2.3321,-2.2586,-2.2586,-2.2586,-2.2954,-2.4043,-2.3321,-2.3677,-2.6604,-2.6966,-2.7702,-2.9734,-2.9913,-2.9913,-2.9913,-2.9913,-2.9362,-2.8436,-2.9362,-2.8989,-2.6966,-2.6966,-2.6604,-2.5514,-2.3504,-2.2402,-2.2402,-2.2402,-2.2034,-2.384,-2.384,-2.384,-2.384,-2.384,-2.3864,-2.3913,-2.4094,0.0,0.0,-2.4745,-2.5059,-2.512,0.0,0.0,0.0,0.0,0.0,0.0,0.0,0.0,0.0,0.0,0.0,0.0,0.0,0.0,0.0,0.0,0.0,0.0,-2.8391,-2.862,-2.862,-2.862,-2.862,-2.862,-2.862,-2.862,-2.862,-2.862,-2.862,-2.862,-2.862,-2.862,-2.862,0.0,0.0,0.0,-2.862,-2.862,-2.862,-2.862,-2.862,-2.8584,-2.8306,-2.8041,-2.7775,-2.751,-2.7244,-2.7027,-2.7027,-2.7027,-2.7027,-2.7027,-2.7027,-2.7027,-2.7027,-2.7027,-2.7027,-2.7027,-2.7027,-2.7027,-2.7027,-2.7027,-2.7208,-2.8113,-2.8474,-2.8281,-2.7534,-2.7521,-2.716,-2.5514,-2.4967,-2.4602,-2.4602,-2.4602,-2.515,-2.6785,-2.606,-2.5878,-2.7521,-2.7341,-2.7702,-2.9734,-2.9913,-2.9913,-2.9913,-2.9913,-2.9182,-2.7702,-2.9182,-2.8989,-2.6966,-2.6966,-2.6785,-2.6423,-2.331,-2.1665,-2.1665,-2.1665,-2.1481,-2.384,-2.384,-2.384,-2.384,-2.384,-2.39,-2.4142,0.0,0.0,-2.4866,-2.5011,-2.512,-2.5361,0.0,0.0,0.0,0.0,-2.588,0.0,0.0,0.0,0.0,0.0,0.0,0.0,0.0,0.0,0.0,0.0,0.0,0.0,-2.8596,-2.862,-2.862,-2.862,-2.862,-2.862,-2.862,-2.862,-2.862,-2.862,-2.862,-2.862,-2.862,-2.862,-2.862,0.0,0.0,0.0,-2.862,-2.862,-2.862,-2.862,-2.862,-2.8584,-2.8306,-2.8041,-2.7775,-2.751,-2.7244,-2.7027,-2.7027,-2.7027,-2.7027,-2.7027,-2.7027,-2.7027,-2.7027,-2.7027,-2.7027,-2.7027,-2.7027,-2.7027,-2.7027,-2.7027,-2.7208,-2.7739,-2.8113,-2.8655,-2.9002,-2.9362,-2.9554,-2.9362,-2.7895,-2.6785,-2.6785,-2.6785,-2.6785,-2.6966,-2.8436,-2.9375,-2.9554,-2.8076,-2.7702,-2.9734,-2.9913,-2.9913,-2.9913,-2.9913,-2.9734,-2.9734,-2.9734,-2.8989,-2.6966,-2.6966,-2.606,-2.4237,-2.3871,-2.3687,-2.3687,-2.3687,-2.277,-2.384,-2.384,-2.384,-2.384,-2.384,-2.3913,-2.4178,0.0,-2.4576,-2.4963,-2.5168,-2.5313,-2.5421,-2.5433,0.0,0.0,0.0,0.0,0.0,0.0,0.0,0.0,0.0,0.0,0.0,0.0,0.0,0.0,0.0,0.0,0.0,-2.862,-2.862,-2.862,-2.862,-2.862,-2.862,-2.862,-2.862,-2.862,-2.862,-2.862,-2.862,-2.862,-2.862,-2.862,0.0,0.0,0.0,-2.862,-2.862,-2.862,-2.862,-2.862,-2.8584,-2.8306,-2.8041,-2.7775,-2.751,-2.7244,-2.7027,-2.7027,-2.7027,-2.7027,-2.7027,-2.7027,-2.7027,-2.7027,-2.7027,-2.7027,-2.7027,-2.7027,-2.7027,-2.7027,-2.7027,-2.7208,-2.7558,-2.792,-2.8101,-2.8655,-2.9015,-2.9015,-2.9015,-2.8462,-2.7908,-2.7908,-2.8088,-2.8256,-2.8256,-2.9182,-2.9913,-2.9913,-2.9182,-2.9002,-2.9913,-2.9913,-2.9913,-2.9913,-2.9913,-2.9913,-2.9913,-2.9913,-2.9541,-2.8809,-2.7521,-2.6604,-2.5878,-2.3504,-2.2218,-2.2218,-2.2218,-2.185,-2.384,-2.384,-2.384,-2.384,-2.384,-2.3937,0.0,0.0,-2.4721,-2.5083,-2.5313,-2.5433,-2.5433,-2.5433,-2.5433,-2.5433,-2.5953,-2.6315,-2.623,-2.6749,0.0,0.0,0.0,0.0,0.0,0.0,0.0,0.0,0.0,0.0,0.0,0.0,-2.862,-2.862,-2.862,-2.862,-2.862,-2.862,-2.862,-2.862,-2.862,-2.862,-2.862,-2.862,-2.862,0.0,0.0,0.0,0.0,-2.862,-2.862,-2.862,-2.862,-2.862,-2.8584,-2.8306,-2.8041,-2.7775,-2.751,-2.7244,-2.7027,-2.7027,-2.7027,-2.7027,-2.7027,-2.7027,-2.7027,-2.7027,-2.7027,-2.7027,-2.7027,-2.7027,-2.7027,-2.7027,-2.7027,-2.7027,-2.7377,-2.7558,-2.7739,-2.8113,-2.8474,-2.8474,-2.8474,-2.8474,-2.8474,-2.8474,-2.8835,-2.9002,-2.9182,-2.9554,-2.9734,-2.9913,-2.9913,-2.9913,-2.9913,-2.9913,-2.9913,-2.9913,-2.9913,-2.9913,-2.9913,-2.9913,-2.9913,-2.9913,-2.8629,-2.7521,-2.6966,-2.3677,-2.1665,-2.1121,-2.0566,-2.0196,-2.384,-2.384,-2.384,-2.384,-2.384,-2.3985,0.0,0.0,-2.4782,-2.5325,-2.5433,-2.5433,-2.5433,-2.5433,-2.5433,-2.5433,-2.6109,-2.6544,-2.6254,-2.6906,0.0,0.0,0.0,0.0,0.0,0.0,0.0,0.0,0.0,0.0,0.0,0.0,-2.862,-2.862,-2.862,-2.862,-2.862,-2.862,-2.862,-2.862,-2.862,-2.862,-2.862,-2.862,0.0,0.0,0.0,0.0,0.0,-2.862,-2.862,-2.862,-2.862,-2.862,-2.8584,-2.8306,-2.8041,-2.7775,-2.751,-2.7244,-2.7027,-2.7027,-2.7027,-2.7027,-2.7027,-2.7027,-2.7027,-2.7027,-2.7027,-2.7027,-2.7027,-2.7027,-2.7027,-2.7027,-2.7027,-2.7027,-2.7027,-2.7377,-2.7739,-2.7739,-2.8113,-2.8474,-2.8474,-2.8474,-2.8474,-2.8474,-2.8474,-2.8655,-2.9182,-2.9182,-2.9362,-2.9913,-2.9913,-2.9913,-2.9913,-2.9913,-2.9913,-2.9913,-2.9913,-2.9913,-2.9913,-2.9913,-2.9913,-2.9913,-2.9913,-2.8989,-2.6966,-2.4967,-2.2954,-2.1121,-1.9091,-1.8176,-2.384,-2.384,-2.384,-2.384,-2.384,-2.3985,-2.4504,0.0,-2.4782,-2.5325,-2.5433,-2.5433,-2.5433,-2.5433,-2.5433,-2.5433,-2.6266,-2.6749,-2.6278,0.0,0.0,0.0,0.0,0.0,0.0,0.0,0.0,0.0,0.0,0.0,0.0,0.0,-2.862,-2.862,-2.862,-2.862,-2.862,-2.862,-2.862,-2.862,-2.862,-2.862,-2.862,-2.862,0.0,0.0,0.0,0.0,0.0,-2.862,-2.862,-2.862,-2.862,-2.8512,-2.8306,-2.8029,-2.7775,-2.751,-2.7244,-2.7099,-2.7027,-2.7027,-2.7027,-2.7027,-2.7027,-2.7027,-2.7027,-2.7027,-2.7027,-2.7027,-2.7027,-2.7027,-2.7027,-2.7027,-2.7027,-2.7027,-2.7027,-2.7208,-2.7208,-2.7208,-2.739,-2.739,-2.739,-2.739,-2.739,-2.739,-2.7739,-2.8101,-2.8655,-2.9002,-2.9362,-2.9913,-2.9913,-2.9913,-2.9913,-2.9913,-2.9913,-2.9913,-2.9913,-2.9913,-2.9913,-2.9913,-2.9913,-2.9913,-2.9913,-2.9554,-2.8989,-2.6979,-2.4226,-2.0548,-1.8905,-1.7989,0.0,-2.384,-2.384,-2.384,-2.384,0.0,0.0,0.0,-2.4782,-2.5325,-2.5433,-2.5433,-2.5433,-2.5433,-2.5433,-2.5433,-2.6339,-2.6834,-2.6303,0.0,0.0,0.0,0.0,0.0,0.0,0.0,0.0,0.0,0.0,0.0,0.0,0.0,-2.862,-2.862,-2.862,-2.862,-2.862,-2.862,-2.862,-2.862,-2.862,-2.862,-2.862,0.0,0.0,0.0,0.0,0.0,0.0,-2.862,-2.862,-2.8608,-2.8512,-2.8355,-2.8162,-2.7799,-2.7558,-2.7377,-2.7123,-2.7027,-2.7027,-2.7027,-2.7027,-2.7027,-2.7027,-2.7027,-2.7027,-2.7027,-2.7027,-2.7027,-2.7027,-2.7027,-2.7027,-2.7027,-2.7027,-2.7027,-2.7027,-2.7027,-2.7027,-2.7027,-2.7027,-2.7027,-2.7027,-2.7027,-2.7027,-2.7027,-2.7208,-2.7558,-2.8113,-2.8642,-2.9182,-2.9554,-2.9734,-2.9913,-2.9913,-2.9913,-2.9913,-2.9913,-2.9913,-2.9913,-2.9913,-2.9913,-2.9913,-2.9913,-2.9913,-2.9913,-2.9913,-2.716,-2.4043,-2.0557,-1.8719,-1.7803,0.0,-2.384,0.0,0.0,0.0,0.0,0.0,0.0,0.0,0.0,0.0,-2.5433,-2.5433,-2.5433,-2.5446,-2.5458,-2.6339,-2.6846,-2.6327,0.0,0.0,0.0,0.0,0.0,0.0,0.0,0.0,0.0,0.0,0.0,0.0,0.0,0.0,-2.862,-2.862,-2.862,-2.862,-2.862,-2.862,-2.862,-2.862,-2.862,-2.862,0.0,0.0,0.0,0.0,0.0,0.0,-2.862,-2.8608,-2.8572,-2.8306,-2.8186,-2.8089,-2.7594,-2.7413,-2.7365,-2.7111,-2.7027,-2.7027,-2.7027,-2.7027,-2.7027,-2.7027,-2.7027,-2.7027,-2.7027,-2.7027,-2.7027,-2.7027,-2.7027,-2.7027,-2.7027,-2.7027,-2.7027,-2.7027,-2.7027,-2.7027,-2.7027,-2.7027,-2.7027,-2.7027,-2.7027,-2.7027,-2.7027,-2.7027,-2.7208,-2.7558,-2.8101,-2.8655,-2.9002,-2.9362,-2.9554,-2.9554,-2.9734,-2.9913,-2.9913,-2.9734,-2.9734,-2.9913,-2.9734,-2.9734,-2.9913,-2.9913,-2.9913,-2.9913,-2.5878,-2.2954,-2.1111,-1.8541,-1.7616,-2.384,0.0,-2.384,-2.384,-2.3997,0.0,0.0,0.0,0.0,0.0,0.0,-2.5433,-2.5433,-2.5433,-2.5506,-2.5699,-2.646,-2.6918,-2.6592,0.0,0.0,0.0,0.0,0.0,0.0,0.0,0.0,0.0,0.0,0.0,0.0,0.0,0.0,-2.862,-2.862,-2.862,-2.862,-2.862,-2.862,-2.862,-2.862,-2.862,-2.862,0.0,0.0,0.0,0.0,0.0,-2.862,-2.862,-2.85,-2.8294,-2.8234,-2.7956,-2.7594,-2.7461,-2.7292,-2.7111,-2.7051,-2.7027,-2.7027,-2.7027,-2.7027,-2.7027,-2.7027,-2.7027,-2.7027,-2.7027,-2.7027,-2.7027,-2.7027,-2.7027,-2.7027,-2.7027,-2.7027,-2.7027,-2.7027,-2.7027,-2.7027,-2.7027,-2.7027,-2.7027,-2.7027,-2.7027,-2.7027,-2.7027,-2.7027,-2.7208,-2.7558,-2.7739,-2.7727,-2.6991,-2.6991,-2.6628,-2.5514,-2.8076,-2.9913,-2.9913,-2.8449,-2.8256,-2.9913,-2.8436,-2.8436,-2.9913,-2.9913,-2.9913,-2.9913,-2.5878,-2.331,-2.2014,-1.8905,-1.7242,-2.384,-2.384,-2.384,-2.384,-2.4045,-2.4299,0.0,0.0,0.0,0.0,0.0,0.0,-2.5433,0.0,0.0,-2.5784,-2.6399,-2.6882,0.0,0.0,0.0,0.0,0.0,0.0,0.0,0.0,0.0,0.0,0.0,0.0,0.0,0.0,0.0,0.0,-2.862,-2.862,-2.862,-2.862,-2.862,-2.862,-2.862,-2.862,-2.862,0.0,0.0,0.0,0.0,0.0,-2.8608,-2.8487,-2.8343,-2.8186,-2.7944,-2.7667,-2.7413,-2.7292,-2.7148,-2.7027,-2.7027,-2.7027,-2.7027,-2.7027,-2.7027,-2.7027,-2.7027,-2.7027,-2.7027,-2.7027,-2.7027,-2.7027,-2.7027,-2.7027,-2.7027,-2.7027,-2.7027,-2.7027,-2.7027,-2.7027,-2.7027,-2.7027,-2.7027,-2.7027,-2.7027,-2.7027,-2.7027,-2.7027,-2.7027,-2.7027,-2.7377,-2.6821,-2.6083,-2.5719,-2.5161,-2.4602,-2.3677,-2.5878,-2.716,-2.716,-2.716,-2.6979,-2.716,-2.716,-2.6979,-2.716,-2.8076,-2.8076,-2.716,-2.4967,-2.331,-2.184,-1.8532,-1.7242,-2.384,-2.384,-2.384,-2.384,-2.4069,-2.4347,0.0,0.0,0.0,0.0,0.0,0.0,0.0,0.0,0.0,0.0,0.0,0.0,0.0,0.0,0.0,0.0,0.0,0.0,0.0,0.0,0.0,0.0,0.0,0.0,0.0,0.0,0.0,0.0,-2.862,-2.862,-2.862,-2.862,-2.862,-2.862,-2.862,-2.862,-2.862,-2.862,0.0,0.0,0.0,0.0,-2.8536,-2.8294,-2.8162,-2.8041,-2.7594,-2.7389,-2.7329,-2.7111,-2.7027,-2.7027,-2.7027,-2.7027,-2.7027,-2.7027,-2.7027,-2.7027,-2.7027,-2.7027,-2.7027,-2.7027,-2.7027,-2.7027,-2.7027,-2.7027,-2.7027,-2.7027,-2.7027,-2.7027,-2.7027,-2.7027,-2.7027,-2.7027,-2.7027,-2.7027,-2.7027,-2.7027,-2.7027,-2.7027,-2.7027,-2.7027,-2.7027,-2.5719,-2.4613,-2.443,-2.3494,-2.2749,-2.2566,-2.2943,-2.3321,-2.3504,-2.515,-2.5332,-2.3687,-2.5514,-2.5696,-2.4054,-2.5696,-2.5696,-2.4054,-2.3687,-2.2586,-2.0742,-1.7973,-1.7055,-2.384,-2.384,-2.384,-2.384,-2.4214,-2.4576,0.0,0.0,0.0,0.0,0.0,0.0,0.0,0.0,0.0,0.0,0.0,0.0,0.0,0.0,0.0,0.0,0.0,0.0,0.0,0.0,0.0,0.0,0.0,0.0,0.0,0.0,0.0,0.0,0.0,-2.862,-2.862,-2.862,-2.862,-2.862,-2.862,-2.862,-2.862,-2.862,-2.862,0.0,0.0,-2.8487,-2.827,-2.8222,-2.7944,-2.7534,-2.7449,-2.728,-2.7087,-2.7051,-2.7027,-2.7027,-2.7027,-2.7027,-2.7027,-2.7027,-2.7027,-2.7027,-2.7027,-2.7027,-2.7027,-2.7027,-2.7027,-2.7027,-2.7027,-2.7027,-2.7027,-2.7027,-2.7027,-2.7027,-2.7027,-2.7027,-2.7027,-2.7027,-2.7027,-2.7027,-2.7027,-2.7027,-2.7027,-2.7027,-2.7027,-2.7027,-2.7027,-2.5354,-2.3881,-2.2974,-2.1306,-1.9825,-1.9091,-1.9091,-1.9834,-2.1481,-2.185,-2.185,-2.1481,-2.3504,-2.4237,-2.4054,-2.4237,-2.4237,-2.4054,-2.2402,-2.0927,-1.9807,-1.76,-1.6494,-2.384,-2.384,-2.384,-2.384,-2.4238,0.0,0.0,0.0,0.0,0.0,0.0,0.0,0.0,0.0,0.0,0.0,0.0,0.0,0.0,0.0,0.0,0.0,0.0,0.0,0.0,0.0,0.0,0.0,0.0,0.0,0.0,0.0,0.0,0.0,0.0,0.0,-2.862,-2.862,-2.862,-2.862,-2.862,-2.862,-2.862,-2.862,-2.8536,-2.8391,0.0,-2.8246,-2.798,-2.7836,-2.7642,-2.7413,-2.7268,-2.7135,-2.7027,-2.7027,-2.7027,-2.7027,-2.7027,-2.7027,-2.7027,-2.7027,-2.7027,-2.7027,-2.7027,-2.7027,-2.7027,-2.7027,-2.7027,-2.7027,-2.7027,-2.7027,-2.7027,-2.7027,-2.7027,-2.7027,-2.7027,-2.7027,-2.7027,-2.7027,-2.7027,-2.7027,-2.7027,-2.7027,-2.7027,-2.7027,-2.7027,-2.6652,-2.5548,-2.3698,-2.2034,-2.0751,-1.9091,-1.7981,-1.7803,-1.7989,-1.9099,-2.0936,-2.1121,-2.1121,-2.1121,-2.0936,-2.0936,-2.0936,-2.185,-2.185,-2.0936,-2.0936,-2.0196,-1.8346,-1.7234,-1.6494,-2.384,-2.384,-2.384,0.0,0.0,0.0,0.0,0.0,0.0,0.0,0.0,0.0,0.0,0.0,0.0,0.0,0.0,0.0,0.0,0.0,0.0,0.0,0.0,0.0,0.0,0.0,0.0,0.0,0.0,0.0,0.0,0.0,0.0,0.0,0.0,0.0,-2.862,-2.862,-2.862,-2.862,-2.862,-2.862,-2.862,-2.856,-2.8403,-2.8198,-2.8137,-2.7956,-2.7703,-2.7498,-2.7389,-2.7304,-2.7111,-2.7027,-2.7027,-2.7027,-2.7027,-2.7027,-2.7027,-2.7027,-2.7027,-2.7027,-2.7027,-2.7027,-2.7027,-2.7027,-2.7027,-2.7027,-2.7027,-2.7027,-2.7027,-2.7027,-2.7027,-2.7027,-2.7027,-2.7027,-2.7027,-2.7027,-2.7027,-2.7027,-2.7027,-2.7027,-2.7027,-2.7027,-2.6845,-2.647,-2.6664,-2.6106,-2.3698,-2.2034,-2.0557,-1.9074,-1.76,-1.6868,-1.7616,-1.8354,-1.9276,-2.0381,-2.0381,-2.0566,-2.1121,-1.9276,-1.8176,-1.8176,-1.9648,-1.9648,-1.8176,-1.9648,-1.9276,-1.7242,-1.6868,-1.6494,-2.384,-2.384,0.0,0.0,0.0,0.0,0.0,0.0,0.0,0.0,0.0,0.0,0.0,0.0,0.0,0.0,0.0,0.0,0.0,0.0,0.0,0.0,0.0,0.0,0.0,0.0,0.0,0.0,0.0,0.0,0.0,0.0,0.0,0.0,0.0,0.0,-2.862,-2.862,-2.862,-2.862,-2.862,-2.862,-2.8608,-2.8355,-2.8222,-2.8186,-2.7944,-2.7691,-2.7449,-2.7425,-2.728,-2.7051,-2.7039,-2.7027,-2.7027,-2.7027,-2.7027,-2.7027,-2.7027,-2.7027,-2.7027,-2.7027,-2.7027,-2.7027,-2.7027,-2.7027,-2.7027,-2.7027,-2.7027,-2.7027,-2.7027,-2.7027,-2.7027,-2.7027,-2.7027,-2.7027,-2.7027,-2.7027,-2.7027,-2.7027,-2.7027,-2.7027,-2.7027,-2.7027,-2.647,-2.4613,-2.5913,-2.5548,-2.1859,-2.1121,-2.0557,-1.9074,-1.76,-1.7055,-1.7989,-1.9834,-2.0196,-1.8541,-1.8354,-1.9276,-2.1121,-1.9276,-1.8176,-1.8176,-1.8363,-1.8363,-1.8176,-1.8363,-1.7795,-1.6681,-1.6681,-1.6119,-2.384,-2.384,0.0,0.0,0.0,0.0,0.0,0.0,0.0,0.0,0.0,0.0,0.0,0.0,0.0,0.0,0.0,0.0,0.0,0.0,0.0,0.0,0.0,0.0,0.0,0.0,0.0,0.0,0.0,0.0,0.0,0.0,0.0,0.0,0.0,0.0,0.0,-2.862,-2.8536,-2.8367,-2.8536,-2.8536,-2.8355,-2.8246,-2.8029,-2.7715,-2.7618,-2.7425,-2.7172,-2.7172,-2.7123,-2.7027,-2.7027,-2.7027,-2.7027,-2.7027,-2.7027,-2.7027,-2.7027,-2.7027,-2.7027,-2.7027,-2.7027,-2.7027,-2.7027,-2.7027,-2.7027,-2.7027,-2.7027,-2.7027,-2.7027,-2.7027,-2.7027,-2.7027,-2.7027,-2.7027,-2.7027,-2.7027,-2.7027,-2.7027,-2.7027,-2.7027,-2.7027,-2.7027,-2.6288,-2.443,-2.4807,-2.3698,-1.9816,-1.9259,-1.871,-1.7234,-1.7055,-1.7429,-1.8176,-2.0019,-2.0751,-2.001,-2.001,-1.9834,-1.9276,-1.8541,-1.8176,-1.8176,-1.8176,-1.8176,-1.8176,-1.8176,-1.7616,-1.6681,-1.6681,-1.6119,-2.384,-2.384,0.0,0.0,0.0,0.0,0.0,0.0,0.0,0.0,0.0,0.0,0.0,0.0,0.0,0.0,0.0,0.0,0.0,0.0,0.0,0.0,0.0,0.0,0.0,0.0,0.0,0.0,0.0,0.0,0.0,0.0,0.0,0.0,0.0,0.0,0.0,-2.8367,-2.827,-2.8077,-2.827,-2.827,-2.8077,-2.7993,-2.7763,-2.7413,-2.7329,-2.7196,-2.7027,-2.7027,-2.7027,-2.7027,-2.7027,-2.7027,-2.7027,-2.7027,-2.7027,-2.7027,-2.7027,-2.7027,-2.7027,-2.7027,-2.7027,-2.7027,-2.7027,-2.7027,-2.7027,-2.7027,-2.7027,-2.7027,-2.7027,-2.7027,-2.7027,-2.7027,-2.7027,-2.7027,-2.7027,-2.7027,-2.7027,-2.7027,-2.7027,-2.7027,-2.7027,-2.7027,-2.6106,-2.3515,-2.3698,-2.2402,-1.7779,-1.7779,-1.76,-1.6126,-1.6688,-1.7429,-1.7989,-1.9276,-2.0196,-2.0196,-2.0196,-1.9834,-1.9099,-1.8541,-1.8176,-1.8176,-1.7989,-1.7989,-1.7989,-1.7989,-1.7429,-1.6494,-1.6681,-1.6119,-2.384,-2.384,0.0,0.0,0.0,0.0,0.0,0.0,0.0,0.0,0.0,0.0,0.0,0.0,0.0,0.0,0.0,0.0,0.0,0.0,0.0,0.0,0.0,0.0,0.0,0.0,0.0,0.0,0.0,0.0,0.0,0.0,0.0,0.0,0.0,0.0,0.0,-2.7811,-2.7811,-2.7811,-2.7811,-2.7811,-2.7799,-2.7534,-2.7425,-2.7401,-2.7148,-2.7027,-2.7027,-2.7027,-2.7027,-2.7027,-2.7027,-2.7027,-2.7027,-2.7027,-2.7027,-2.7027,-2.7027,-2.7027,-2.7027,-2.7027,-2.7027,-2.7027,-2.7027,-2.7027,-2.7027,-2.7027,-2.7027,-2.7027,-2.7027,-2.7027,-2.7027,-2.7027,-2.7027,-2.7027,-2.7027,-2.7027,-2.7027,-2.7027,-2.7027,-2.7027,-2.7027,-2.7027,-2.5548,-2.1675,-2.277,-2.184,-1.5924,-1.6853,-1.76,-1.6126,-1.6306,-1.6868,-1.7437,-1.7989,-1.8176,-1.8176,-1.8176,-1.9099,-2.0936,-1.9276,-1.8176,-1.8176,-1.7616,-1.7437,-1.7437,-1.7437,-1.6876,-1.5938,-1.6494,-1.6119,-2.384,0.0,0.0,0.0,0.0,0.0,0.0,0.0,0.0,0.0,0.0,0.0,0.0,0.0,0.0,0.0,0.0,0.0,0.0,0.0,0.0,0.0,0.0,0.0,0.0,0.0,0.0,0.0,0.0,0.0,0.0,0.0,0.0,0.0,0.0,0.0,0.0,-2.7811,-2.7715,-2.7534,-2.7534,-2.7534,-2.7534,-2.7461,-2.7317,-2.7135,-2.7063,-2.7027,-2.7027,-2.7027,-2.7027,-2.7027,-2.7027,-2.7027,-2.7027,-2.7027,-2.7027,-2.7027,-2.7027,-2.7027,-2.7027,-2.7027,-2.7027,-2.7027,-2.7027,-2.7027,-2.7027,-2.7027,-2.7027,-2.7027,-2.7027,-2.7027,-2.7027,-2.7027,-2.7027,-2.7027,-2.7027,-2.7027,-2.7027,-2.7027,-2.7027,-2.7027,-2.7027,-2.5913,-2.4064,-2.149,-2.0372,-1.8702,-1.5556,-1.5737,-1.6112,-1.6494,-1.6681,-1.7055,-1.7803,-1.9276,-1.9648,-1.8363,-1.9462,-1.9834,-1.9091,-1.8549,-1.8176,-1.8176,-1.7989,-1.7803,-1.7437,-1.7803,-1.7429,-1.6494,-1.6681,-1.6306,0.0,0.0,0.0,0.0,0.0,0.0,0.0,0.0,0.0,0.0,0.0,0.0,0.0,0.0,0.0,0.0,0.0,0.0,0.0,0.0,0.0,0.0,0.0,0.0,0.0,0.0,0.0,0.0,0.0,0.0,0.0,0.0,0.0,0.0,0.0,0.0,-2.7498,-2.7498,-2.7425,-2.7268,-2.7268,-2.7268,-2.7268,-2.7268,-2.7184,-2.7027,-2.7027,-2.7027,-2.7027,-2.7027,-2.7027,-2.7027,-2.7027,-2.7027,-2.7027,-2.7027,-2.7027,-2.7027,-2.7027,-2.7027,-2.7027,-2.7027,-2.7027,-2.7027,-2.7027,-2.7027,-2.7027,-2.7027,-2.7027,-2.7027,-2.7027,-2.7027,-2.7027,-2.7027,-2.7027,-2.7027,-2.7027,-2.7027,-2.7027,-2.7027,-2.7027,-2.7027,-2.7027,-2.6095,-2.4613,-2.2586,-1.9816,-1.7406,-1.5368,-1.5181,-1.5556,-1.6306,-1.6494,-1.7055,-1.7803,-1.9091,-1.9462,-1.8363,-1.9276,-1.9462,-1.8176,-1.8176,-1.8176,-1.8176,-1.7989,-1.7803,-1.7437,-1.7803,-1.7429,-1.6681,-1.6681,-1.6494,0.0,0.0,0.0,0.0,0.0,0.0,0.0,0.0,0.0,0.0,0.0,0.0,0.0,0.0,0.0,0.0,0.0,0.0,0.0,0.0,0.0,0.0,0.0,0.0,0.0,0.0,0.0,0.0,0.0,0.0,0.0,0.0,0.0,0.0,0.0,0.0,-2.7027,-2.7027,-2.7027,0.0,-2.7027,-2.7027,-2.7027,-2.7027,-2.7027,-2.7027,-2.7027,-2.7027,-2.7027,-2.7027,-2.7027,-2.7027,-2.7027,-2.7027,-2.7027,-2.7027,-2.7027,-2.7027,-2.7027,-2.7027,-2.7027,-2.7027,-2.7027,-2.7027,-2.7027,-2.7027,-2.7027,-2.7027,-2.7027,-2.7027,-2.7027,-2.7027,-2.7027,-2.7027,-2.7027,-2.7027,-2.7027,-2.7027,-2.7027,-2.7027,-2.7027,-2.7027,-2.7027,-2.6845,-2.6095,-2.3881,-2.0363,-1.7227,-1.5368,-1.5181,-1.5368,-1.5938,-1.6306,-1.6868,-1.7437,-1.7803,-1.8176,-1.8176,-1.8176,-1.8176,-1.8176,-1.8176,-1.8176,-1.8176,-1.7989,-1.7616,-1.7437,-1.7616,-1.7429,-1.6681,-1.6681,-1.6306,0.0,0.0,0.0,0.0,0.0,0.0,0.0,0.0,0.0,0.0,0.0,0.0,0.0,0.0,0.0,0.0,0.0,0.0,0.0,0.0,0.0,0.0,0.0,0.0,0.0,0.0,0.0,0.0,0.0,0.0,0.0,0.0,0.0,0.0,0.0,-2.7027,-2.7027,-2.7027,-2.7027,0.0,-2.7027,-2.7027,-2.7027,-2.7027,-2.7027,-2.7027,-2.7027,-2.7027,-2.7027,-2.7027,-2.7027,-2.7027,-2.7027,-2.7027,-2.7027,-2.7027,-2.7027,-2.7027,-2.7027,-2.7027,-2.7027,-2.7027,-2.7027,-2.7027,-2.7027,-2.7027,-2.7027,-2.7027,-2.7027,-2.7027,-2.7027,-2.7027,-2.7027,-2.7027,-2.7027,-2.7027,-2.7027,-2.7027,-2.7027,-2.7027,-2.7027,-2.7027,-2.7027,-2.573,-2.3504,-2.0001,-1.7406,-1.5744,-1.5181,-1.5181,-1.5368,-1.5938,-1.6306,-1.6868,-1.7437,-1.7803,-1.8176,-1.8176,-1.8176,-1.8176,-1.8176,-1.8176,-1.8176,-1.8176,-1.9648,-1.9276,-1.7437,-1.8896,-1.8896,-1.725,-1.6494,-1.6306,0.0,0.0,0.0,0.0,0.0,0.0,0.0,0.0,0.0,0.0,0.0,0.0,0.0,0.0,0.0,0.0,0.0,0.0,0.0,0.0,0.0,0.0,0.0,0.0,0.0,0.0,0.0,0.0,0.0,0.0,0.0,0.0,0.0,0.0,-2.7027,-2.7027,-2.7027,-2.7027,-2.7027,-2.7027,-2.7027,-2.7027,-2.7027,-2.7027,-2.7027,-2.7027,-2.7027,-2.7027,-2.7027,-2.7027,-2.7027,-2.7027,-2.7027,-2.7027,-2.7027,-2.7027,-2.7027,-2.7027,-2.7027,-2.7027,-2.7027,-2.7027,-2.7027,-2.7027,-2.7027,-2.7027,-2.7027,-2.7027,-2.7027,-2.7027,-2.7027,-2.7027,-2.7027,-2.7027,-2.7027,-2.7027,-2.7027,-2.7027,-2.7027,-2.7027,-2.7027,-2.7027,-2.7027,-2.6106,-2.3881,-1.8888,-1.8152,-1.7414,-1.5368,-1.5181,-1.5368,-1.5938,-1.6306,-1.6868,-1.7437,-1.7803,-1.8176,-1.8176,-1.8176,-1.8176,-1.8176,-1.8176,-1.8176,-1.8176,-1.9285,-1.9099,-1.7803,-1.8532,-1.8532,-1.7803,-1.6681,-1.6494,0.0,0.0,0.0,0.0,0.0,0.0,0.0,0.0,0.0,0.0,0.0,0.0,0.0,0.0,0.0,0.0,0.0,0.0,0.0,0.0,0.0,0.0,0.0,0.0,0.0,0.0,0.0,0.0,0.0,0.0,0.0,0.0,-2.7027,-2.7027,-2.7027,-2.7027,-2.7027,-2.7027,-2.7027,-2.7027,-2.7027,-2.7027,-2.7027,-2.7027,-2.7027,-2.7027,-2.7027,-2.7027,-2.7027,-2.7027,-2.7027,-2.7027,-2.7027,-2.7027,-2.7027,-2.7027,-2.7027,-2.7027,-2.7027,-2.7027,-2.7027,-2.7027,-2.7027,-2.7027,-2.7027,-2.7027,-2.7027,-2.7027,-2.7027,-2.7027,-2.7027,-2.7027,-2.7027,-2.7027,-2.7027,-2.7027,-2.7027,-2.7027,-2.7027,-2.7027,-2.7027,-2.7027,-2.7027,-2.647,-2.4247,-1.9445,-1.9445,-1.8896,-1.5556,-1.5181,-1.5368,-1.5751,-1.6306,-1.6868,-1.7242,-1.7803,-1.8176,-1.8176,-1.8176,-1.8176,-1.8176,-1.8176,-1.8176,-1.8176,-1.8541,-1.8541,-1.8176,-1.7989,-1.7989,-1.7989,-1.7055,-1.6681,0.0,0.0,0.0,0.0,0.0,0.0,0.0,0.0,0.0,0.0,0.0,0.0,0.0,0.0,0.0,0.0,0.0,0.0,0.0,0.0,0.0,0.0,0.0,0.0,0.0,0.0,0.0,0.0,0.0,0.0,0.0,-2.5001,-2.7027,-2.7027,-2.7027,-2.7027,-2.7027,-2.7027,-2.7027,-2.7027,-2.7027,-2.7027,-2.7027,-2.7027,-2.7027,-2.7027,-2.7027,-2.7027,-2.7027,-2.7027,-2.7027,-2.7027,-2.7027,-2.7027,-2.7027,-2.7027,-2.7027,-2.7027,-2.7027,-2.7027,-2.7027,-2.7027,-2.7027,-2.7027,-2.7027,-2.7027,-2.7027,-2.7027,-2.7027,-2.7027,-2.7027,-2.7027,-2.7027,-2.7027,-2.7027,-2.7027,-2.7027,-2.7027,-2.7027,-2.7027,-2.7027,-2.7027,-2.7027,-2.4075,-2.1675,-2.0742,-1.7965,-1.5737,-1.5181,-1.5181,-1.5181,-1.5368,-1.6119,-1.6681,-1.6868,-1.7616,-1.8176,-1.8176,-1.8176,-1.8176,-1.8176,-1.8176,-1.8176,-1.8176,-1.9834,-1.9834,-1.8176,-1.9454,-1.9082,-1.7437,-1.6868,-1.6681,0.0,0.0,0.0,0.0,0.0,0.0,0.0,0.0,0.0,0.0,0.0,0.0,0.0,0.0,0.0,0.0,0.0,0.0,0.0,0.0,0.0,0.0,0.0,0.0,0.0,0.0,0.0,0.0,0.0,0.0,-2.4441,-2.6106,-2.7027,-2.7027,-2.7027,-2.7027,-2.7027,-2.7027,-2.7027,-2.7027,-2.7027,-2.7027,-2.7027,-2.7027,-2.7027,-2.7027,-2.7027,-2.7027,-2.7027,-2.7027,-2.7027,-2.7027,-2.7027,-2.7027,-2.7027,-2.7027,-2.7027,-2.7027,-2.7027,-2.7027,-2.7027,-2.7027,-2.7027,-2.7027,-2.7027,-2.7027,-2.7027,-2.7027,-2.7027,-2.7027,-2.7027,-2.7027,-2.7027,-2.7027,-2.7027,-2.7027,-2.7027,-2.7027,-2.7027,-2.7027,-2.7027,-2.6288,-2.4075,-2.3148,-2.1665,-1.8338,-1.7227,-1.6479,-1.5368,-1.5181,-1.5181,-1.5181,-1.5744,-1.6306,-1.6681,-1.7429,-1.7803,-1.8176,-1.8176,-1.8176,-1.8176,-1.8176,-1.8176,-1.8176,-1.9099,-1.9091,-1.8176,-1.8532,-1.8354,-1.7803,-1.7242,-1.7055,0.0,0.0,0.0,0.0,0.0,0.0,0.0,0.0,0.0,0.0,0.0,0.0,0.0,0.0,0.0,0.0,0.0,0.0,0.0,0.0,0.0,0.0,0.0,0.0,0.0,0.0,0.0,0.0,0.0,0.0,-2.6106,-2.6664,-2.7027,-2.7027,-2.7027,-2.7027,-2.7027,-2.7027,-2.7027,-2.7027,-2.7027,-2.7027,-2.7027,-2.7027,-2.7027,-2.7027,-2.7027,-2.7027,-2.7027,-2.7027,-2.7027,-2.7027,-2.7027,-2.7027,-2.7027,-2.7027,-2.7027,-2.7027,-2.7027,-2.7027,-2.7027,-2.7027,-2.7027,-2.7027,-2.7027,-2.7027,-2.7027,-2.7027,-2.7027,-2.7027,-2.7027,-2.7027,-2.7027,-2.7027,-2.7027,-2.7027,-2.7027,-2.7027,-2.7027,-2.7027,-2.7027,-2.6106,-2.3148,-2.2964,-2.185,-1.7414,-1.704,-1.6853,-1.5368,-1.5181,-1.5181,-1.5181,-1.5563,-1.6126,-1.6681,-1.7055,-1.7616,-1.8176,-1.8176,-1.8176,-1.8176,-1.8176,-1.8176,-1.8176,-1.8176,-1.8176,-1.8176,-1.7803,-1.7803,-1.7989,-1.7803,-1.7624,0.0,0.0,0.0,0.0,0.0,0.0,0.0,0.0,0.0,0.0,0.0,0.0,0.0,0.0,0.0,0.0,0.0,0.0,0.0,0.0,0.0,0.0,0.0,0.0,0.0,0.0,0.0,0.0,0.0,0.0,-2.4247,-2.5913,-2.7027,-2.7027,-2.7027,-2.7027,-2.7027,-2.7027,-2.7027,-2.7027,-2.7027,-2.7027,-2.7027,-2.7027,-2.7027,-2.7027,-2.7027,-2.7027,-2.7027,-2.7027,-2.7027,-2.7027,-2.7027,-2.7027,-2.7027,-2.7027,-2.7027,-2.7027,-2.7027,-2.7027,-2.7027,-2.7027,-2.7027,-2.7027,-2.7027,-2.7027,-2.7027,-2.7027,-2.7027,-2.7027,-2.7027,-2.7027,-2.7027,-2.7027,-2.7027,-2.7027,-2.7027,-2.7027,-2.7027,-2.7027,-2.7027,-2.6845,-2.6664,-2.3698,-2.1111,-2.0927,-1.7779,-1.5368,-1.5181,-1.5181,-1.5181,-1.5181,-1.5563,-1.6126,-1.6681,-1.7055,-1.7616,-1.8176,-1.8176,-1.8176,-1.8176,-1.8176,-1.8176,-1.8176,-1.8176,-1.8176,-1.8176,-1.8176,-1.7989,-1.7437,-1.7989,-1.7803,0.0,0.0,0.0,0.0,0.0,0.0,0.0,0.0,0.0,0.0,0.0,0.0,0.0,0.0,0.0,0.0,0.0,0.0,0.0,0.0,0.0,0.0,0.0,0.0,0.0,0.0,0.0,0.0,0.0,0.0,-2.5913,-2.6652,-2.7027,-2.7027,-2.7027,-2.7027,-2.7027,-2.7027,-2.7027,-2.7027,-2.7027,-2.7027,-2.7027,-2.7027,-2.7027,-2.7027,-2.7027,-2.7027,-2.7027,-2.7027,-2.7027,-2.7027,-2.7027,-2.7027,-2.7027,-2.7027,-2.7027,-2.7027,-2.7027,-2.7027,-2.7027,-2.7027,-2.7027,-2.7027,-2.7027,-2.7027,-2.7027,-2.7027,-2.7027,-2.7027,-2.7027,-2.7027,-2.7027,-2.7027,-2.7027,-2.7027,-2.7027,-2.7027,-2.7027,-2.7027,-2.7027,-2.6664,-2.5354,-2.2954,-2.0742,-1.9445,-1.6853,-1.5181,-1.5181,-1.5181,-1.5181,-1.5181,-1.5368,-1.5744,-1.6681,-1.6868,-1.7242,-1.8176,-1.8176,-1.8176,-1.8176,-1.8176,-1.8176,-1.8176,-1.8176,-1.8176,-1.8176,-1.8176,-1.8176,-1.7989,-1.8176,-1.8176,0.0,0.0,0.0,0.0,0.0,0.0,0.0,0.0,0.0,0.0,0.0,0.0,0.0,0.0,0.0,0.0,0.0,0.0,0.0,0.0,0.0,0.0,0.0,0.0,0.0,0.0,0.0,0.0,0.0,0.0,-2.7027,-2.7027,-2.7027,-2.7027,-2.7027,-2.7027,-2.7027,-2.7027,-2.7027,-2.7027,-2.7027,-2.7027,-2.7027,-2.7027,-2.7027,-2.7027,-2.7027,-2.7027,-2.7027,-2.7027,-2.7027,-2.7027,-2.7027,-2.7027,-2.7027,-2.7027,-2.7027,-2.7027,-2.7027,-2.7027,-2.7027,-2.7027,-2.7027,-2.7027,-2.7027,-2.7027,-2.7027,-2.7027,-2.7027,-2.7027,-2.7027,-2.7027,-2.7027,-2.7027,-2.7027,-2.7027,-2.7027,-2.7027,-2.7027,-2.7027,-2.7027,-2.6288,-2.443,-2.2402,-2.0372,-1.8338,-1.6479,-1.5181,-1.5181,-1.5181,-1.5181,-1.5181,-1.5181,-1.5556,-1.6681,-1.6681,-1.7055,-1.8176,-1.8176,-1.8176,-1.8176,-1.8913,-1.9091,-1.9091,-1.9091,-1.9091,-1.9091,-1.8541,-1.8176,-1.8176,-1.8176,-1.8176,0.0,0.0,0.0,0.0,0.0,0.0,0.0,0.0,0.0,0.0,0.0,0.0,0.0,0.0,0.0,0.0,0.0,0.0,0.0,0.0,0.0,0.0,0.0,0.0,0.0,0.0,0.0,0.0,0.0,-2.499,-2.6845,-2.7027,-2.7027,-2.7027,-2.7027,-2.7027,-2.7027,-2.7027,-2.7027,-2.7027,-2.7027,-2.7027,-2.7027,-2.7027,-2.7027,-2.7027,-2.7027,-2.7027,-2.7027,-2.7027,-2.7027,-2.7027,-2.7027,-2.7027,-2.7027,-2.7027,-2.7027,-2.7027,-2.7027,-2.7027,-2.7027,-2.7027,-2.7027,-2.7027,-2.7027,-2.7027,-2.7027,-2.7027,-2.7027,-2.7027,-2.7027,-2.7027,-2.7027,-2.7027,-2.7027,-2.7027,-2.7027,-2.7027,-2.7027,-2.7027,-2.7027,-2.647,-2.443,-2.2402,-2.0372,-1.8524,-1.6479,-1.5181,-1.5181,-1.5181,-1.5181,-1.5181,-1.5181,-1.5556,-1.6681,-1.6681,-1.7055,-1.8176,-1.8176,-1.8176,-1.8176,-2.001,-2.1121,-2.1121,-2.1111,-2.1111,-2.1121,-1.9099,-1.8176,-1.8176,-1.8176,-1.8176,-2.4854,0.0,0.0,0.0,0.0,0.0,0.0,0.0,0.0,0.0,0.0,0.0,0.0,0.0,0.0,0.0,0.0,0.0,0.0,0.0,0.0,0.0,0.0,0.0,0.0,0.0,0.0,0.0,-2.6288,-2.647,-2.7027,-2.7027,-2.7027,-2.7027,-2.7027,-2.7027,-2.7027,-2.7027,-2.7027,-2.7027,-2.7027,-2.7027,-2.7027,-2.7027,-2.7027,-2.7027,-2.7027,-2.7027,-2.7027,-2.7027,-2.7027,-2.7027,-2.7027,-2.7027,-2.7027,-2.7027,-2.7027,-2.7027,-2.7027,-2.7027,-2.7027,-2.7027,-2.7027,-2.7027,-2.7027,-2.7027,-2.7027,-2.7027,-2.7027,-2.7027,-2.7027,-2.7027,-2.7027,-2.7027,-2.7027,-2.7027,-2.7027,-2.7027,-2.7027,-2.7027,-2.7027,-2.6845,-2.6288,-2.3331,-2.0927,-2.0372,-1.7414,-1.5181,-1.5181,-1.5181,-1.5181,-1.5181,-1.5181,-1.5556,-1.6681,-1.6681,-1.7055,-1.8176,-1.8176,-1.8176,-1.8176,-2.001,-2.1121,-2.1121,-2.2402,-2.2586,-2.1121,-1.9099,-1.8176,-1.8176,-1.8176,-1.8176,0.0,0.0,0.0,0.0,0.0,0.0,0.0,-2.5844,0.0,0.0,0.0,0.0,0.0,0.0,0.0,0.0,0.0,0.0,0.0,0.0,0.0,0.0,0.0,0.0,0.0,0.0,0.0,0.0,-2.573,-2.6106,-2.7027,-2.7027,-2.7027,-2.7027,-2.7027,-2.7027,-2.7027,-2.7027,-2.7027,-2.7027,-2.7027,-2.7027,-2.7027,-2.7027,-2.7027,-2.7027,-2.7027,-2.7027,-2.7027,-2.7027,-2.7027,-2.7027,-2.7027,-2.7027,-2.7027,-2.7027,-2.7027,-2.7027,-2.7027,-2.7027,-2.7027,-2.7027,-2.7027,-2.7027,-2.7027,-2.7027,-2.7027,-2.7027,-2.7027,-2.7027,-2.7027,-2.7027,-2.7027,-2.7027,-2.7027,-2.7027,-2.7027,-2.6288,-2.6095,-2.6845,-2.7027,-2.647,-2.4807,-2.2596,-2.0557,-1.8896,-1.6666,-1.5181,-1.5181,-1.5181,-1.5181,-1.5181,-1.5181,-1.5556,-1.6306,-1.6494,-1.7055,-1.7803,-1.7989,-1.8541,-1.9462,-2.1296,-2.277,-2.3494,-2.4591,-2.386,-2.1121,-2.001,-1.8913,-1.8176,-1.8176,-1.8176,0.0,0.0,0.0,0.0,0.0,0.0,-2.5433,-2.5844,0.0,0.0,0.0,0.0,0.0,0.0,0.0,0.0,0.0,0.0,0.0,0.0,0.0,0.0,0.0,0.0,0.0,0.0,-2.2412,-2.4247,-2.443,-2.5172,-2.6845,-2.7027,-2.7027,-2.7027,-2.7027,-2.7027,-2.7027,-2.7027,-2.7027,-2.7027,-2.7027,-2.7027,-2.7027,-2.7027,-2.7027,-2.7027,-2.7027,-2.7027,-2.7027,-2.7027,-2.7027,-2.7027,-2.7027,-2.7027,-2.7027,-2.7027,-2.7027,-2.7027,-2.7027,-2.7027,-2.7027,-2.7027,-2.7027,-2.7027,-2.7027,-2.7027,-2.7027,-2.7027,-2.7027,-2.7027,-2.7027,-2.6845,-2.6664,-2.7027,-2.6845,-2.6664,-2.6664,-2.5354,-2.4613,-2.6106,-2.6288,-2.5183,-2.1675,-2.0927,-1.963,-1.6112,-1.5368,-1.5181,-1.5181,-1.5181,-1.5181,-1.5181,-1.5181,-1.5368,-1.5938,-1.6306,-1.6868,-1.7437,-1.7989,-1.9099,-2.0936,-2.2954,-2.4967,-2.6966,-2.6966,-2.5138,-2.1481,-2.0936,-1.9834,-1.8176,-1.8176,-1.8176,0.0,0.0,0.0,0.0,0.0,0.0,-2.5433,-2.5844,0.0,0.0,0.0,0.0,0.0,0.0,0.0,0.0,0.0,0.0,0.0,0.0,0.0,0.0,0.0,0.0,0.0,0.0,-2.5924,-2.647,-2.647,-2.6664,-2.7027,-2.7027,-2.7027,-2.7027,-2.7027,-2.7027,-2.7027,-2.7027,-2.7027,-2.7027,-2.7027,-2.7027,-2.7027,-2.7027,-2.7027,-2.7027,-2.7027,-2.7027,-2.7027,-2.7027,-2.7027,-2.7027,-2.7027,-2.7027,-2.7027,-2.7027,-2.7027,-2.7027,-2.7027,-2.7027,-2.7027,-2.7027,-2.7027,-2.7027,-2.7027,-2.7027,-2.7027,-2.7027,-2.7027,-2.7027,-2.7027,-2.5913,-2.499,-2.6664,-2.573,-2.4613,-2.4613,-2.443,-2.3698,-2.2412,-2.2228,-2.2044,-2.1306,-1.9816,-1.8338,-1.7592,-1.6112,-1.5181,-1.5181,-1.5181,-1.5181,-1.5181,-1.5181,-1.5368,-1.5938,-1.6306,-1.6868,-1.7437,-1.7989,-1.9099,-2.0936,-2.2954,-2.4967,-2.6966,-2.6966,-2.5878,-2.3504,-2.0381,-1.8541,-1.8176,-1.8176,-1.8176,0.0,0.0,0.0,-2.5433,0.0,0.0,0.0,-2.5844,-2.6218,0.0,0.0,0.0,0.0,0.0,0.0,0.0,0.0,0.0,0.0,0.0,0.0,0.0,0.0,0.0,0.0,0.0,-2.7027,-2.7027,-2.7027,-2.7027,-2.7027,-2.7027,-2.7027,-2.7027,-2.7027,-2.7027,-2.7027,-2.7027,-2.7027,-2.7027,-2.7027,-2.7027,-2.7027,-2.7027,-2.7027,-2.7027,-2.7027,-2.7027,-2.7027,-2.7027,-2.7027,-2.7027,-2.7027,-2.7027,-2.7027,-2.7027,-2.7027,-2.7027,-2.7027,-2.7027,-2.7027,-2.7027,-2.7027,-2.7027,-2.7027,-2.7027,-2.6845,-2.5913,-2.5548,-2.5354,-2.4258,-2.3331,-2.277,-2.3881,-2.3331,-2.2586,-2.2586,-2.185,-2.0742,-1.9816,-1.8896,-1.8524,-1.9445,-1.8702,-1.7779,-1.6853,-1.5737,-1.5181,-1.5181,-1.5181,-1.5181,-1.5181,-1.5181,-1.5368,-1.5556,-1.6306,-1.6868,-1.7055,-1.7803,-1.9462,-2.2402,-2.3504,-2.5332,-2.8436,-2.7521,-2.606,-2.4054,-2.1121,-1.9099,-1.8176,-1.8176,-1.8176,0.0,0.0,0.0,0.0,0.0,-2.5433,0.0,0.0,0.0,-2.6218,0.0,0.0,0.0,0.0,0.0,0.0,0.0,0.0,0.0,0.0,0.0,0.0,0.0,0.0,0.0,0.0,-2.7027,-2.7027,-2.7027,-2.7027,-2.7027,-2.7027,-2.7027,-2.7027,-2.7027,-2.7027,-2.7027,-2.7027,-2.7027,-2.7027,-2.7027,-2.7027,-2.7027,-2.7027,-2.7027,-2.7027,-2.7027,-2.7027,-2.7027,-2.7027,-2.7027,-2.7027,-2.7027,-2.7027,-2.7027,-2.7027,-2.7027,-2.7027,-2.7027,-2.7027,-2.7027,-2.7027,-2.7027,-2.7027,-2.7027,-2.7027,-2.6652,-2.4613,-2.4064,-2.3687,-2.1665,-2.0751,-2.0557,-2.0936,-2.0742,-2.0557,-2.0557,-1.9259,-1.7965,-1.7592,-1.6299,-1.5737,-1.7227,-1.7592,-1.704,-1.5368,-1.5181,-1.5181,-1.5181,-1.5181,-1.5181,-1.5181,-1.5181,-1.5181,-1.5181,-1.6119,-1.6681,-1.6681,-1.7981,-2.0196,-2.3871,-2.4785,-2.6616,-2.9913,-2.8436,-2.6604,-2.4602,-2.2586,-2.0381,-1.8176,-1.8176,-1.816,0.0,0.0,0.0,0.0,-2.5433,0.0,0.0,0.0,-2.6218,-2.6218,0.0,0.0,0.0,0.0,0.0,0.0,0.0,0.0,0.0,0.0,0.0,0.0,0.0,0.0,0.0,0.0,-2.7027,-2.7027,-2.7027,-2.7027,-2.7027,-2.7027,-2.7027,-2.7027,-2.7027,-2.7027,-2.7027,-2.7027,-2.7027,-2.7027,-2.7027,-2.7027,-2.7027,-2.7027,-2.7027,-2.7027,-2.7027,-2.7027,-2.7027,-2.7027,-2.7027,-2.7027,-2.7027,-2.7027,-2.7027,-2.7027,-2.7027,-2.7027,-2.7027,-2.7027,-2.7027,-2.7027,-2.7027,-2.7027,-2.7027,-2.7027,-2.6652,-2.4613,-2.4064,-2.3687,-2.1665,-1.9816,-1.8896,-2.0751,-1.9816,-1.8524,-1.8524,-1.8338,-1.7592,-1.5924,-1.5368,-1.5181,-1.5556,-1.5556,-1.5368,-1.5181,-1.5181,-1.5181,-1.5181,-1.5181,-1.5181,-1.5181,-1.5181,-1.5181,-1.5181,-1.5744,-1.6126,-1.6681,-1.8888,-2.1287,-2.3871,-2.7353,-2.9362,-2.9913,-2.9734,-2.8629,-2.6604,-2.4602,-2.185,-1.8176,-1.8176,-1.8095,0.0,0.0,0.0,0.0,0.0,0.0,0.0,0.0,-2.6266,0.0,0.0,0.0,0.0,0.0,0.0,0.0,0.0,0.0,0.0,0.0,0.0,0.0,0.0,0.0,0.0,0.0,0.0,0.0,0.0,-2.687,-2.7027,-2.7027,-2.7027,-2.7027,-2.7027,-2.7027,-2.7027,-2.7027,-2.7027,-2.7027,-2.7027,-2.7027,-2.7027,-2.7027,-2.7027,-2.7027,-2.7027,-2.7027,-2.7027,-2.7027,-2.7027,-2.7027,-2.7027,-2.7027,-2.7027,-2.7027,-2.7027,-2.7027,-2.7027,-2.7027,-2.7027,-2.7027,-2.7027,-2.7027,-2.7027,-2.6288,-2.499,-2.2954,-2.1481,-2.0178,-1.8152,-1.704,-1.6666,-1.7414,-1.704,-1.6486,-1.6486,-1.6486,-1.6112,-1.5368,-1.5181,-1.5181,-1.5181,-1.5181,-1.5181,-1.5181,-1.5181,-1.5181,-1.5181,-1.5181,-1.5181,-1.5181,-1.5181,-1.5181,-1.5181,-1.5931,-1.686,-1.8338,-2.2014,-2.4763,-2.5696,-2.8449,-2.9913,-2.9913,-2.9913,-2.8989,-2.6966,-2.6241,-2.4226,-2.1481,-1.9276,-1.8626,-2.5433,0.0,0.0,0.0,0.0,0.0,0.0,0.0,0.0,0.0,0.0,0.0,0.0,0.0,0.0,0.0,0.0,0.0,0.0,0.0,0.0,0.0,0.0,0.0,0.0,0.0,0.0,0.0,0.0,0.0,-2.6918,-2.6991,-2.7027,-2.7027,-2.7027,-2.7027,-2.7027,-2.7027,-2.7027,-2.7027,-2.7027,-2.7027,-2.7027,-2.7027,-2.7027,-2.7027,-2.7027,-2.7027,-2.7027,-2.7027,-2.7027,-2.7027,-2.7027,-2.7027,-2.7027,-2.7027,-2.7027,-2.7027,-2.7027,-2.7027,-2.7027,-2.7027,-2.6664,-2.6288,-2.6288,-2.4807,-2.277,-2.0927,-1.9259,-1.7592,-1.5737,-1.5181,-1.5181,-1.5181,-1.5181,-1.5181,-1.5181,-1.5181,-1.5181,-1.5181,-1.5181,-1.5181,-1.5181,-1.5181,-1.5181,-1.5181,-1.5181,-1.5181,-1.5181,-1.5181,-1.5181,-1.5181,-1.5181,-1.5181,-1.5181,-1.5931,-1.7414,-2.0168,-2.4032,-2.6604,-2.7702,-2.9182,-2.9913,-2.9913,-2.9913,-2.9182,-2.7702,-2.7341,-2.6241,-2.4785,-2.0751,-1.9516,0.0,0.0,0.0,0.0,0.0,0.0,0.0,0.0,-2.6629,0.0,0.0,0.0,0.0,0.0,0.0,-2.594,0.0,0.0,0.0,0.0,0.0,0.0,0.0,0.0,0.0,0.0,0.0,0.0,0.0,0.0,-2.6653,-2.6894,-2.7027,-2.7027,-2.7027,-2.7027,-2.7027,-2.7027,-2.7027,-2.7027,-2.7027,-2.7027,-2.7027,-2.7027,-2.7027,-2.7027,-2.7027,-2.7027,-2.7027,-2.7027,-2.7027,-2.7027,-2.7027,-2.7027,-2.7027,-2.7027,-2.7027,-2.7027,-2.7027,-2.7027,-2.7027,-2.7027,-2.573,-2.4247,-2.4247,-2.277,-2.0742,-1.8702,-1.8152,-1.7592,-1.5737,-1.5181,-1.5181,-1.5181,-1.5181,-1.5181,-1.5181,-1.5181,-1.5181,-1.5181,-1.5181,-1.5181,-1.5181,-1.5181,-1.5181,-1.5181,-1.5181,-1.5181,-1.5181,-1.5181,-1.5181,-1.5181,-1.5181,-1.5181,-1.5181,-1.5181,-1.7219,-2.2188,-2.3494,-2.5878,-2.9734,-2.9913,-2.9913,-2.9913,-2.9913,-2.9913,-2.9734,-2.7895,-2.6966,-2.6785,-2.276,-2.0894,0.0,0.0,-2.5977,-2.6061,0.0,0.0,0.0,0.0,0.0,0.0,0.0,0.0,0.0,0.0,-2.6242,-2.5892,-2.5687,0.0,0.0,0.0,0.0,0.0,0.0,0.0,0.0,0.0,0.0,0.0,0.0,0.0,0.0,-2.6725,-2.6846,-2.7027,-2.7027,-2.7027,-2.7027,-2.7027,-2.7027,-2.7027,-2.7027,-2.7027,-2.7027,-2.7027,-2.7027,-2.7027,-2.7027,-2.7027,-2.7027,-2.7027,-2.7027,-2.7027,-2.7027,-2.7027,-2.7027,-2.7027,-2.7027,-2.7027,-2.7027,-2.7027,-2.7027,-2.7027,-2.573,-2.4064,-2.4064,-2.185,-1.8896,-1.8338,-1.7227,-1.6112,-1.5368,-1.5181,-1.5181,-1.5181,-1.5181,-1.5181,-1.5181,-1.5181,-1.5181,-1.5181,-1.5181,-1.5181,-1.5181,-1.5181,-1.5181,-1.5181,-1.5181,-1.5181,-1.5181,-1.5181,-1.5181,-1.5181,-1.5181,-1.5181,-1.5181,-1.7032,-1.9436,-2.2739,-2.4956,-2.716,-2.9734,-2.9913,-2.9913,-2.9913,-2.9913,-2.9913,-2.9913,-2.9182,-2.8989,-2.8809,-2.6241,-2.3976,-2.617,-2.6218,0.0,0.0,-2.6363,0.0,0.0,0.0,0.0,0.0,0.0,0.0,0.0,0.0,0.0,-2.5747,-2.5542,-2.5433,0.0,-2.5433,0.0,0.0,0.0,0.0,0.0,0.0,0.0,0.0,0.0,0.0,0.0,0.0,-2.6616,-2.6882,-2.6894,-2.693,-2.7027,-2.7027,-2.7027,-2.7027,-2.7027,-2.7027,-2.7027,-2.7027,-2.7027,-2.7027,-2.7027,-2.7027,-2.7027,-2.7027,-2.7027,-2.7027,-2.7027,-2.7027,-2.7027,-2.7027,-2.7027,-2.7027,-2.7027,-2.647,-2.5913,-2.5913,-2.4064,-2.2024,-2.2024,-1.963,-1.7048,-1.7108,-1.6155,-1.5194,-1.5248,-1.5221,-1.5181,-1.5181,-1.5181,-1.5181,-1.5181,-1.5181,-1.5181,-1.5181,-1.5181,-1.5181,-1.5181,-1.5181,-1.5181,-1.5181,-1.5181,-1.5181,-1.5181,-1.5181,-1.5181,-1.5181,-1.5181,-1.5181,-1.5181,-1.7779,-2.0363,-2.2923,-2.532,-2.7715,-2.9734,-2.9913,-2.9913,-2.9913,-2.9913,-2.9913,-2.9913,-2.9913,-2.9913,-2.9913,-2.8527,-2.6604]}]]